Wetterdaten: Freitag, 12.10.2018
Datum Zeit Temp. A. Pool Temp. Temp. 5cm Feuchte A. Luftdruck Regen Wind Richtung Richtung Sonnenschein ET UV Solar Taupunkt Windchill Windben Empfang
12.10.2018 00:00 13,7 C 12,8 C 10,0 C 59 % 1017,4 hPa 0,0 l/m 5,6 km/h (1 Bft) O-NO 73 0 min 0,000 mm 0,0 UV-I 0 W/m 5,8 C 13,7 C 9,7 km/h (2 Bft) 100,00 %
12.10.2018 00:02 13,7 C 12,8 C 10,0 C 59 % 1017,4 hPa 0,0 l/m 4,8 km/h (1 Bft) O-NO 74 0 min 0,000 mm 0,0 UV-I 0 W/m 5,8 C 13,7 C 6,4 km/h (2 Bft) 97,50 %
12.10.2018 00:04 13,6 C 12,8 C 9,4 C 59 % 1017,4 hPa 0,0 l/m 4,0 km/h (1 Bft) O-NO 74 0 min 0,000 mm 0,0 UV-I 0 W/m 5,7 C 13,6 C 6,4 km/h (2 Bft) 100,00 %
12.10.2018 00:06 13,6 C 12,8 C 8,9 C 59 % 1017,5 hPa 0,0 l/m 5,0 km/h (1 Bft) O-NO 76 0 min 0,000 mm 0,0 UV-I 0 W/m 5,7 C 13,6 C 6,4 km/h (2 Bft) 100,00 %
12.10.2018 00:08 13,6 C 12,8 C 8,9 C 59 % 1017,5 hPa 0,0 l/m 4,5 km/h (1 Bft) O-NO 77 0 min 0,000 mm 0,0 UV-I 0 W/m 5,7 C 13,6 C 6,4 km/h (2 Bft) 100,00 %
12.10.2018 00:10 13,7 C 12,8 C 8,9 C 59 % 1017,5 hPa 0,0 l/m 4,8 km/h (1 Bft) O-NO 76 0 min 0,000 mm 0,0 UV-I 0 W/m 5,8 C 13,7 C 6,4 km/h (2 Bft) 97,87 %
12.10.2018 00:12 13,7 C 12,8 C 9,4 C 58 % 1017,5 hPa 0,0 l/m 5,3 km/h (1 Bft) O-NO 73 0 min 0,000 mm 0,0 UV-I 0 W/m 5,6 C 13,7 C 8,0 km/h (2 Bft) 100,00 %
12.10.2018 00:14 13,7 C 12,8 C 9,4 C 59 % 1017,6 hPa 0,0 l/m 4,6 km/h (1 Bft) O-NO 76 0 min 0,000 mm 0,0 UV-I 0 W/m 5,8 C 13,7 C 6,4 km/h (2 Bft) 100,00 %
12.10.2018 00:16 13,6 C 12,8 C 8,9 C 59 % 1017,6 hPa 0,0 l/m 3,9 km/h (1 Bft) O-NO 78 0 min 0,000 mm 0,0 UV-I 0 W/m 5,7 C 13,6 C 6,4 km/h (2 Bft) 100,00 %
12.10.2018 00:18 13,5 C 12,8 C 8,9 C 59 % 1017,6 hPa 0,0 l/m 3,8 km/h (1 Bft) O-NO 78 0 min 0,000 mm 0,0 UV-I 0 W/m 5,6 C 13,5 C 4,8 km/h (1 Bft) 100,00 %
12.10.2018 00:20 13,3 C 12,8 C 8,3 C 60 % 1017,6 hPa 0,0 l/m 3,7 km/h (1 Bft) O-NO 78 0 min 0,000 mm 0,0 UV-I 0 W/m 5,7 C 13,3 C 4,8 km/h (1 Bft) 97,87 %
12.10.2018 00:22 13,2 C 12,8 C 7,8 C 60 % 1017,6 hPa 0,0 l/m 3,9 km/h (1 Bft) O-NO 78 0 min 0,000 mm 0,0 UV-I 0 W/m 5,6 C 13,2 C 4,8 km/h (1 Bft) 97,87 %
12.10.2018 00:24 13,2 C 12,8 C 7,8 C 60 % 1017,6 hPa 0,0 l/m 4,3 km/h (1 Bft) O-NO 78 0 min 0,000 mm 0,0 UV-I 0 W/m 5,6 C 13,2 C 6,4 km/h (2 Bft) 97,92 %
12.10.2018 00:26 13,3 C 12,8 C 7,8 C 60 % 1017,6 hPa 0,0 l/m 3,9 km/h (1 Bft) O-NO 78 0 min 0,000 mm 0,0 UV-I 0 W/m 5,7 C 13,3 C 4,8 km/h (1 Bft) 97,87 %
12.10.2018 00:28 13,4 C 12,8 C 8,3 C 59 % 1017,6 hPa 0,0 l/m 3,2 km/h (1 Bft) O-NO 78 0 min 0,000 mm 0,0 UV-I 0 W/m 5,6 C 13,4 C 4,8 km/h (1 Bft) 98,00 %
12.10.2018 00:30 13,4 C 12,8 C 7,8 C 59 % 1017,6 hPa 0,0 l/m 2,7 km/h (1 Bft) O-NO 78 0 min 0,000 mm 0,0 UV-I 0 W/m 5,6 C 13,4 C 3,2 km/h (1 Bft) 94,00 %
12.10.2018 00:32 13,4 C 12,8 C 7,8 C 60 % 1017,6 hPa 0,0 l/m 2,4 km/h (1 Bft) O-NO 78 0 min 0,000 mm 0,0 UV-I 0 W/m 5,8 C 13,4 C 3,2 km/h (1 Bft) 93,62 %
12.10.2018 00:34 13,0 C 12,8 C 7,8 C 61 % 1017,6 hPa 0,0 l/m 1,9 km/h (1 Bft) O-NO 78 0 min 0,000 mm 0,0 UV-I 0 W/m 5,7 C 13,0 C 3,2 km/h (1 Bft) 93,75 %
12.10.2018 00:36 12,3 C 12,8 C 7,2 C 63 % 1017,6 hPa 0,0 l/m 2,1 km/h (1 Bft) O-NO 78 0 min 0,000 mm 0,0 UV-I 0 W/m 5,5 C 12,3 C 3,2 km/h (1 Bft) 97,37 %
12.10.2018 00:38 12,0 C 12,8 C 7,2 C 66 % 1017,6 hPa 0,0 l/m 2,3 km/h (1 Bft) O-NO 78 0 min 0,000 mm 0,0 UV-I 0 W/m 5,8 C 12,0 C 3,2 km/h (1 Bft) 93,62 %
12.10.2018 00:40 11,7 C 12,8 C 7,2 C 67 % 1017,6 hPa 0,0 l/m 3,1 km/h (1 Bft) O-NO 78 0 min 0,000 mm 0,0 UV-I 0 W/m 5,8 C 11,7 C 4,8 km/h (1 Bft) 96,00 %
12.10.2018 00:42 11,7 C 12,8 C 6,7 C 67 % 1017,6 hPa 0,0 l/m 3,2 km/h (1 Bft) O-NO 78 0 min 0,000 mm 0,0 UV-I 0 W/m 5,8 C 11,7 C 4,8 km/h (1 Bft) 95,74 %
12.10.2018 00:44 11,9 C 12,8 C 6,7 C 65 % 1017,6 hPa 0,0 l/m 3,8 km/h (1 Bft) O 80 0 min 0,000 mm 0,0 UV-I 0 W/m 5,5 C 11,9 C 4,8 km/h (1 Bft) 95,74 %
12.10.2018 00:46 11,9 C 12,8 C 6,7 C 66 % 1017,6 hPa 0,0 l/m 3,4 km/h (1 Bft) O 80 0 min 0,000 mm 0,0 UV-I 0 W/m 5,8 C 11,9 C 4,8 km/h (1 Bft) 98,00 %
12.10.2018 00:48 11,8 C 12,8 C 7,2 C 66 % 1017,6 hPa 0,0 l/m 3,4 km/h (1 Bft) O 94 0 min 0,000 mm 0,0 UV-I 0 W/m 5,7 C 11,8 C 4,8 km/h (1 Bft) 95,74 %
12.10.2018 00:50 11,6 C 12,8 C 6,7 C 67 % 1017,6 hPa 0,0 l/m 2,9 km/h (1 Bft) O 94 0 min 0,000 mm 0,0 UV-I 0 W/m 5,7 C 11,6 C 3,2 km/h (1 Bft) 97,44 %
12.10.2018 00:52 11,6 C 12,8 C 6,7 C 67 % 1017,6 hPa 0,0 l/m 2,3 km/h (1 Bft) O 94 0 min 0,000 mm 0,0 UV-I 0 W/m 5,7 C 11,6 C 3,2 km/h (1 Bft) 95,74 %
12.10.2018 00:54 11,5 C 12,8 C 6,7 C 68 % 1017,6 hPa 0,0 l/m 3,7 km/h (1 Bft) O 94 0 min 0,000 mm 0,0 UV-I 0 W/m 5,8 C 11,5 C 4,8 km/h (1 Bft) 97,87 %
12.10.2018 00:56 11,7 C 12,8 C 6,1 C 67 % 1017,6 hPa 0,0 l/m 4,0 km/h (1 Bft) O 94 0 min 0,000 mm 0,0 UV-I 0 W/m 5,8 C 11,7 C 4,8 km/h (1 Bft) 95,74 %
12.10.2018 00:58 11,8 C 12,8 C 6,1 C 67 % 1017,7 hPa 0,0 l/m 3,5 km/h (1 Bft) O 94 0 min 0,000 mm 0,0 UV-I 0 W/m 5,9 C 11,8 C 4,8 km/h (1 Bft) 95,74 %
12.10.2018 01:00 11,9 C 12,8 C 6,1 C 66 % 1017,6 hPa 0,0 l/m 3,1 km/h (1 Bft) O 94 0 min 0,000 mm 0,0 UV-I 0 W/m 5,8 C 11,9 C 4,8 km/h (1 Bft) 97,87 %
12.10.2018 01:02 11,8 C 12,8 C 6,1 C 66 % 1017,7 hPa 0,0 l/m 1,9 km/h (1 Bft) O 94 0 min 0,025 mm 0,0 UV-I 0 W/m 5,7 C 11,8 C 3,2 km/h (1 Bft) 96,00 %
12.10.2018 01:04 11,5 C 12,8 C 6,1 C 68 % 1017,7 hPa 0,0 l/m 0,0 km/h (0 Bft) O 94 0 min 0,000 mm 0,0 UV-I 0 W/m 5,8 C 11,5 C 1,6 km/h (1 Bft) 98,00 %
12.10.2018 01:06 11,1 C 12,8 C 6,1 C 69 % 1017,7 hPa 0,0 l/m 0,0 km/h (0 Bft) O 94 0 min 0,000 mm 0,0 UV-I 0 W/m 5,6 C 11,1 C 0,0 km/h (0 Bft) 100,00 %
12.10.2018 01:08 10,9 C 12,8 C 6,1 C 70 % 1017,8 hPa 0,0 l/m 1,0 km/h (0 Bft) O 94 0 min 0,000 mm 0,0 UV-I 0 W/m 5,6 C 10,9 C 3,2 km/h (1 Bft) 100,00 %
12.10.2018 01:10 10,7 C 12,8 C 6,1 C 70 % 1017,8 hPa 0,0 l/m 1,7 km/h (1 Bft) O 94 0 min 0,000 mm 0,0 UV-I 0 W/m 5,5 C 10,7 C 3,2 km/h (1 Bft) 100,00 %
12.10.2018 01:12 10,3 C 12,8 C 6,1 C 72 % 1017,8 hPa 0,0 l/m 1,8 km/h (1 Bft) O 94 0 min 0,000 mm 0,0 UV-I 0 W/m 5,5 C 10,3 C 3,2 km/h (1 Bft) 100,00 %
12.10.2018 01:14 10,1 C 12,8 C 6,1 C 73 % 1017,8 hPa 0,0 l/m 0,7 km/h (0 Bft) O 94 0 min 0,000 mm 0,0 UV-I 0 W/m 5,5 C 10,1 C 1,6 km/h (1 Bft) 100,00 %
12.10.2018 01:16 9,9 C 12,8 C 6,1 C 74 % 1017,8 hPa 0,0 l/m 0,0 km/h (0 Bft) O 94 0 min 0,000 mm 0,0 UV-I 0 W/m 5,5 C 9,9 C 0,0 km/h (0 Bft) 100,00 %
12.10.2018 01:18 10,1 C 12,8 C 6,1 C 74 % 1017,9 hPa 0,0 l/m 0,0 km/h (0 Bft) O 94 0 min 0,000 mm 0,0 UV-I 0 W/m 5,7 C 10,1 C 0,0 km/h (0 Bft) 97,87 %
12.10.2018 01:20 10,2 C 12,8 C 6,1 C 74 % 1017,9 hPa 0,0 l/m 0,0 km/h (0 Bft) O 94 0 min 0,000 mm 0,0 UV-I 0 W/m 5,8 C 10,2 C 0,0 km/h (0 Bft) 100,00 %
12.10.2018 01:22 10,2 C 12,8 C 6,1 C 73 % 1017,9 hPa 0,0 l/m 1,5 km/h (1 Bft) SO 129 0 min 0,000 mm 0,0 UV-I 0 W/m 5,6 C 10,2 C 3,2 km/h (1 Bft) 100,00 %
12.10.2018 01:24 10,0 C 12,8 C 6,7 C 74 % 1018,0 hPa 0,0 l/m 4,8 km/h (1 Bft) S 171 0 min 0,000 mm 0,0 UV-I 0 W/m 5,6 C 10,0 C 6,4 km/h (2 Bft) 100,00 %
12.10.2018 01:26 9,8 C 12,8 C 6,7 C 75 % 1018,0 hPa 0,0 l/m 2,9 km/h (1 Bft) S 171 0 min 0,000 mm 0,0 UV-I 0 W/m 5,6 C 9,8 C 6,4 km/h (2 Bft) 100,00 %
12.10.2018 01:28 9,7 C 12,8 C 6,7 C 75 % 1018,0 hPa 0,0 l/m 3,1 km/h (1 Bft) S 171 0 min 0,000 mm 0,0 UV-I 0 W/m 5,5 C 9,7 C 6,4 km/h (2 Bft) 100,00 %
12.10.2018 01:30 9,7 C 12,8 C 6,1 C 76 % 1018,1 hPa 0,0 l/m 2,6 km/h (1 Bft) S 171 0 min 0,000 mm 0,0 UV-I 0 W/m 5,7 C 9,7 C 3,2 km/h (1 Bft) 100,00 %
12.10.2018 01:32 9,7 C 12,8 C 6,1 C 76 % 1018,1 hPa 0,0 l/m 4,5 km/h (1 Bft) S 171 0 min 0,000 mm 0,0 UV-I 0 W/m 5,7 C 9,7 C 6,4 km/h (2 Bft) 100,00 %
12.10.2018 01:34 9,8 C 12,8 C 6,1 C 76 % 1018,2 hPa 0,0 l/m 4,5 km/h (1 Bft) S 186 0 min 0,000 mm 0,0 UV-I 0 W/m 5,8 C 9,8 C 6,4 km/h (2 Bft) 100,00 %
12.10.2018 01:36 10,1 C 12,8 C 6,7 C 75 % 1018,2 hPa 0,0 l/m 4,9 km/h (1 Bft) S 187 0 min 0,000 mm 0,0 UV-I 0 W/m 5,9 C 10,1 C 6,4 km/h (2 Bft) 98,00 %
12.10.2018 01:38 9,9 C 12,8 C 6,7 C 74 % 1018,2 hPa 0,0 l/m 4,1 km/h (1 Bft) S 187 0 min 0,000 mm 0,0 UV-I 0 W/m 5,5 C 9,9 C 4,8 km/h (1 Bft) 97,87 %
12.10.2018 01:40 9,7 C 12,8 C 6,7 C 75 % 1018,2 hPa 0,0 l/m 3,7 km/h (1 Bft) S 187 0 min 0,000 mm 0,0 UV-I 0 W/m 5,5 C 9,7 C 4,8 km/h (1 Bft) 98,00 %
12.10.2018 01:42 9,3 C 12,8 C 6,7 C 76 % 1018,2 hPa 0,0 l/m 4,1 km/h (1 Bft) S 187 0 min 0,000 mm 0,0 UV-I 0 W/m 5,3 C 9,3 C 4,8 km/h (1 Bft) 97,87 %
12.10.2018 01:44 9,2 C 12,8 C 6,1 C 77 % 1018,2 hPa 0,0 l/m 4,5 km/h (1 Bft) S 187 0 min 0,000 mm 0,0 UV-I 0 W/m 5,4 C 9,2 C 4,8 km/h (1 Bft) 95,83 %
12.10.2018 01:46 9,3 C 12,8 C 6,1 C 78 % 1018,2 hPa 0,0 l/m 3,6 km/h (1 Bft) S 187 0 min 0,000 mm 0,0 UV-I 0 W/m 5,7 C 9,3 C 4,8 km/h (1 Bft) 97,87 %
12.10.2018 01:48 9,7 C 12,8 C 6,1 C 76 % 1018,2 hPa 0,0 l/m 3,3 km/h (1 Bft) S 187 0 min 0,000 mm 0,0 UV-I 0 W/m 5,7 C 9,7 C 4,8 km/h (1 Bft) 97,87 %
12.10.2018 01:50 9,8 C 12,8 C 6,1 C 75 % 1018,2 hPa 0,0 l/m 3,2 km/h (1 Bft) S 187 0 min 0,000 mm 0,0 UV-I 0 W/m 5,6 C 9,8 C 3,2 km/h (1 Bft) 95,74 %
12.10.2018 01:52 10,0 C 12,8 C 6,1 C 75 % 1018,2 hPa 0,0 l/m 3,5 km/h (1 Bft) S 187 0 min 0,000 mm 0,0 UV-I 0 W/m 5,8 C 10,0 C 4,8 km/h (1 Bft) 97,37 %
12.10.2018 01:54 9,9 C 12,8 C 6,1 C 75 % 1018,2 hPa 0,0 l/m 2,9 km/h (1 Bft) S 187 0 min 0,000 mm 0,0 UV-I 0 W/m 5,7 C 9,9 C 3,2 km/h (1 Bft) 97,87 %
12.10.2018 01:56 9,8 C 12,8 C 6,1 C 75 % 1018,2 hPa 0,0 l/m 2,9 km/h (1 Bft) S 187 0 min 0,000 mm 0,0 UV-I 0 W/m 5,6 C 9,8 C 3,2 km/h (1 Bft) 97,92 %
12.10.2018 01:58 9,6 C 12,8 C 6,1 C 76 % 1018,2 hPa 0,0 l/m 2,6 km/h (1 Bft) S 187 0 min 0,000 mm 0,0 UV-I 0 W/m 5,6 C 9,6 C 4,8 km/h (1 Bft) 93,62 %
12.10.2018 02:00 9,6 C 12,8 C 6,1 C 76 % 1018,2 hPa 0,0 l/m 3,1 km/h (1 Bft) S 187 0 min 0,026 mm 0,0 UV-I 0 W/m 5,6 C 9,6 C 4,8 km/h (1 Bft) 97,87 %
12.10.2018 02:02 9,6 C 12,8 C 6,1 C 76 % 1018,2 hPa 0,0 l/m 3,0 km/h (1 Bft) S 187 0 min 0,000 mm 0,0 UV-I 0 W/m 5,6 C 9,6 C 3,2 km/h (1 Bft) 98,00 %
12.10.2018 02:04 9,4 C 12,8 C 6,1 C 76 % 1018,3 hPa 0,0 l/m 3,2 km/h (1 Bft) S 187 0 min 0,000 mm 0,0 UV-I 0 W/m 5,4 C 9,4 C 3,2 km/h (1 Bft) 98,00 %
12.10.2018 02:06 9,2 C 12,8 C 6,1 C 77 % 1018,3 hPa 0,0 l/m 4,0 km/h (1 Bft) S 187 0 min 0,000 mm 0,0 UV-I 0 W/m 5,4 C 9,2 C 4,8 km/h (1 Bft) 100,00 %
12.10.2018 02:08 8,9 C 12,8 C 6,1 C 78 % 1018,3 hPa 0,0 l/m 3,5 km/h (1 Bft) S 187 0 min 0,000 mm 0,0 UV-I 0 W/m 5,3 C 8,9 C 4,8 km/h (1 Bft) 98,00 %
12.10.2018 02:10 8,8 C 12,8 C 6,1 C 79 % 1018,3 hPa 0,0 l/m 2,4 km/h (1 Bft) S 187 0 min 0,000 mm 0,0 UV-I 0 W/m 5,4 C 8,8 C 3,2 km/h (1 Bft) 97,87 %
12.10.2018 02:12 8,9 C 12,8 C 6,1 C 79 % 1018,3 hPa 0,0 l/m 3,1 km/h (1 Bft) S 187 0 min 0,000 mm 0,0 UV-I 0 W/m 5,5 C 8,9 C 4,8 km/h (1 Bft) 95,74 %
12.10.2018 02:14 9,2 C 12,8 C 6,1 C 78 % 1018,3 hPa 0,0 l/m 3,4 km/h (1 Bft) S 188 0 min 0,000 mm 0,0 UV-I 0 W/m 5,6 C 9,2 C 4,8 km/h (1 Bft) 98,04 %
12.10.2018 02:16 9,2 C 12,8 C 6,1 C 78 % 1018,3 hPa 0,0 l/m 3,3 km/h (1 Bft) S 188 0 min 0,000 mm 0,0 UV-I 0 W/m 5,6 C 9,2 C 4,8 km/h (1 Bft) 100,00 %
12.10.2018 02:18 9,1 C 12,8 C 5,6 C 78 % 1018,4 hPa 0,0 l/m 2,5 km/h (1 Bft) S 188 0 min 0,000 mm 0,0 UV-I 0 W/m 5,5 C 9,1 C 3,2 km/h (1 Bft) 97,87 %
12.10.2018 02:20 9,1 C 12,8 C 5,6 C 79 % 1018,4 hPa 0,0 l/m 2,8 km/h (1 Bft) S 188 0 min 0,000 mm 0,0 UV-I 0 W/m 5,7 C 9,1 C 3,2 km/h (1 Bft) 100,00 %
12.10.2018 02:22 9,1 C 12,8 C 5,6 C 78 % 1018,4 hPa 0,0 l/m 3,7 km/h (1 Bft) S 188 0 min 0,000 mm 0,0 UV-I 0 W/m 5,5 C 9,1 C 4,8 km/h (1 Bft) 100,00 %
12.10.2018 02:24 8,9 C 12,8 C 5,6 C 79 % 1018,4 hPa 0,0 l/m 4,3 km/h (1 Bft) S 188 0 min 0,000 mm 0,0 UV-I 0 W/m 5,5 C 8,9 C 4,8 km/h (1 Bft) 100,00 %
12.10.2018 02:26 8,8 C 12,8 C 6,1 C 79 % 1018,4 hPa 0,0 l/m 4,8 km/h (1 Bft) S 189 0 min 0,000 mm 0,0 UV-I 0 W/m 5,4 C 8,8 C 6,4 km/h (2 Bft) 100,00 %
12.10.2018 02:28 8,8 C 12,8 C 6,1 C 80 % 1018,4 hPa 0,0 l/m 4,7 km/h (1 Bft) S 189 0 min 0,000 mm 0,0 UV-I 0 W/m 5,5 C 8,8 C 6,4 km/h (2 Bft) 100,00 %
12.10.2018 02:30 8,7 C 12,8 C 6,1 C 79 % 1018,4 hPa 0,0 l/m 4,3 km/h (1 Bft) S 189 0 min 0,000 mm 0,0 UV-I 0 W/m 5,3 C 8,7 C 4,8 km/h (1 Bft) 97,87 %
12.10.2018 02:32 8,4 C 12,8 C 6,1 C 80 % 1018,4 hPa 0,0 l/m 3,8 km/h (1 Bft) S 189 0 min 0,000 mm 0,0 UV-I 0 W/m 5,2 C 8,4 C 4,8 km/h (1 Bft) 97,87 %
12.10.2018 02:34 8,3 C 12,8 C 6,1 C 81 % 1018,4 hPa 0,0 l/m 4,6 km/h (1 Bft) S 189 0 min 0,000 mm 0,0 UV-I 0 W/m 5,2 C 8,3 C 4,8 km/h (1 Bft) 95,74 %
12.10.2018 02:36 8,3 C 12,8 C 5,6 C 81 % 1018,5 hPa 0,0 l/m 4,6 km/h (1 Bft) S 189 0 min 0,000 mm 0,0 UV-I 0 W/m 5,2 C 8,3 C 6,4 km/h (2 Bft) 93,62 %
12.10.2018 02:38 8,5 C 12,8 C 5,6 C 81 % 1018,5 hPa 0,0 l/m 4,5 km/h (1 Bft) S 189 0 min 0,000 mm 0,0 UV-I 0 W/m 5,4 C 8,5 C 4,8 km/h (1 Bft) 95,74 %
12.10.2018 02:40 8,5 C 12,8 C 5,6 C 80 % 1018,5 hPa 0,0 l/m 4,9 km/h (1 Bft) S 189 0 min 0,000 mm 0,0 UV-I 0 W/m 5,3 C 8,5 C 6,4 km/h (2 Bft) 95,74 %
12.10.2018 02:42 8,3 C 12,8 C 5,6 C 81 % 1018,4 hPa 0,0 l/m 4,7 km/h (1 Bft) S 190 0 min 0,000 mm 0,0 UV-I 0 W/m 5,2 C 8,3 C 6,4 km/h (2 Bft) 95,74 %
12.10.2018 02:44 8,2 C 12,8 C 5,0 C 81 % 1018,5 hPa 0,0 l/m 4,0 km/h (1 Bft) S 190 0 min 0,000 mm 0,0 UV-I 0 W/m 5,1 C 8,2 C 4,8 km/h (1 Bft) 97,87 %
12.10.2018 02:46 8,2 C 12,8 C 5,0 C 82 % 1018,4 hPa 0,0 l/m 4,1 km/h (1 Bft) S 190 0 min 0,000 mm 0,0 UV-I 0 W/m 5,3 C 8,2 C 4,8 km/h (1 Bft) 98,00 %
12.10.2018 02:48 8,5 C 12,8 C 5,0 C 81 % 1018,5 hPa 0,0 l/m 4,8 km/h (1 Bft) S 191 0 min 0,000 mm 0,0 UV-I 0 W/m 5,4 C 8,5 C 6,4 km/h (2 Bft) 97,87 %
12.10.2018 02:50 8,8 C 12,8 C 5,0 C 80 % 1018,5 hPa 0,0 l/m 5,4 km/h (1 Bft) S-SW 192 0 min 0,000 mm 0,0 UV-I 0 W/m 5,5 C 8,8 C 6,4 km/h (2 Bft) 98,04 %
12.10.2018 02:52 8,9 C 12,8 C 5,6 C 79 % 1018,5 hPa 0,0 l/m 5,5 km/h (1 Bft) S-SW 192 0 min 0,000 mm 0,0 UV-I 0 W/m 5,5 C 8,9 C 6,4 km/h (2 Bft) 94,74 %
12.10.2018 02:54 8,8 C 12,8 C 6,1 C 79 % 1018,6 hPa 0,0 l/m 5,8 km/h (2 Bft) S-SW 202 0 min 0,000 mm 0,0 UV-I 0 W/m 5,4 C 8,8 C 6,4 km/h (2 Bft) 95,74 %
12.10.2018 02:56 8,4 C 12,8 C 6,1 C 79 % 1018,5 hPa 0,0 l/m 5,9 km/h (2 Bft) S-SW 209 0 min 0,000 mm 0,0 UV-I 0 W/m 5,0 C 8,4 C 8,0 km/h (2 Bft) 93,62 %
12.10.2018 02:58 8,3 C 12,8 C 5,6 C 81 % 1018,5 hPa 0,0 l/m 4,8 km/h (1 Bft) S-SW 209 0 min 0,000 mm 0,0 UV-I 0 W/m 5,2 C 8,3 C 6,4 km/h (2 Bft) 93,75 %
12.10.2018 03:00 8,3 C 12,8 C 5,6 C 81 % 1018,6 hPa 0,0 l/m 4,0 km/h (1 Bft) SW 217 0 min 0,025 mm 0,0 UV-I 0 W/m 5,2 C 8,3 C 4,8 km/h (1 Bft) 91,49 %
12.10.2018 03:02 8,5 C 12,8 C 5,6 C 81 % 1018,6 hPa 0,0 l/m 3,9 km/h (1 Bft) SW 217 0 min 0,000 mm 0,0 UV-I 0 W/m 5,4 C 8,5 C 6,4 km/h (2 Bft) 93,62 %
12.10.2018 03:04 8,4 C 12,8 C 5,6 C 80 % 1018,6 hPa 0,0 l/m 4,8 km/h (1 Bft) SW 217 0 min 0,000 mm 0,0 UV-I 0 W/m 5,2 C 8,4 C 6,4 km/h (2 Bft) 91,49 %
12.10.2018 03:06 8,2 C 12,8 C 5,6 C 81 % 1018,6 hPa 0,0 l/m 4,8 km/h (1 Bft) SW 217 0 min 0,000 mm 0,0 UV-I 0 W/m 5,1 C 8,2 C 6,4 km/h (2 Bft) 92,00 %
12.10.2018 03:08 8,1 C 12,8 C 5,6 C 82 % 1018,6 hPa 0,0 l/m 4,1 km/h (1 Bft) SW 217 0 min 0,000 mm 0,0 UV-I 0 W/m 5,2 C 8,1 C 6,4 km/h (2 Bft) 91,49 %
12.10.2018 03:10 8,2 C 12,8 C 5,6 C 82 % 1018,7 hPa 0,0 l/m 5,4 km/h (1 Bft) SW 217 0 min 0,000 mm 0,0 UV-I 0 W/m 5,3 C 8,2 C 8,0 km/h (2 Bft) 93,62 %
12.10.2018 03:12 8,2 C 12,8 C 5,6 C 81 % 1018,7 hPa 0,0 l/m 3,5 km/h (1 Bft) SW 217 0 min 0,000 mm 0,0 UV-I 0 W/m 5,1 C 8,2 C 6,4 km/h (2 Bft) 94,00 %
12.10.2018 03:15 8,2 C 12,8 C 5,6 C 82 % 1018,7 hPa 0,0 l/m 3,4 km/h (1 Bft) SW 217 0 min 0,000 mm 0,0 UV-I 0 W/m 5,3 C 8,2 C 4,8 km/h (1 Bft) 90,00 %
12.10.2018 03:16 8,2 C 12,8 C 5,6 C 82 % 1018,7 hPa 0,0 l/m 4,5 km/h (1 Bft) SW 217 0 min 0,000 mm 0,0 UV-I 0 W/m 5,3 C 8,2 C 6,4 km/h (2 Bft) 95,83 %
12.10.2018 03:18 8,2 C 12,8 C 5,0 C 82 % 1018,7 hPa 0,0 l/m 4,6 km/h (1 Bft) SW 217 0 min 0,000 mm 0,0 UV-I 0 W/m 5,3 C 8,2 C 6,4 km/h (2 Bft) 93,62 %
12.10.2018 03:20 8,2 C 12,8 C 5,0 C 82 % 1018,7 hPa 0,0 l/m 3,5 km/h (1 Bft) SW 217 0 min 0,000 mm 0,0 UV-I 0 W/m 5,3 C 8,2 C 4,8 km/h (1 Bft) 94,74 %
12.10.2018 03:22 8,2 C 12,8 C 5,0 C 82 % 1018,7 hPa 0,0 l/m 3,7 km/h (1 Bft) SW 217 0 min 0,000 mm 0,0 UV-I 0 W/m 5,3 C 8,2 C 4,8 km/h (1 Bft) 95,74 %
12.10.2018 03:24 8,4 C 12,8 C 5,0 C 83 % 1018,7 hPa 0,0 l/m 3,4 km/h (1 Bft) SW 217 0 min 0,000 mm 0,0 UV-I 0 W/m 5,7 C 8,4 C 4,8 km/h (1 Bft) 95,74 %
12.10.2018 03:26 8,7 C 12,8 C 5,0 C 81 % 1018,7 hPa 0,0 l/m 2,4 km/h (1 Bft) SW 217 0 min 0,000 mm 0,0 UV-I 0 W/m 5,6 C 8,7 C 3,2 km/h (1 Bft) 96,00 %
12.10.2018 03:28 8,9 C 12,8 C 5,0 C 80 % 1018,7 hPa 0,0 l/m 2,3 km/h (1 Bft) SW 217 0 min 0,000 mm 0,0 UV-I 0 W/m 5,6 C 8,9 C 4,8 km/h (1 Bft) 97,87 %
12.10.2018 03:30 8,9 C 12,8 C 5,0 C 79 % 1018,8 hPa 0,0 l/m 2,9 km/h (1 Bft) SW 217 0 min 0,000 mm 0,0 UV-I 0 W/m 5,5 C 8,9 C 4,8 km/h (1 Bft) 95,74 %
12.10.2018 03:32 8,5 C 12,8 C 5,0 C 79 % 1018,8 hPa 0,0 l/m 2,9 km/h (1 Bft) SW 217 0 min 0,000 mm 0,0 UV-I 0 W/m 5,1 C 8,5 C 3,2 km/h (1 Bft) 97,83 %
12.10.2018 03:34 8,1 C 12,8 C 5,6 C 81 % 1018,8 hPa 0,0 l/m 3,7 km/h (1 Bft) SW 217 0 min 0,000 mm 0,0 UV-I 0 W/m 5,0 C 8,1 C 4,8 km/h (1 Bft) 97,87 %
12.10.2018 03:36 8,0 C 12,8 C 5,6 C 83 % 1018,8 hPa 0,0 l/m 2,5 km/h (1 Bft) SW 217 0 min 0,000 mm 0,0 UV-I 0 W/m 5,3 C 8,0 C 3,2 km/h (1 Bft) 98,00 %
12.10.2018 03:38 8,0 C 12,8 C 5,6 C 83 % 1018,8 hPa 0,0 l/m 2,7 km/h (1 Bft) SW 217 0 min 0,000 mm 0,0 UV-I 0 W/m 5,3 C 8,0 C 3,2 km/h (1 Bft) 97,22 %
12.10.2018 03:40 7,9 C 12,8 C 5,6 C 83 % 1018,8 hPa 0,0 l/m 2,2 km/h (1 Bft) SW 217 0 min 0,000 mm 0,0 UV-I 0 W/m 5,2 C 7,9 C 3,2 km/h (1 Bft) 96,00 %
12.10.2018 03:42 8,0 C 12,8 C 5,0 C 84 % 1018,8 hPa 0,0 l/m 2,1 km/h (1 Bft) SW 217 0 min 0,000 mm 0,0 UV-I 0 W/m 5,5 C 8,0 C 3,2 km/h (1 Bft) 100,00 %
12.10.2018 03:44 8,1 C 12,8 C 5,0 C 84 % 1018,8 hPa 0,0 l/m 2,0 km/h (1 Bft) SW 217 0 min 0,000 mm 0,0 UV-I 0 W/m 5,6 C 8,1 C 3,2 km/h (1 Bft) 100,00 %
12.10.2018 03:46 8,1 C 12,8 C 5,0 C 83 % 1018,9 hPa 0,0 l/m 2,9 km/h (1 Bft) SW 217 0 min 0,000 mm 0,0 UV-I 0 W/m 5,4 C 8,1 C 3,2 km/h (1 Bft) 98,00 %
12.10.2018 03:48 8,1 C 12,8 C 5,0 C 83 % 1018,9 hPa 0,0 l/m 2,1 km/h (1 Bft) SW 217 0 min 0,000 mm 0,0 UV-I 0 W/m 5,4 C 8,1 C 3,2 km/h (1 Bft) 97,87 %
12.10.2018 03:50 8,1 C 12,8 C 5,0 C 83 % 1018,9 hPa 0,0 l/m 2,6 km/h (1 Bft) SW 217 0 min 0,000 mm 0,0 UV-I 0 W/m 5,4 C 8,1 C 4,8 km/h (1 Bft) 97,14 %
12.10.2018 03:52 8,2 C 12,8 C 5,0 C 83 % 1018,9 hPa 0,0 l/m 3,2 km/h (1 Bft) SW 217 0 min 0,000 mm 0,0 UV-I 0 W/m 5,5 C 8,2 C 4,8 km/h (1 Bft) 98,00 %
12.10.2018 03:54 8,1 C 12,8 C 5,0 C 83 % 1018,9 hPa 0,0 l/m 3,6 km/h (1 Bft) SW 217 0 min 0,000 mm 0,0 UV-I 0 W/m 5,4 C 8,1 C 4,8 km/h (1 Bft) 100,00 %
12.10.2018 03:56 7,9 C 12,8 C 5,0 C 83 % 1019,0 hPa 0,0 l/m 4,2 km/h (1 Bft) SW 217 0 min 0,000 mm 0,0 UV-I 0 W/m 5,2 C 7,9 C 6,4 km/h (2 Bft) 97,87 %
12.10.2018 03:58 7,8 C 12,8 C 5,6 C 83 % 1019,0 hPa 0,0 l/m 5,5 km/h (1 Bft) SW 217 0 min 0,000 mm 0,0 UV-I 0 W/m 5,1 C 7,8 C 6,4 km/h (2 Bft) 97,87 %
12.10.2018 04:00 7,6 C 12,8 C 5,6 C 84 % 1019,0 hPa 0,0 l/m 4,9 km/h (1 Bft) SW 217 0 min 0,000 mm 0,0 UV-I 0 W/m 5,1 C 7,6 C 6,4 km/h (2 Bft) 100,00 %
12.10.2018 04:02 7,6 C 12,8 C 5,6 C 85 % 1019,0 hPa 0,0 l/m 4,8 km/h (1 Bft) SW 220 0 min 0,000 mm 0,0 UV-I 0 W/m 5,2 C 7,6 C 4,8 km/h (1 Bft) 100,00 %
12.10.2018 04:05 7,8 C 12,8 C 5,6 C 84 % 1019,1 hPa 0,0 l/m 5,3 km/h (1 Bft) SW 220 0 min 0,000 mm 0,0 UV-I 0 W/m 5,3 C 7,8 C 8,0 km/h (2 Bft) 100,00 %
12.10.2018 04:06 7,9 C 12,8 C 5,6 C 84 % 1019,2 hPa 0,0 l/m 7,0 km/h (2 Bft) SW 221 0 min 0,000 mm 0,0 UV-I 0 W/m 5,4 C 7,4 C 8,0 km/h (2 Bft) 100,00 %
12.10.2018 04:08 7,9 C 12,8 C 5,6 C 84 % 1019,2 hPa 0,0 l/m 7,5 km/h (2 Bft) SW 215 0 min 0,000 mm 0,0 UV-I 0 W/m 5,4 C 7,0 C 9,7 km/h (2 Bft) 97,87 %
12.10.2018 04:10 8,0 C 12,8 C 6,1 C 84 % 1019,2 hPa 0,0 l/m 7,1 km/h (2 Bft) SW 224 0 min 0,000 mm 0,0 UV-I 0 W/m 5,5 C 7,4 C 9,7 km/h (2 Bft) 100,00 %
12.10.2018 04:12 8,2 C 12,8 C 6,1 C 83 % 1019,3 hPa 0,0 l/m 6,5 km/h (2 Bft) SW 217 0 min 0,000 mm 0,0 UV-I 0 W/m 5,5 C 8,1 C 8,0 km/h (2 Bft) 100,00 %
12.10.2018 04:14 8,1 C 12,8 C 6,1 C 82 % 1019,2 hPa 0,0 l/m 5,7 km/h (1 Bft) SW 217 0 min 0,000 mm 0,0 UV-I 0 W/m 5,2 C 8,1 C 8,0 km/h (2 Bft) 97,87 %
12.10.2018 04:16 7,8 C 12,8 C 5,6 C 82 % 1019,3 hPa 0,0 l/m 5,0 km/h (1 Bft) SW 217 0 min 0,000 mm 0,0 UV-I 0 W/m 4,9 C 7,8 C 6,4 km/h (2 Bft) 97,87 %
12.10.2018 04:18 7,7 C 12,8 C 5,6 C 83 % 1019,3 hPa 0,0 l/m 3,8 km/h (1 Bft) SW 217 0 min 0,000 mm 0,0 UV-I 0 W/m 5,0 C 7,7 C 6,4 km/h (2 Bft) 97,92 %
12.10.2018 04:20 7,7 C 12,8 C 5,6 C 84 % 1019,3 hPa 0,0 l/m 4,7 km/h (1 Bft) SW 217 0 min 0,000 mm 0,0 UV-I 0 W/m 5,2 C 7,7 C 4,8 km/h (1 Bft) 95,74 %
12.10.2018 04:22 7,8 C 12,8 C 5,6 C 84 % 1019,3 hPa 0,0 l/m 4,7 km/h (1 Bft) SW 217 0 min 0,000 mm 0,0 UV-I 0 W/m 5,3 C 7,8 C 4,8 km/h (1 Bft) 97,14 %
12.10.2018 04:25 8,0 C 12,8 C 5,0 C 83 % 1019,3 hPa 0,0 l/m 3,4 km/h (1 Bft) SW 217 0 min 0,000 mm 0,0 UV-I 0 W/m 5,3 C 8,0 C 4,8 km/h (1 Bft) 96,47 %
12.10.2018 04:26 8,1 C 12,8 C 5,0 C 83 % 1019,3 hPa 0,0 l/m 3,2 km/h (1 Bft) SW 217 0 min 0,000 mm 0,0 UV-I 0 W/m 5,4 C 8,1 C 3,2 km/h (1 Bft) 100,00 %
12.10.2018 04:28 8,3 C 12,8 C 5,0 C 83 % 1019,3 hPa 0,0 l/m 3,0 km/h (1 Bft) SW 217 0 min 0,000 mm 0,0 UV-I 0 W/m 5,6 C 8,3 C 3,2 km/h (1 Bft) 97,87 %
12.10.2018 04:30 8,4 C 12,8 C 5,0 C 82 % 1019,3 hPa 0,0 l/m 3,5 km/h (1 Bft) SW 217 0 min 0,000 mm 0,0 UV-I 0 W/m 5,5 C 8,4 C 4,8 km/h (1 Bft) 97,87 %
12.10.2018 04:32 8,6 C 12,8 C 5,0 C 81 % 1019,3 hPa 0,0 l/m 3,6 km/h (1 Bft) SW 217 0 min 0,000 mm 0,0 UV-I 0 W/m 5,5 C 8,6 C 4,8 km/h (1 Bft) 97,87 %
12.10.2018 04:34 8,4 C 12,8 C 5,0 C 81 % 1019,4 hPa 0,0 l/m 2,8 km/h (1 Bft) SW 217 0 min 0,000 mm 0,0 UV-I 0 W/m 5,3 C 8,4 C 3,2 km/h (1 Bft) 97,87 %
12.10.2018 04:36 8,3 C 12,8 C 5,0 C 81 % 1019,4 hPa 0,0 l/m 3,4 km/h (1 Bft) SW 217 0 min 0,000 mm 0,0 UV-I 0 W/m 5,2 C 8,3 C 4,8 km/h (1 Bft) 97,87 %
12.10.2018 04:38 8,2 C 12,8 C 5,6 C 82 % 1019,4 hPa 0,0 l/m 3,7 km/h (1 Bft) SW 217 0 min 0,000 mm 0,0 UV-I 0 W/m 5,3 C 8,2 C 4,8 km/h (1 Bft) 95,74 %
12.10.2018 04:40 7,9 C 12,8 C 5,6 C 82 % 1019,5 hPa 0,0 l/m 4,5 km/h (1 Bft) SW 217 0 min 0,000 mm 0,0 UV-I 0 W/m 5,0 C 7,9 C 4,8 km/h (1 Bft) 100,00 %
12.10.2018 04:42 7,7 C 12,8 C 5,6 C 83 % 1019,5 hPa 0,0 l/m 4,7 km/h (1 Bft) SW 217 0 min 0,000 mm 0,0 UV-I 0 W/m 5,0 C 7,7 C 4,8 km/h (1 Bft) 100,00 %
12.10.2018 04:44 7,6 C 12,8 C 5,6 C 84 % 1019,5 hPa 0,0 l/m 5,0 km/h (1 Bft) SW 217 0 min 0,000 mm 0,0 UV-I 0 W/m 5,1 C 7,6 C 6,4 km/h (2 Bft) 100,00 %
12.10.2018 04:46 7,4 C 12,8 C 5,6 C 84 % 1019,6 hPa 0,0 l/m 5,0 km/h (1 Bft) SW 217 0 min 0,000 mm 0,0 UV-I 0 W/m 4,9 C 7,4 C 6,4 km/h (2 Bft) 100,00 %
12.10.2018 04:48 7,3 C 12,8 C 5,6 C 85 % 1019,5 hPa 0,0 l/m 5,4 km/h (1 Bft) SW 217 0 min 0,000 mm 0,0 UV-I 0 W/m 4,9 C 7,3 C 6,4 km/h (2 Bft) 97,87 %
12.10.2018 04:50 7,2 C 12,8 C 5,6 C 85 % 1019,5 hPa 0,0 l/m 4,2 km/h (1 Bft) SW 217 0 min 0,000 mm 0,0 UV-I 0 W/m 4,9 C 7,2 C 6,4 km/h (2 Bft) 97,87 %
12.10.2018 04:52 7,1 C 12,8 C 5,6 C 85 % 1019,6 hPa 0,0 l/m 4,2 km/h (1 Bft) SW 217 0 min 0,000 mm 0,0 UV-I 0 W/m 4,8 C 7,1 C 6,4 km/h (2 Bft) 100,00 %
12.10.2018 04:54 7,2 C 12,8 C 5,0 C 86 % 1019,6 hPa 0,0 l/m 4,7 km/h (1 Bft) SW 217 0 min 0,000 mm 0,0 UV-I 0 W/m 5,0 C 7,2 C 6,4 km/h (2 Bft) 97,92 %
12.10.2018 04:56 7,3 C 12,8 C 5,0 C 86 % 1019,7 hPa 0,0 l/m 4,7 km/h (1 Bft) SW 217 0 min 0,000 mm 0,0 UV-I 0 W/m 5,1 C 7,3 C 6,4 km/h (2 Bft) 100,00 %
12.10.2018 04:58 7,4 C 12,8 C 5,0 C 86 % 1019,7 hPa 0,0 l/m 4,0 km/h (1 Bft) SW 217 0 min 0,000 mm 0,0 UV-I 0 W/m 5,2 C 7,4 C 4,8 km/h (1 Bft) 100,00 %
12.10.2018 05:00 7,6 C 12,8 C 5,0 C 85 % 1019,8 hPa 0,0 l/m 4,4 km/h (1 Bft) SW 217 0 min 0,000 mm 0,0 UV-I 0 W/m 5,2 C 7,6 C 4,8 km/h (1 Bft) 100,00 %
12.10.2018 05:02 7,7 C 12,8 C 5,0 C 84 % 1019,8 hPa 0,0 l/m 4,5 km/h (1 Bft) SW 217 0 min 0,000 mm 0,0 UV-I 0 W/m 5,2 C 7,7 C 4,8 km/h (1 Bft) 100,00 %
12.10.2018 05:04 7,5 C 12,8 C 4,4 C 84 % 1019,9 hPa 0,0 l/m 4,2 km/h (1 Bft) SW 217 0 min 0,000 mm 0,0 UV-I 0 W/m 5,0 C 7,5 C 4,8 km/h (1 Bft) 100,00 %
12.10.2018 05:06 7,3 C 12,8 C 5,0 C 84 % 1019,9 hPa 0,0 l/m 4,8 km/h (1 Bft) SW 217 0 min 0,000 mm 0,0 UV-I 0 W/m 4,8 C 7,3 C 6,4 km/h (2 Bft) 100,00 %
12.10.2018 05:08 7,2 C 12,8 C 5,0 C 85 % 1020,0 hPa 0,0 l/m 4,3 km/h (1 Bft) SW 217 0 min 0,000 mm 0,0 UV-I 0 W/m 4,9 C 7,2 C 6,4 km/h (2 Bft) 100,00 %
12.10.2018 05:10 7,2 C 12,8 C 4,4 C 86 % 1020,0 hPa 0,0 l/m 4,7 km/h (1 Bft) SW 217 0 min 0,000 mm 0,0 UV-I 0 W/m 5,0 C 7,2 C 6,4 km/h (2 Bft) 100,00 %
12.10.2018 05:12 7,2 C 12,8 C 4,4 C 86 % 1020,0 hPa 0,0 l/m 5,4 km/h (1 Bft) SW 217 0 min 0,000 mm 0,0 UV-I 0 W/m 5,0 C 7,2 C 6,4 km/h (2 Bft) 100,00 %
12.10.2018 05:15 7,2 C 12,8 C 5,0 C 86 % 1020,1 hPa 0,0 l/m 6,2 km/h (2 Bft) S-SW 212 0 min 0,000 mm 0,0 UV-I 0 W/m 5,0 C 7,2 C 8,0 km/h (2 Bft) 97,56 %
12.10.2018 05:16 7,3 C 12,8 C 5,0 C 86 % 1020,1 hPa 0,0 l/m 6,5 km/h (2 Bft) SW 217 0 min 0,000 mm 0,0 UV-I 0 W/m 5,1 C 7,2 C 8,0 km/h (2 Bft) 100,00 %
12.10.2018 05:18 7,3 C 12,8 C 5,0 C 86 % 1020,1 hPa 0,0 l/m 7,1 km/h (2 Bft) SW 223 0 min 0,000 mm 0,0 UV-I 0 W/m 5,1 C 6,7 C 8,0 km/h (2 Bft) 97,87 %
12.10.2018 05:20 7,6 C 12,8 C 5,0 C 86 % 1020,1 hPa 0,0 l/m 6,2 km/h (2 Bft) SW 216 0 min 0,000 mm 0,0 UV-I 0 W/m 5,4 C 7,6 C 8,0 km/h (2 Bft) 97,87 %
12.10.2018 05:22 7,5 C 12,8 C 5,6 C 85 % 1020,1 hPa 0,0 l/m 5,5 km/h (1 Bft) S-SW 211 0 min 0,000 mm 0,0 UV-I 0 W/m 5,1 C 7,5 C 6,4 km/h (2 Bft) 97,87 %
12.10.2018 05:24 7,2 C 12,8 C 5,0 C 85 % 1020,1 hPa 0,0 l/m 5,2 km/h (1 Bft) S-SW 211 0 min 0,000 mm 0,0 UV-I 0 W/m 4,9 C 7,2 C 6,4 km/h (2 Bft) 95,74 %
12.10.2018 05:26 7,2 C 12,8 C 5,0 C 86 % 1020,2 hPa 0,0 l/m 5,1 km/h (1 Bft) SW 218 0 min 0,000 mm 0,0 UV-I 0 W/m 5,0 C 7,2 C 6,4 km/h (2 Bft) 93,62 %
12.10.2018 05:28 7,3 C 12,8 C 5,0 C 86 % 1020,2 hPa 0,0 l/m 4,5 km/h (1 Bft) SW 219 0 min 0,000 mm 0,0 UV-I 0 W/m 5,1 C 7,3 C 6,4 km/h (2 Bft) 100,00 %
12.10.2018 05:30 7,3 C 12,8 C 5,0 C 86 % 1020,2 hPa 0,0 l/m 3,7 km/h (1 Bft) SW 218 0 min 0,000 mm 0,0 UV-I 0 W/m 5,1 C 7,3 C 4,8 km/h (1 Bft) 95,92 %
12.10.2018 05:32 7,4 C 12,8 C 5,0 C 86 % 1020,2 hPa 0,0 l/m 4,1 km/h (1 Bft) SW 217 0 min 0,000 mm 0,0 UV-I 0 W/m 5,2 C 7,4 C 4,8 km/h (1 Bft) 95,83 %
12.10.2018 05:34 7,5 C 12,8 C 5,0 C 86 % 1020,3 hPa 0,0 l/m 3,9 km/h (1 Bft) SW 217 0 min 0,000 mm 0,0 UV-I 0 W/m 5,3 C 7,5 C 4,8 km/h (1 Bft) 93,62 %
12.10.2018 05:36 7,7 C 12,8 C 5,0 C 86 % 1020,2 hPa 0,0 l/m 4,7 km/h (1 Bft) SW 217 0 min 0,000 mm 0,0 UV-I 0 W/m 5,5 C 7,7 C 6,4 km/h (2 Bft) 93,62 %
12.10.2018 05:38 8,0 C 12,8 C 5,0 C 86 % 1020,2 hPa 0,0 l/m 3,7 km/h (1 Bft) SW 217 0 min 0,000 mm 0,0 UV-I 0 W/m 5,8 C 8,0 C 4,8 km/h (1 Bft) 93,62 %
12.10.2018 05:40 8,1 C 12,8 C 5,0 C 85 % 1020,3 hPa 0,0 l/m 3,7 km/h (1 Bft) SW 217 0 min 0,000 mm 0,0 UV-I 0 W/m 5,7 C 8,1 C 4,8 km/h (1 Bft) 93,88 %
12.10.2018 05:42 8,0 C 12,8 C 5,0 C 84 % 1020,3 hPa 0,0 l/m 3,9 km/h (1 Bft) SW 217 0 min 0,000 mm 0,0 UV-I 0 W/m 5,5 C 8,0 C 4,8 km/h (1 Bft) 93,62 %
12.10.2018 05:44 7,8 C 12,8 C 5,6 C 84 % 1020,3 hPa 0,0 l/m 4,5 km/h (1 Bft) SW 217 0 min 0,000 mm 0,0 UV-I 0 W/m 5,3 C 7,8 C 6,4 km/h (2 Bft) 95,74 %
12.10.2018 05:46 7,6 C 12,8 C 5,6 C 84 % 1020,4 hPa 0,0 l/m 5,1 km/h (1 Bft) SW 217 0 min 0,000 mm 0,0 UV-I 0 W/m 5,1 C 7,6 C 6,4 km/h (2 Bft) 93,62 %
12.10.2018 05:48 7,4 C 12,8 C 5,6 C 85 % 1020,4 hPa 0,0 l/m 4,2 km/h (1 Bft) SW 217 0 min 0,000 mm 0,0 UV-I 0 W/m 5,0 C 7,4 C 4,8 km/h (1 Bft) 95,74 %
12.10.2018 05:50 7,4 C 12,8 C 5,0 C 86 % 1020,4 hPa 0,0 l/m 4,5 km/h (1 Bft) SW 217 0 min 0,000 mm 0,0 UV-I 0 W/m 5,2 C 7,4 C 6,4 km/h (2 Bft) 95,74 %
12.10.2018 05:52 7,4 C 12,8 C 5,0 C 86 % 1020,4 hPa 0,0 l/m 4,8 km/h (1 Bft) SW 217 0 min 0,000 mm 0,0 UV-I 0 W/m 5,2 C 7,4 C 6,4 km/h (2 Bft) 95,74 %
12.10.2018 05:54 7,4 C 12,8 C 5,0 C 86 % 1020,4 hPa 0,0 l/m 3,9 km/h (1 Bft) SW 217 0 min 0,000 mm 0,0 UV-I 0 W/m 5,2 C 7,4 C 4,8 km/h (1 Bft) 95,74 %
12.10.2018 05:56 7,2 C 12,8 C 5,0 C 86 % 1020,4 hPa 0,0 l/m 3,1 km/h (1 Bft) SW 217 0 min 0,000 mm 0,0 UV-I 0 W/m 5,0 C 7,2 C 4,8 km/h (1 Bft) 94,74 %
12.10.2018 05:58 7,2 C 12,8 C 4,4 C 87 % 1020,5 hPa 0,0 l/m 3,3 km/h (1 Bft) SW 217 0 min 0,000 mm 0,0 UV-I 0 W/m 5,2 C 7,2 C 4,8 km/h (1 Bft) 95,74 %
12.10.2018 06:00 7,3 C 12,8 C 4,4 C 87 % 1020,5 hPa 0,0 l/m 4,1 km/h (1 Bft) SW 217 0 min 0,000 mm 0,0 UV-I 0 W/m 5,3 C 7,3 C 6,4 km/h (2 Bft) 95,74 %
12.10.2018 06:02 7,3 C 12,8 C 4,4 C 87 % 1020,5 hPa 0,0 l/m 5,3 km/h (1 Bft) SW 217 0 min 0,000 mm 0,0 UV-I 0 W/m 5,3 C 7,3 C 6,4 km/h (2 Bft) 95,74 %
12.10.2018 06:04 7,3 C 12,8 C 5,0 C 87 % 1020,5 hPa 0,0 l/m 5,1 km/h (1 Bft) SW 217 0 min 0,000 mm 0,0 UV-I 0 W/m 5,3 C 7,3 C 6,4 km/h (2 Bft) 93,62 %
12.10.2018 06:06 7,2 C 12,8 C 5,0 C 87 % 1020,6 hPa 0,0 l/m 4,2 km/h (1 Bft) SW 217 0 min 0,000 mm 0,0 UV-I 0 W/m 5,2 C 7,2 C 4,8 km/h (1 Bft) 92,00 %
12.10.2018 06:08 7,0 C 12,8 C 5,6 C 87 % 1020,7 hPa 0,0 l/m 4,2 km/h (1 Bft) SW 217 0 min 0,000 mm 0,0 UV-I 0 W/m 5,0 C 7,0 C 4,8 km/h (1 Bft) 95,74 %
12.10.2018 06:10 6,9 C 12,8 C 5,0 C 87 % 1020,7 hPa 0,0 l/m 5,5 km/h (1 Bft) SW 219 0 min 0,000 mm 0,0 UV-I 0 W/m 4,9 C 6,9 C 8,0 km/h (2 Bft) 93,75 %
12.10.2018 06:12 7,0 C 12,8 C 5,6 C 88 % 1020,7 hPa 0,0 l/m 6,5 km/h (2 Bft) S-SW 210 0 min 0,000 mm 0,0 UV-I 0 W/m 5,2 C 6,9 C 8,0 km/h (2 Bft) 93,62 %
12.10.2018 06:14 7,0 C 12,8 C 5,6 C 88 % 1020,7 hPa 0,0 l/m 5,8 km/h (2 Bft) S-SW 211 0 min 0,000 mm 0,0 UV-I 0 W/m 5,2 C 7,0 C 8,0 km/h (2 Bft) 93,62 %
12.10.2018 06:16 6,9 C 12,8 C 5,6 C 87 % 1020,7 hPa 0,0 l/m 4,5 km/h (1 Bft) SW 214 0 min 0,000 mm 0,0 UV-I 0 W/m 4,9 C 6,9 C 6,4 km/h (2 Bft) 95,74 %
12.10.2018 06:18 6,9 C 12,8 C 5,6 C 88 % 1020,7 hPa 0,0 l/m 4,7 km/h (1 Bft) SW 214 0 min 0,000 mm 0,0 UV-I 0 W/m 5,1 C 6,9 C 6,4 km/h (2 Bft) 95,74 %
12.10.2018 06:20 6,9 C 12,8 C 5,6 C 88 % 1020,7 hPa 0,0 l/m 4,4 km/h (1 Bft) SW 214 0 min 0,000 mm 0,0 UV-I 0 W/m 5,1 C 6,9 C 4,8 km/h (1 Bft) 95,74 %
12.10.2018 06:22 7,0 C 12,8 C 5,6 C 89 % 1020,7 hPa 0,0 l/m 4,9 km/h (1 Bft) SW 214 0 min 0,000 mm 0,0 UV-I 0 W/m 5,3 C 7,0 C 6,4 km/h (2 Bft) 97,87 %
12.10.2018 06:24 7,2 C 12,8 C 5,6 C 89 % 1020,7 hPa 0,0 l/m 5,1 km/h (1 Bft) SW 214 0 min 0,000 mm 0,0 UV-I 0 W/m 5,5 C 7,2 C 6,4 km/h (2 Bft) 97,87 %
12.10.2018 06:26 7,3 C 12,8 C 5,6 C 89 % 1020,8 hPa 0,0 l/m 4,8 km/h (1 Bft) SW 214 0 min 0,000 mm 0,0 UV-I 0 W/m 5,6 C 7,3 C 6,4 km/h (2 Bft) 95,74 %
12.10.2018 06:28 7,4 C 12,8 C 5,6 C 88 % 1020,8 hPa 0,0 l/m 4,2 km/h (1 Bft) SW 214 0 min 0,000 mm 0,0 UV-I 0 W/m 5,5 C 7,4 C 4,8 km/h (1 Bft) 95,74 %
12.10.2018 06:30 7,6 C 12,8 C 5,6 C 88 % 1020,8 hPa 0,0 l/m 3,5 km/h (1 Bft) SW 214 0 min 0,000 mm 0,0 UV-I 0 W/m 5,7 C 7,6 C 4,8 km/h (1 Bft) 97,87 %
12.10.2018 06:32 7,6 C 12,8 C 5,6 C 88 % 1020,9 hPa 0,0 l/m 3,2 km/h (1 Bft) SW 214 0 min 0,000 mm 0,0 UV-I 0 W/m 5,7 C 7,6 C 4,8 km/h (1 Bft) 96,00 %
12.10.2018 06:34 7,7 C 12,8 C 6,1 C 87 % 1020,9 hPa 0,0 l/m 2,8 km/h (1 Bft) SW 214 0 min 0,000 mm 0,0 UV-I 0 W/m 5,7 C 7,7 C 3,2 km/h (1 Bft) 95,74 %
12.10.2018 06:36 7,8 C 12,8 C 6,1 C 87 % 1020,9 hPa 0,0 l/m 3,2 km/h (1 Bft) SW 214 0 min 0,000 mm 0,0 UV-I 0 W/m 5,8 C 7,8 C 4,8 km/h (1 Bft) 97,87 %
12.10.2018 06:38 7,8 C 12,8 C 6,1 C 86 % 1020,9 hPa 0,0 l/m 3,4 km/h (1 Bft) SW 214 0 min 0,000 mm 0,0 UV-I 0 W/m 5,6 C 7,8 C 4,8 km/h (1 Bft) 95,74 %
12.10.2018 06:40 7,6 C 12,8 C 6,1 C 86 % 1021,0 hPa 0,0 l/m 3,7 km/h (1 Bft) SW 214 0 min 0,000 mm 0,0 UV-I 0 W/m 5,4 C 7,6 C 4,8 km/h (1 Bft) 95,74 %
12.10.2018 06:42 7,4 C 12,8 C 6,1 C 87 % 1021,1 hPa 0,0 l/m 3,7 km/h (1 Bft) SW 214 0 min 0,000 mm 0,0 UV-I 0 W/m 5,4 C 7,4 C 4,8 km/h (1 Bft) 95,74 %
12.10.2018 06:44 7,4 C 12,8 C 6,1 C 87 % 1021,1 hPa 0,0 l/m 4,5 km/h (1 Bft) SW 214 0 min 0,000 mm 0,0 UV-I 0 W/m 5,4 C 7,4 C 6,4 km/h (2 Bft) 97,37 %
12.10.2018 06:46 7,4 C 12,8 C 6,1 C 88 % 1021,0 hPa 0,0 l/m 4,1 km/h (1 Bft) SW 214 0 min 0,000 mm 0,0 UV-I 0 W/m 5,5 C 7,4 C 4,8 km/h (1 Bft) 97,87 %
12.10.2018 06:48 7,5 C 12,8 C 6,1 C 88 % 1021,1 hPa 0,0 l/m 3,7 km/h (1 Bft) SW 214 0 min 0,000 mm 0,0 UV-I 0 W/m 5,6 C 7,5 C 4,8 km/h (1 Bft) 97,92 %
12.10.2018 06:50 7,6 C 12,8 C 6,1 C 88 % 1021,1 hPa 0,0 l/m 2,7 km/h (1 Bft) SW 214 0 min 0,000 mm 0,0 UV-I 0 W/m 5,7 C 7,6 C 4,8 km/h (1 Bft) 95,74 %
12.10.2018 06:52 7,7 C 12,8 C 6,1 C 88 % 1021,2 hPa 0,0 l/m 2,6 km/h (1 Bft) SW 214 0 min 0,000 mm 0,0 UV-I 0 W/m 5,8 C 7,7 C 3,2 km/h (1 Bft) 97,87 %
12.10.2018 06:54 7,7 C 12,8 C 6,1 C 87 % 1021,2 hPa 0,0 l/m 4,0 km/h (1 Bft) SW 217 0 min 0,000 mm 0,0 UV-I 0 W/m 5,7 C 7,7 C 4,8 km/h (1 Bft) 97,87 %
12.10.2018 06:56 7,6 C 12,8 C 6,1 C 87 % 1021,3 hPa 0,0 l/m 4,8 km/h (1 Bft) SW 218 0 min 0,000 mm 0,0 UV-I 0 W/m 5,6 C 7,6 C 6,4 km/h (2 Bft) 96,00 %
12.10.2018 06:58 7,5 C 12,8 C 6,1 C 87 % 1021,3 hPa 0,0 l/m 6,4 km/h (2 Bft) S-SW 212 0 min 0,000 mm 0,0 UV-I 0 W/m 5,5 C 7,5 C 8,0 km/h (2 Bft) 97,87 %
12.10.2018 07:00 7,3 C 12,8 C 6,7 C 87 % 1021,3 hPa 0,0 l/m 6,2 km/h (2 Bft) S-SW 202 0 min 0,000 mm 0,0 UV-I 0 W/m 5,3 C 7,3 C 8,0 km/h (2 Bft) 98,00 %
12.10.2018 07:02 7,3 C 12,8 C 6,7 C 87 % 1021,3 hPa 0,0 l/m 5,1 km/h (1 Bft) S-SW 202 0 min 0,000 mm 0,0 UV-I 0 W/m 5,3 C 7,3 C 6,4 km/h (2 Bft) 100,00 %
12.10.2018 07:04 7,1 C 12,8 C 6,7 C 88 % 1021,3 hPa 0,0 l/m 4,8 km/h (1 Bft) S-SW 202 0 min 0,000 mm 0,0 UV-I 2 W/m 5,2 C 7,1 C 6,4 km/h (2 Bft) 98,00 %
12.10.2018 07:06 7,2 C 12,8 C 6,1 C 89 % 1021,4 hPa 0,0 l/m 4,2 km/h (1 Bft) S-SW 202 0 min 0,000 mm 0,0 UV-I 5 W/m 5,5 C 7,2 C 4,8 km/h (1 Bft) 97,87 %
12.10.2018 07:08 7,3 C 12,8 C 6,1 C 89 % 1021,4 hPa 0,0 l/m 4,2 km/h (1 Bft) S-SW 202 0 min 0,000 mm 0,0 UV-I 7 W/m 5,6 C 7,3 C 4,8 km/h (1 Bft) 98,00 %
12.10.2018 07:10 7,6 C 12,8 C 6,1 C 89 % 1021,4 hPa 0,0 l/m 2,8 km/h (1 Bft) S-SW 202 0 min 0,000 mm 0,0 UV-I 10 W/m 5,9 C 7,6 C 3,2 km/h (1 Bft) 95,74 %
12.10.2018 07:12 7,8 C 12,8 C 6,1 C 88 % 1021,4 hPa 0,0 l/m 2,7 km/h (1 Bft) S-SW 202 0 min 0,000 mm 0,0 UV-I 11 W/m 5,9 C 7,8 C 3,2 km/h (1 Bft) 98,00 %
12.10.2018 07:14 7,8 C 12,8 C 6,1 C 88 % 1021,5 hPa 0,0 l/m 2,5 km/h (1 Bft) S-SW 202 0 min 0,000 mm 0,0 UV-I 12 W/m 5,9 C 7,8 C 3,2 km/h (1 Bft) 95,74 %
12.10.2018 07:16 7,8 C 12,8 C 6,1 C 88 % 1021,6 hPa 0,0 l/m 2,8 km/h (1 Bft) S-SW 202 0 min 0,000 mm 0,0 UV-I 13 W/m 5,9 C 7,8 C 3,2 km/h (1 Bft) 97,14 %
12.10.2018 07:18 7,8 C 12,8 C 6,1 C 88 % 1021,6 hPa 0,0 l/m 2,6 km/h (1 Bft) S-SW 202 0 min 0,000 mm 0,0 UV-I 14 W/m 5,9 C 7,8 C 3,2 km/h (1 Bft) 100,00 %
12.10.2018 07:20 7,9 C 12,8 C 6,1 C 88 % 1021,6 hPa 0,0 l/m 3,2 km/h (1 Bft) S-SW 202 0 min 0,000 mm 0,0 UV-I 15 W/m 6,0 C 7,9 C 4,8 km/h (1 Bft) 97,87 %
12.10.2018 07:22 8,1 C 12,8 C 6,7 C 87 % 1021,7 hPa 0,0 l/m 4,2 km/h (1 Bft) S-SW 202 0 min 0,000 mm 0,0 UV-I 16 W/m 6,1 C 8,1 C 4,8 km/h (1 Bft) 100,00 %
12.10.2018 07:24 8,0 C 12,8 C 6,7 C 87 % 1021,8 hPa 0,0 l/m 4,3 km/h (1 Bft) S-SW 202 0 min 0,000 mm 0,0 UV-I 18 W/m 6,0 C 8,0 C 4,8 km/h (1 Bft) 97,87 %
12.10.2018 07:26 7,9 C 12,8 C 6,7 C 87 % 1021,8 hPa 0,0 l/m 5,6 km/h (1 Bft) S-SW 207 0 min 0,000 mm 0,0 UV-I 18 W/m 5,9 C 7,9 C 6,4 km/h (2 Bft) 97,96 %
12.10.2018 07:28 7,8 C 12,8 C 6,7 C 87 % 1021,8 hPa 0,0 l/m 5,1 km/h (1 Bft) S-SW 204 0 min 0,000 mm 0,0 UV-I 18 W/m 5,8 C 7,8 C 6,4 km/h (2 Bft) 100,00 %
12.10.2018 07:30 7,7 C 12,8 C 6,7 C 87 % 1021,7 hPa 0,0 l/m 3,9 km/h (1 Bft) S-SW 204 2 min 0,000 mm 0,0 UV-I 18 W/m 5,7 C 7,7 C 6,4 km/h (2 Bft) 95,74 %
12.10.2018 07:32 7,6 C 12,8 C 6,7 C 87 % 1021,7 hPa 0,0 l/m 5,5 km/h (1 Bft) S-SW 192 2 min 0,000 mm 0,0 UV-I 19 W/m 5,6 C 7,6 C 6,4 km/h (2 Bft) 100,00 %
12.10.2018 07:34 7,8 C 12,8 C 6,7 C 89 % 1021,8 hPa 0,0 l/m 4,5 km/h (1 Bft) S-SW 192 2 min 0,000 mm 0,0 UV-I 21 W/m 6,1 C 7,8 C 6,4 km/h (2 Bft) 100,00 %
12.10.2018 07:36 8,1 C 12,8 C 7,2 C 88 % 1021,9 hPa 0,0 l/m 3,0 km/h (1 Bft) S-SW 192 2 min 0,000 mm 0,0 UV-I 22 W/m 6,2 C 8,1 C 4,8 km/h (1 Bft) 100,00 %
12.10.2018 07:38 8,3 C 12,8 C 7,2 C 88 % 1021,9 hPa 0,0 l/m 4,2 km/h (1 Bft) S-SW 192 2 min 0,000 mm 0,0 UV-I 24 W/m 6,4 C 8,3 C 4,8 km/h (1 Bft) 100,00 %
12.10.2018 07:40 8,4 C 12,8 C 7,2 C 86 % 1022,0 hPa 0,0 l/m 3,8 km/h (1 Bft) S-SW 193 0 min 0,000 mm 0,0 UV-I 26 W/m 6,2 C 8,4 C 4,8 km/h (1 Bft) 100,00 %
12.10.2018 07:42 8,3 C 12,8 C 7,2 C 86 % 1022,0 hPa 0,0 l/m 4,2 km/h (1 Bft) S-SW 194 0 min 0,000 mm 0,0 UV-I 28 W/m 6,1 C 8,3 C 4,8 km/h (1 Bft) 100,00 %
12.10.2018 07:44 8,2 C 12,8 C 7,2 C 86 % 1022,0 hPa 0,0 l/m 3,4 km/h (1 Bft) S-SW 194 0 min 0,000 mm 0,0 UV-I 31 W/m 6,0 C 8,2 C 4,8 km/h (1 Bft) 97,87 %
12.10.2018 07:46 8,0 C 12,8 C 7,2 C 87 % 1022,1 hPa 0,0 l/m 3,9 km/h (1 Bft) S-SW 194 2 min 0,000 mm 0,0 UV-I 38 W/m 6,0 C 8,0 C 4,8 km/h (1 Bft) 100,00 %
12.10.2018 07:48 8,0 C 12,8 C 7,2 C 87 % 1022,1 hPa 0,0 l/m 3,3 km/h (1 Bft) S-SW 194 2 min 0,000 mm 0,0 UV-I 56 W/m 6,0 C 8,0 C 4,8 km/h (1 Bft) 98,00 %
12.10.2018 07:50 7,9 C 12,8 C 7,2 C 87 % 1022,1 hPa 0,0 l/m 3,8 km/h (1 Bft) S-SW 193 2 min 0,000 mm 0,0 UV-I 62 W/m 5,9 C 7,9 C 4,8 km/h (1 Bft) 100,00 %
12.10.2018 07:52 7,8 C 12,8 C 7,2 C 88 % 1022,1 hPa 0,0 l/m 3,4 km/h (1 Bft) S-SW 193 2 min 0,000 mm 0,0 UV-I 67 W/m 5,9 C 7,8 C 4,8 km/h (1 Bft) 97,87 %
12.10.2018 07:54 7,8 C 12,8 C 7,2 C 88 % 1022,2 hPa 0,0 l/m 3,5 km/h (1 Bft) S-SW 193 2 min 0,000 mm 0,0 UV-I 71 W/m 5,9 C 7,8 C 4,8 km/h (1 Bft) 96,00 %
12.10.2018 07:56 7,8 C 12,8 C 6,7 C 88 % 1022,3 hPa 0,0 l/m 2,9 km/h (1 Bft) S-SW 194 2 min 0,000 mm 0,0 UV-I 76 W/m 5,9 C 7,8 C 3,2 km/h (1 Bft) 100,00 %
12.10.2018 07:58 8,0 C 12,8 C 6,7 C 88 % 1022,3 hPa 0,0 l/m 3,4 km/h (1 Bft) S-SW 194 2 min 0,000 mm 0,0 UV-I 80 W/m 6,1 C 8,0 C 4,8 km/h (1 Bft) 100,00 %
12.10.2018 08:00 8,2 C 12,8 C 6,7 C 88 % 1022,3 hPa 0,0 l/m 2,4 km/h (1 Bft) S-SW 194 2 min 0,026 mm 0,0 UV-I 85 W/m 6,3 C 8,2 C 3,2 km/h (1 Bft) 93,62 %
12.10.2018 08:02 8,3 C 12,8 C 7,2 C 87 % 1022,3 hPa 0,0 l/m 2,3 km/h (1 Bft) S-SW 194 2 min 0,000 mm 0,0 UV-I 90 W/m 6,3 C 8,3 C 3,2 km/h (1 Bft) 93,62 %
12.10.2018 08:04 8,5 C 12,8 C 7,2 C 87 % 1022,3 hPa 0,0 l/m 2,6 km/h (1 Bft) S-SW 194 2 min 0,000 mm 0,0 UV-I 94 W/m 6,5 C 8,5 C 4,8 km/h (1 Bft) 98,00 %
12.10.2018 08:06 8,7 C 12,8 C 7,2 C 87 % 1022,3 hPa 0,0 l/m 2,6 km/h (1 Bft) S-SW 194 2 min 0,000 mm 0,0 UV-I 98 W/m 6,7 C 8,7 C 4,8 km/h (1 Bft) 93,62 %
12.10.2018 08:08 8,8 C 12,8 C 7,2 C 86 % 1022,3 hPa 0,0 l/m 2,4 km/h (1 Bft) S-SW 194 2 min 0,000 mm 0,0 UV-I 102 W/m 6,6 C 8,8 C 3,2 km/h (1 Bft) 95,74 %
12.10.2018 08:10 8,9 C 12,8 C 7,2 C 86 % 1022,3 hPa 0,0 l/m 2,3 km/h (1 Bft) S-SW 194 2 min 0,000 mm 0,0 UV-I 108 W/m 6,7 C 8,9 C 3,2 km/h (1 Bft) 95,83 %
12.10.2018 08:12 9,1 C 12,8 C 7,2 C 86 % 1022,4 hPa 0,0 l/m 1,6 km/h (1 Bft) S-SW 194 2 min 0,000 mm 0,0 UV-I 112 W/m 6,9 C 9,1 C 3,2 km/h (1 Bft) 95,74 %
12.10.2018 08:15 9,3 C 12,8 C 7,2 C 85 % 1022,4 hPa 0,0 l/m 1,5 km/h (1 Bft) S-SW 194 3 min 0,000 mm 0,0 UV-I 116 W/m 6,9 C 9,3 C 3,2 km/h (1 Bft) 92,86 %
12.10.2018 08:16 9,4 C 12,8 C 7,2 C 85 % 1022,4 hPa 0,0 l/m 0,0 km/h (0 Bft) S-SW 194 1 min 0,000 mm 0,0 UV-I 114 W/m 7,0 C 9,4 C 0,0 km/h (0 Bft) 95,83 %
12.10.2018 08:18 9,8 C 12,8 C 7,8 C 83 % 1022,5 hPa 0,0 l/m 0,0 km/h (0 Bft) S-SW 194 2 min 0,000 mm 0,0 UV-I 91 W/m 7,1 C 9,8 C 0,0 km/h (0 Bft) 93,62 %
12.10.2018 08:20 9,9 C 12,8 C 7,8 C 82 % 1022,5 hPa 0,0 l/m 0,0 km/h (0 Bft) S-SW 194 2 min 0,000 mm 0,0 UV-I 101 W/m 7,0 C 9,9 C 0,0 km/h (0 Bft) 95,74 %
12.10.2018 08:22 9,9 C 12,8 C 7,8 C 81 % 1022,5 hPa 0,0 l/m 0,0 km/h (0 Bft) S-SW 194 2 min 0,000 mm 0,0 UV-I 107 W/m 6,8 C 9,9 C 0,0 km/h (0 Bft) 93,62 %
12.10.2018 08:25 10,1 C 12,8 C 7,8 C 81 % 1022,6 hPa 0,0 l/m 0,0 km/h (0 Bft) S-SW 194 3 min 0,000 mm 0,0 UV-I 114 W/m 7,0 C 10,1 C 0,0 km/h (0 Bft) 94,92 %
12.10.2018 08:26 10,1 C 12,8 C 7,8 C 81 % 1022,6 hPa 0,0 l/m 0,0 km/h (0 Bft) S-SW 194 1 min 0,000 mm 0,0 UV-I 110 W/m 7,0 C 10,1 C 0,0 km/h (0 Bft) 96,15 %
12.10.2018 08:28 10,3 C 12,8 C 7,8 C 81 % 1022,5 hPa 0,0 l/m 0,0 km/h (0 Bft) S-SW 194 2 min 0,000 mm 0,0 UV-I 121 W/m 7,2 C 10,3 C 0,0 km/h (0 Bft) 97,87 %
12.10.2018 08:30 10,3 C 12,8 C 8,3 C 80 % 1022,5 hPa 0,0 l/m 0,0 km/h (0 Bft) S-SW 211 2 min 0,000 mm 0,0 UV-I 113 W/m 7,0 C 10,3 C 1,6 km/h (1 Bft) 95,74 %
12.10.2018 08:32 10,4 C 12,8 C 8,3 C 80 % 1022,6 hPa 0,0 l/m 0,0 km/h (0 Bft) S-SW 211 0 min 0,000 mm 0,0 UV-I 76 W/m 7,1 C 10,4 C 0,0 km/h (0 Bft) 95,74 %
12.10.2018 08:34 10,4 C 12,8 C 8,3 C 80 % 1022,6 hPa 0,0 l/m 0,3 km/h (0 Bft) S-SW 211 2 min 0,000 mm 0,0 UV-I 113 W/m 7,1 C 10,4 C 1,6 km/h (1 Bft) 93,62 %
12.10.2018 08:36 10,4 C 12,8 C 8,3 C 80 % 1022,6 hPa 0,0 l/m 0,7 km/h (0 Bft) S-SW 211 0 min 0,000 mm 0,0 UV-I 81 W/m 7,1 C 10,4 C 1,6 km/h (1 Bft) 94,00 %
12.10.2018 08:38 10,4 C 12,8 C 8,3 C 81 % 1022,7 hPa 0,0 l/m 0,7 km/h (0 Bft) S-SW 211 0 min 0,000 mm 0,0 UV-I 75 W/m 7,3 C 10,4 C 1,6 km/h (1 Bft) 95,74 %
12.10.2018 08:40 10,4 C 12,8 C 8,3 C 82 % 1022,7 hPa 0,0 l/m 0,4 km/h (0 Bft) S-SW 211 0 min 0,000 mm 0,0 UV-I 74 W/m 7,5 C 10,4 C 1,6 km/h (1 Bft) 100,00 %
12.10.2018 08:42 10,4 C 12,8 C 8,3 C 84 % 1022,7 hPa 0,0 l/m 0,9 km/h (0 Bft) S-SW 211 0 min 0,000 mm 0,0 UV-I 76 W/m 7,8 C 10,4 C 1,6 km/h (1 Bft) 97,87 %
12.10.2018 08:44 10,3 C 12,8 C 8,9 C 83 % 1022,7 hPa 0,0 l/m 0,2 km/h (0 Bft) S-SW 211 0 min 0,000 mm 0,0 UV-I 105 W/m 7,5 C 10,3 C 1,6 km/h (1 Bft) 100,00 %
12.10.2018 08:46 10,5 C 12,8 C 8,9 C 83 % 1022,7 hPa 0,0 l/m 0,0 km/h (0 Bft) S-SW 211 2 min 0,000 mm 0,0 UV-I 176 W/m 7,7 C 10,5 C 0,0 km/h (0 Bft) 100,00 %
12.10.2018 08:48 10,8 C 12,8 C 8,9 C 82 % 1022,7 hPa 0,0 l/m 1,1 km/h (1 Bft) S-SW 211 2 min 0,000 mm 0,0 UV-I 197 W/m 7,9 C 10,8 C 1,6 km/h (1 Bft) 100,00 %
12.10.2018 08:50 10,9 C 12,8 C 9,4 C 83 % 1022,7 hPa 0,0 l/m 1,6 km/h (1 Bft) S-SW 211 2 min 0,000 mm 0,0 UV-I 191 W/m 8,1 C 10,9 C 3,2 km/h (1 Bft) 100,00 %
12.10.2018 08:52 11,1 C 12,8 C 9,4 C 82 % 1022,7 hPa 0,0 l/m 0,3 km/h (0 Bft) S-SW 211 2 min 0,000 mm 0,0 UV-I 134 W/m 8,1 C 11,1 C 1,6 km/h (1 Bft) 98,00 %
12.10.2018 08:54 11,2 C 12,8 C 9,4 C 81 % 1022,8 hPa 0,0 l/m 0,0 km/h (0 Bft) S-SW 211 0 min 0,000 mm 0,0 UV-I 89 W/m 8,1 C 11,2 C 0,0 km/h (0 Bft) 100,00 %
12.10.2018 08:56 11,4 C 12,8 C 9,4 C 80 % 1022,9 hPa 0,0 l/m 0,1 km/h (0 Bft) S-SW 211 0 min 0,000 mm 0,0 UV-I 70 W/m 8,1 C 11,4 C 1,6 km/h (1 Bft) 100,00 %
12.10.2018 08:58 11,3 C 12,8 C 9,4 C 81 % 1022,9 hPa 0,0 l/m 0,9 km/h (0 Bft) S-SW 211 0 min 0,000 mm 0,0 UV-I 67 W/m 8,2 C 11,3 C 1,6 km/h (1 Bft) 97,87 %
12.10.2018 09:00 11,1 C 12,8 C 10,0 C 81 % 1023,0 hPa 0,0 l/m 0,4 km/h (0 Bft) S-SW 211 0 min 0,050 mm 0,0 UV-I 73 W/m 8,0 C 11,1 C 1,6 km/h (1 Bft) 97,87 %
12.10.2018 09:02 11,1 C 12,8 C 10,0 C 82 % 1023,0 hPa 0,0 l/m 0,5 km/h (0 Bft) S-SW 211 0 min 0,000 mm 0,0 UV-I 74 W/m 8,1 C 11,1 C 1,6 km/h (1 Bft) 100,00 %
12.10.2018 09:04 11,2 C 12,8 C 10,0 C 81 % 1023,0 hPa 0,0 l/m 1,1 km/h (1 Bft) S-SW 211 0 min 0,000 mm 0,0 UV-I 112 W/m 8,1 C 11,2 C 1,6 km/h (1 Bft) 100,00 %
12.10.2018 09:06 11,1 C 12,8 C 10,0 C 81 % 1023,0 hPa 0,0 l/m 1,7 km/h (1 Bft) S-SW 211 0 min 0,000 mm 0,0 UV-I 134 W/m 8,0 C 11,1 C 3,2 km/h (1 Bft) 100,00 %
12.10.2018 09:08 11,1 C 12,8 C 10,0 C 82 % 1023,0 hPa 0,0 l/m 2,4 km/h (1 Bft) S-SW 211 2 min 0,000 mm 0,0 UV-I 210 W/m 8,1 C 11,1 C 3,2 km/h (1 Bft) 100,00 %
12.10.2018 09:10 11,2 C 12,8 C 10,6 C 82 % 1023,0 hPa 0,0 l/m 3,5 km/h (1 Bft) S-SW 209 2 min 0,000 mm 0,0 UV-I 236 W/m 8,2 C 11,2 C 4,8 km/h (1 Bft) 98,04 %
12.10.2018 09:12 11,4 C 12,8 C 11,1 C 83 % 1023,0 hPa 0,0 l/m 2,9 km/h (1 Bft) S-SW 209 2 min 0,000 mm 0,0 UV-I 250 W/m 8,6 C 11,4 C 4,8 km/h (1 Bft) 97,87 %
12.10.2018 09:14 11,6 C 12,8 C 11,1 C 82 % 1023,0 hPa 0,0 l/m 1,9 km/h (1 Bft) S-SW 209 2 min 0,000 mm 0,0 UV-I 246 W/m 8,6 C 11,6 C 3,2 km/h (1 Bft) 100,00 %
12.10.2018 09:15 11,7 C 12,8 C 11,7 C 80 % 1023,1 hPa 0,0 l/m 1,6 km/h (1 Bft) S-SW 202 1 min 0,000 mm 0,2 UV-I 246 W/m 8,4 C 11,7 C 4,8 km/h (1 Bft) 96,49 %
12.10.2018 09:20 12,1 C 12,8 C 11,7 C 77 % 1023,3 hPa 0,0 l/m 1,6 km/h (1 Bft) S-SW 202 5 min 0,000 mm 0,5 UV-I 268 W/m 8,2 C 12,1 C 3,2 km/h (1 Bft) 95,61 %
12.10.2018 09:25 12,3 C 12,8 C 11,7 C 77 % 1023,2 hPa 0,0 l/m 3,2 km/h (1 Bft) S-SW 202 5 min 0,000 mm 0,5 UV-I 275 W/m 8,4 C 12,3 C 4,8 km/h (1 Bft) 100,00 %
12.10.2018 09:30 12,8 C 12,8 C 11,7 C 76 % 1023,4 hPa 0,0 l/m 3,2 km/h (1 Bft) S-SW 202 5 min 0,000 mm 0,6 UV-I 279 W/m 8,7 C 12,8 C 4,8 km/h (1 Bft) 98,25 %
12.10.2018 09:35 13,0 C 12,8 C 12,2 C 77 % 1023,5 hPa 0,0 l/m 0,0 km/h (0 Bft) S-SW 202 5 min 0,000 mm 0,6 UV-I 287 W/m 9,1 C 13,0 C 3,2 km/h (1 Bft) 99,12 %
12.10.2018 09:40 13,0 C 12,8 C 12,2 C 76 % 1023,6 hPa 0,0 l/m 1,6 km/h (1 Bft) S-SW 202 5 min 0,000 mm 0,6 UV-I 263 W/m 8,9 C 13,0 C 3,2 km/h (1 Bft) 100,00 %
12.10.2018 09:45 13,1 C 12,8 C 12,2 C 75 % 1023,5 hPa 0,0 l/m 1,6 km/h (1 Bft) S-SW 202 5 min 0,000 mm 0,7 UV-I 267 W/m 8,8 C 13,1 C 3,2 km/h (1 Bft) 99,12 %
12.10.2018 09:50 13,7 C 12,8 C 12,8 C 73 % 1023,6 hPa 0,0 l/m 0,0 km/h (0 Bft) S-SW 202 5 min 0,000 mm 0,7 UV-I 308 W/m 8,9 C 13,7 C 3,2 km/h (1 Bft) 100,00 %
12.10.2018 09:55 13,6 C 12,8 C 12,8 C 73 % 1023,6 hPa 0,0 l/m 1,6 km/h (1 Bft) S-SW 202 5 min 0,000 mm 0,8 UV-I 314 W/m 8,9 C 13,6 C 3,2 km/h (1 Bft) 100,00 %
12.10.2018 10:00 14,0 C 12,8 C 13,3 C 69 % 1023,6 hPa 0,0 l/m 1,6 km/h (1 Bft) S-SW 202 5 min 0,127 mm 0,9 UV-I 334 W/m 8,4 C 14,0 C 4,8 km/h (1 Bft) 100,00 %
12.10.2018 10:05 14,3 C 12,8 C 13,3 C 69 % 1023,6 hPa 0,0 l/m 3,2 km/h (1 Bft) O-NO 67 5 min 0,000 mm 0,9 UV-I 348 W/m 8,7 C 14,3 C 6,4 km/h (2 Bft) 100,00 %
12.10.2018 10:10 14,4 C 12,8 C 13,9 C 70 % 1023,6 hPa 0,0 l/m 3,2 km/h (1 Bft) O-NO 67 5 min 0,000 mm 1,0 UV-I 359 W/m 9,0 C 14,4 C 6,4 km/h (2 Bft) 99,12 %
12.10.2018 10:15 14,7 C 12,8 C 15,0 C 67 % 1023,7 hPa 0,0 l/m 3,2 km/h (1 Bft) O-NO 67 5 min 0,000 mm 1,0 UV-I 369 W/m 8,6 C 14,7 C 4,8 km/h (1 Bft) 100,00 %
12.10.2018 10:20 14,9 C 12,8 C 16,7 C 65 % 1023,7 hPa 0,0 l/m 1,6 km/h (1 Bft) O-NO 67 5 min 0,000 mm 1,1 UV-I 379 W/m 8,4 C 14,9 C 4,8 km/h (1 Bft) 96,49 %
12.10.2018 10:25 15,4 C 12,8 C 18,3 C 67 % 1023,7 hPa 0,0 l/m 1,6 km/h (1 Bft) O-NO 67 5 min 0,000 mm 1,1 UV-I 387 W/m 9,3 C 15,4 C 4,8 km/h (1 Bft) 97,37 %
12.10.2018 10:30 15,7 C 12,8 C 21,1 C 67 % 1023,8 hPa 0,0 l/m 3,2 km/h (1 Bft) O-NO 67 5 min 0,000 mm 1,2 UV-I 394 W/m 9,6 C 15,7 C 4,8 km/h (1 Bft) 94,74 %
12.10.2018 10:35 15,9 C 12,8 C 24,4 C 66 % 1023,9 hPa 0,0 l/m 3,2 km/h (1 Bft) O-NO 67 5 min 0,000 mm 1,2 UV-I 402 W/m 9,6 C 15,9 C 6,4 km/h (2 Bft) 95,61 %
12.10.2018 10:40 15,8 C 12,8 C 25,0 C 65 % 1024,0 hPa 0,0 l/m 3,2 km/h (1 Bft) N-NO 22 5 min 0,000 mm 1,3 UV-I 409 W/m 9,2 C 15,8 C 4,8 km/h (1 Bft) 94,74 %
12.10.2018 10:45 15,9 C 12,8 C 26,1 C 65 % 1023,9 hPa 0,0 l/m 3,2 km/h (1 Bft) NW 315 5 min 0,000 mm 1,0 UV-I 418 W/m 9,3 C 15,9 C 4,8 km/h (1 Bft) 95,61 %
12.10.2018 10:50 15,8 C 12,8 C 26,1 C 66 % 1024,0 hPa 0,0 l/m 3,2 km/h (1 Bft) NW 315 5 min 0,000 mm 1,0 UV-I 425 W/m 9,5 C 15,8 C 4,8 km/h (1 Bft) 98,25 %
12.10.2018 10:55 16,2 C 12,8 C 27,2 C 65 % 1024,0 hPa 0,0 l/m 1,6 km/h (1 Bft) NW 315 5 min 0,000 mm 1,1 UV-I 433 W/m 9,6 C 16,2 C 3,2 km/h (1 Bft) 97,37 %
12.10.2018 11:00 16,3 C 12,8 C 27,2 C 61 % 1024,0 hPa 0,0 l/m 1,6 km/h (1 Bft) NW 315 5 min 0,229 mm 1,4 UV-I 438 W/m 8,8 C 16,3 C 3,2 km/h (1 Bft) 98,25 %
12.10.2018 11:05 16,7 C 12,8 C 27,8 C 62 % 1024,0 hPa 0,0 l/m 1,6 km/h (1 Bft) NW 315 5 min 0,000 mm 1,5 UV-I 322 W/m 9,4 C 16,7 C 4,8 km/h (1 Bft) 100,00 %
12.10.2018 11:10 16,8 C 12,8 C 27,8 C 61 % 1024,1 hPa 0,0 l/m 3,2 km/h (1 Bft) NW 315 0 min 0,000 mm 1,5 UV-I 246 W/m 9,2 C 16,8 C 6,4 km/h (2 Bft) 100,00 %
12.10.2018 11:15 17,3 C 12,8 C 28,9 C 60 % 1024,1 hPa 0,0 l/m 1,6 km/h (1 Bft) NW 315 5 min 0,000 mm 1,6 UV-I 420 W/m 9,5 C 17,3 C 3,2 km/h (1 Bft) 100,00 %
12.10.2018 11:16 17,4 C 12,8 C 28,9 C 62 % 1024,1 hPa 0,0 l/m 2,4 km/h (1 Bft) NW 306 1 min 0,000 mm 1,6 UV-I 459 W/m 10,0 C 17,4 C 3,2 km/h (1 Bft) 80,00 %
12.10.2018 11:18 17,6 C 12,8 C 30,0 C 60 % 1024,1 hPa 0,0 l/m 2,2 km/h (1 Bft) NW 308 2 min 0,000 mm 1,6 UV-I 460 W/m 9,7 C 17,6 C 3,2 km/h (1 Bft) 98,21 %
12.10.2018 11:20 17,7 C 12,8 C 30,0 C 59 % 1024,1 hPa 0,0 l/m 2,1 km/h (1 Bft) W-SW 238 2 min 0,000 mm 1,6 UV-I 465 W/m 9,6 C 17,7 C 4,8 km/h (1 Bft) 100,00 %
12.10.2018 11:22 17,7 C 12,8 C 30,0 C 58 % 1024,1 hPa 0,0 l/m 2,1 km/h (1 Bft) W-SW 238 2 min 0,000 mm 1,7 UV-I 470 W/m 9,3 C 17,7 C 4,8 km/h (1 Bft) 100,00 %
12.10.2018 11:24 17,7 C 12,8 C 30,0 C 60 % 1024,1 hPa 0,0 l/m 1,6 km/h (1 Bft) W-SW 238 2 min 0,000 mm 1,7 UV-I 469 W/m 9,8 C 17,7 C 3,2 km/h (1 Bft) 98,51 %
12.10.2018 11:26 17,8 C 12,8 C 30,0 C 59 % 1024,1 hPa 0,0 l/m 1,8 km/h (1 Bft) W-SW 242 2 min 0,000 mm 1,6 UV-I 438 W/m 9,7 C 17,8 C 6,4 km/h (2 Bft) 100,00 %
12.10.2018 11:28 17,9 C 12,8 C 30,0 C 59 % 1024,1 hPa 0,0 l/m 4,0 km/h (1 Bft) W-SW 242 0 min 0,000 mm 1,7 UV-I 238 W/m 9,8 C 17,9 C 4,8 km/h (1 Bft) 97,92 %
12.10.2018 11:30 17,8 C 12,8 C 29,4 C 57 % 1024,1 hPa 0,0 l/m 2,2 km/h (1 Bft) W-SW 242 0 min 0,000 mm 1,7 UV-I 172 W/m 9,2 C 17,8 C 3,2 km/h (1 Bft) 97,73 %
12.10.2018 11:32 17,8 C 12,8 C 30,0 C 58 % 1024,1 hPa 0,0 l/m 2,5 km/h (1 Bft) N-NW 348 2 min 0,000 mm 1,4 UV-I 356 W/m 9,4 C 17,8 C 4,8 km/h (1 Bft) 96,00 %
12.10.2018 11:34 18,0 C 12,8 C 30,0 C 59 % 1024,1 hPa 0,0 l/m 2,1 km/h (1 Bft) N-NW 348 2 min 0,000 mm 1,8 UV-I 472 W/m 9,9 C 18,0 C 3,2 km/h (1 Bft) 98,00 %
12.10.2018 11:36 18,2 C 12,8 C 30,0 C 57 % 1024,1 hPa 0,0 l/m 2,0 km/h (1 Bft) N-NW 348 2 min 0,000 mm 1,8 UV-I 453 W/m 9,5 C 18,2 C 3,2 km/h (1 Bft) 97,87 %
12.10.2018 11:38 18,4 C 12,8 C 30,6 C 58 % 1024,1 hPa 0,0 l/m 2,9 km/h (1 Bft) N 349 2 min 0,000 mm 1,8 UV-I 433 W/m 10,0 C 18,4 C 4,8 km/h (1 Bft) 98,11 %
12.10.2018 11:40 18,4 C 12,8 C 30,6 C 59 % 1024,1 hPa 0,0 l/m 3,5 km/h (1 Bft) N-NW 341 2 min 0,000 mm 1,6 UV-I 436 W/m 10,2 C 18,4 C 4,8 km/h (1 Bft) 97,87 %
12.10.2018 11:42 18,4 C 12,8 C 30,0 C 57 % 1024,2 hPa 0,0 l/m 3,9 km/h (1 Bft) N-NW 342 2 min 0,000 mm 1,7 UV-I 497 W/m 9,7 C 18,4 C 4,8 km/h (1 Bft) 97,73 %
12.10.2018 11:44 18,4 C 12,8 C 30,0 C 58 % 1024,2 hPa 0,0 l/m 2,9 km/h (1 Bft) N-NW 342 2 min 0,000 mm 1,8 UV-I 498 W/m 10,0 C 18,4 C 4,8 km/h (1 Bft) 97,87 %
12.10.2018 11:46 18,6 C 12,8 C 30,0 C 56 % 1024,1 hPa 0,0 l/m 1,6 km/h (1 Bft) N-NW 342 2 min 0,000 mm 1,8 UV-I 501 W/m 9,6 C 18,6 C 3,2 km/h (1 Bft) 93,62 %
12.10.2018 11:48 18,4 C 12,8 C 30,0 C 56 % 1024,1 hPa 0,0 l/m 0,9 km/h (0 Bft) N-NW 342 2 min 0,000 mm 1,9 UV-I 513 W/m 9,5 C 18,4 C 3,2 km/h (1 Bft) 95,74 %
12.10.2018 11:50 18,6 C 12,8 C 29,4 C 59 % 1024,1 hPa 0,0 l/m 4,6 km/h (1 Bft) NO 38 2 min 0,000 mm 1,8 UV-I 479 W/m 10,4 C 18,6 C 6,4 km/h (2 Bft) 97,87 %
12.10.2018 11:52 18,8 C 12,8 C 28,3 C 58 % 1024,1 hPa 0,0 l/m 4,7 km/h (1 Bft) NO 40 2 min 0,000 mm 1,8 UV-I 436 W/m 10,4 C 18,8 C 6,4 km/h (2 Bft) 97,37 %
12.10.2018 11:54 18,9 C 12,8 C 28,9 C 57 % 1024,1 hPa 0,0 l/m 2,5 km/h (1 Bft) NO 40 2 min 0,000 mm 1,9 UV-I 520 W/m 10,2 C 18,9 C 4,8 km/h (1 Bft) 97,87 %
12.10.2018 11:56 18,9 C 12,8 C 28,9 C 56 % 1024,1 hPa 0,0 l/m 4,2 km/h (1 Bft) N-NO 22 2 min 0,000 mm 1,8 UV-I 494 W/m 9,9 C 18,9 C 6,4 km/h (2 Bft) 97,87 %
12.10.2018 11:58 18,9 C 12,8 C 28,9 C 56 % 1024,1 hPa 0,0 l/m 5,7 km/h (1 Bft) N-NO 25 2 min 0,000 mm 1,9 UV-I 465 W/m 9,9 C 18,9 C 6,4 km/h (2 Bft) 98,11 %
12.10.2018 12:00 19,1 C 12,8 C 29,4 C 56 % 1024,1 hPa 0,0 l/m 5,1 km/h (1 Bft) N-NO 25 2 min 0,000 mm 1,9 UV-I 519 W/m 10,1 C 19,1 C 6,4 km/h (2 Bft) 97,14 %
12.10.2018 12:02 19,3 C 12,8 C 30,0 C 57 % 1024,1 hPa 0,0 l/m 3,8 km/h (1 Bft) N-NO 21 2 min 0,254 mm 2,0 UV-I 523 W/m 10,6 C 19,3 C 4,8 km/h (1 Bft) 94,92 %
12.10.2018 12:04 19,4 C 12,8 C 29,4 C 56 % 1024,1 hPa 0,0 l/m 4,5 km/h (1 Bft) O-NO 61 2 min 0,000 mm 2,0 UV-I 529 W/m 10,4 C 19,4 C 6,4 km/h (2 Bft) 95,74 %
12.10.2018 12:06 19,4 C 12,8 C 29,4 C 54 % 1024,1 hPa 0,0 l/m 4,2 km/h (1 Bft) O-NO 74 2 min 0,000 mm 2,0 UV-I 535 W/m 9,8 C 19,4 C 6,4 km/h (2 Bft) 97,87 %
12.10.2018 12:09 19,4 C 12,8 C 30,0 C 55 % 1024,1 hPa 0,0 l/m 3,9 km/h (1 Bft) O-NO 73 3 min 0,000 mm 2,0 UV-I 529 W/m 10,1 C 19,4 C 6,4 km/h (2 Bft) 97,06 %
12.10.2018 12:10 19,4 C 12,8 C 30,0 C 55 % 1024,1 hPa 0,0 l/m 4,0 km/h (1 Bft) NO 37 1 min 0,000 mm 2,0 UV-I 548 W/m 10,1 C 19,4 C 6,4 km/h (2 Bft) 92,31 %
12.10.2018 12:12 19,6 C 12,8 C 30,6 C 57 % 1024,1 hPa 0,0 l/m 4,9 km/h (1 Bft) NO 49 2 min 0,000 mm 2,0 UV-I 545 W/m 10,8 C 19,6 C 6,4 km/h (2 Bft) 95,24 %
12.10.2018 12:14 19,9 C 12,8 C 31,1 C 53 % 1024,1 hPa 0,0 l/m 4,2 km/h (1 Bft) NO 51 2 min 0,000 mm 1,9 UV-I 494 W/m 10,0 C 19,9 C 6,4 km/h (2 Bft) 94,74 %
12.10.2018 12:16 19,8 C 12,8 C 30,6 C 53 % 1024,1 hPa 0,0 l/m 3,8 km/h (1 Bft) NO 43 2 min 0,000 mm 1,9 UV-I 424 W/m 9,9 C 19,8 C 6,4 km/h (2 Bft) 98,31 %
12.10.2018 12:18 19,7 C 12,8 C 29,4 C 54 % 1024,2 hPa 0,0 l/m 4,3 km/h (1 Bft) NO 43 2 min 0,000 mm 1,9 UV-I 464 W/m 10,1 C 19,7 C 6,4 km/h (2 Bft) 98,00 %
12.10.2018 12:20 19,7 C 12,8 C 30,0 C 55 % 1024,2 hPa 0,0 l/m 3,0 km/h (1 Bft) NO 43 2 min 0,000 mm 2,0 UV-I 494 W/m 10,4 C 19,7 C 4,8 km/h (1 Bft) 97,37 %
12.10.2018 12:22 19,8 C 12,8 C 30,0 C 54 % 1024,2 hPa 0,0 l/m 4,1 km/h (1 Bft) NO 43 2 min 0,000 mm 2,0 UV-I 513 W/m 10,2 C 19,8 C 6,4 km/h (2 Bft) 97,87 %
12.10.2018 12:24 19,8 C 12,8 C 30,6 C 53 % 1024,2 hPa 0,0 l/m 3,6 km/h (1 Bft) NO 38 2 min 0,000 mm 2,0 UV-I 533 W/m 9,9 C 19,8 C 8,0 km/h (2 Bft) 97,87 %
12.10.2018 12:26 20,0 C 12,8 C 30,0 C 54 % 1024,1 hPa 0,0 l/m 5,2 km/h (1 Bft) O-NO 65 2 min 0,000 mm 1,9 UV-I 505 W/m 10,4 C 20,0 C 8,0 km/h (2 Bft) 97,87 %
12.10.2018 12:28 19,8 C 12,8 C 28,9 C 52 % 1024,2 hPa 0,0 l/m 2,6 km/h (1 Bft) NO 36 2 min 0,000 mm 1,7 UV-I 321 W/m 9,7 C 19,8 C 4,8 km/h (1 Bft) 97,87 %
12.10.2018 12:30 19,6 C 12,8 C 26,7 C 53 % 1024,2 hPa 0,0 l/m 2,5 km/h (1 Bft) NO 46 0 min 0,000 mm 1,7 UV-I 284 W/m 9,8 C 19,6 C 4,8 km/h (1 Bft) 100,00 %
12.10.2018 12:32 19,6 C 12,8 C 26,1 C 54 % 1024,2 hPa 0,0 l/m 4,7 km/h (1 Bft) NO 50 2 min 0,000 mm 1,8 UV-I 329 W/m 10,0 C 19,6 C 6,4 km/h (2 Bft) 100,00 %
12.10.2018 12:34 19,5 C 12,8 C 26,1 C 55 % 1024,2 hPa 0,0 l/m 3,8 km/h (1 Bft) NO 50 2 min 0,000 mm 1,8 UV-I 364 W/m 10,2 C 19,5 C 6,4 km/h (2 Bft) 97,37 %
12.10.2018 12:36 19,6 C 12,8 C 27,2 C 57 % 1024,2 hPa 0,0 l/m 5,2 km/h (1 Bft) NO 44 2 min 0,000 mm 2,0 UV-I 522 W/m 10,8 C 19,6 C 6,4 km/h (2 Bft) 100,00 %
12.10.2018 12:38 19,7 C 12,8 C 27,8 C 56 % 1024,1 hPa 0,0 l/m 3,5 km/h (1 Bft) NO 49 2 min 0,000 mm 2,1 UV-I 550 W/m 10,7 C 19,7 C 6,4 km/h (2 Bft) 95,74 %
12.10.2018 12:40 19,9 C 12,8 C 28,9 C 58 % 1024,2 hPa 0,0 l/m 7,6 km/h (2 Bft) O-NO 58 2 min 0,000 mm 2,1 UV-I 546 W/m 11,4 C 19,4 C 9,7 km/h (2 Bft) 100,00 %
12.10.2018 12:42 20,2 C 12,8 C 28,9 C 56 % 1024,2 hPa 0,0 l/m 6,6 km/h (2 Bft) NO 42 2 min 0,000 mm 2,1 UV-I 542 W/m 11,1 C 20,1 C 12,9 km/h (3 Bft) 100,00 %
12.10.2018 12:44 20,3 C 12,8 C 29,4 C 58 % 1024,2 hPa 0,0 l/m 5,8 km/h (2 Bft) NO 39 2 min 0,000 mm 2,1 UV-I 541 W/m 11,8 C 20,3 C 8,0 km/h (2 Bft) 98,11 %
12.10.2018 12:46 20,3 C 12,8 C 29,4 C 53 % 1024,2 hPa 0,0 l/m 3,5 km/h (1 Bft) NO 49 2 min 0,000 mm 2,1 UV-I 541 W/m 10,4 C 20,3 C 4,8 km/h (1 Bft) 100,00 %
12.10.2018 12:48 20,3 C 12,8 C 30,6 C 54 % 1024,2 hPa 0,0 l/m 3,7 km/h (1 Bft) O-NO 63 2 min 0,000 mm 2,1 UV-I 539 W/m 10,7 C 20,3 C 6,4 km/h (2 Bft) 100,00 %
12.10.2018 12:50 20,2 C 12,8 C 31,1 C 54 % 1024,2 hPa 0,0 l/m 2,7 km/h (1 Bft) O-NO 57 2 min 0,000 mm 2,1 UV-I 534 W/m 10,6 C 20,2 C 4,8 km/h (1 Bft) 100,00 %
12.10.2018 12:52 20,2 C 12,8 C 30,0 C 53 % 1024,1 hPa 0,0 l/m 4,2 km/h (1 Bft) N-NO 19 2 min 0,000 mm 2,1 UV-I 541 W/m 10,3 C 20,2 C 6,4 km/h (2 Bft) 100,00 %
12.10.2018 12:54 20,3 C 12,8 C 30,6 C 55 % 1024,1 hPa 0,0 l/m 3,4 km/h (1 Bft) O-NO 73 2 min 0,000 mm 2,1 UV-I 544 W/m 11,0 C 20,3 C 4,8 km/h (1 Bft) 97,87 %
12.10.2018 12:56 20,2 C 12,8 C 31,1 C 53 % 1024,1 hPa 0,0 l/m 3,9 km/h (1 Bft) O-NO 71 2 min 0,000 mm 2,1 UV-I 547 W/m 10,3 C 20,2 C 6,4 km/h (2 Bft) 97,14 %
12.10.2018 12:58 20,3 C 12,8 C 30,6 C 54 % 1024,1 hPa 0,0 l/m 3,3 km/h (1 Bft) O-NO 71 2 min 0,000 mm 2,1 UV-I 545 W/m 10,7 C 20,3 C 4,8 km/h (1 Bft) 98,11 %
12.10.2018 13:00 20,3 C 12,8 C 30,0 C 55 % 1024,1 hPa 0,0 l/m 3,6 km/h (1 Bft) NO 54 2 min 0,305 mm 2,1 UV-I 543 W/m 11,0 C 20,3 C 4,8 km/h (1 Bft) 97,87 %
12.10.2018 13:02 20,2 C 12,8 C 30,0 C 53 % 1024,1 hPa 0,0 l/m 1,1 km/h (1 Bft) NO 54 2 min 0,000 mm 2,1 UV-I 539 W/m 10,3 C 20,2 C 3,2 km/h (1 Bft) 97,87 %
12.10.2018 13:04 20,3 C 12,8 C 30,0 C 55 % 1024,0 hPa 0,0 l/m 4,8 km/h (1 Bft) NO 49 2 min 0,000 mm 2,1 UV-I 534 W/m 11,0 C 20,3 C 8,0 km/h (2 Bft) 96,00 %
12.10.2018 13:06 20,4 C 12,8 C 29,4 C 54 % 1024,0 hPa 0,0 l/m 4,6 km/h (1 Bft) NO 41 2 min 0,000 mm 2,1 UV-I 533 W/m 10,8 C 20,4 C 6,4 km/h (2 Bft) 97,87 %
12.10.2018 13:08 20,5 C 12,8 C 28,9 C 57 % 1024,1 hPa 0,0 l/m 4,9 km/h (1 Bft) NO 44 2 min 0,000 mm 2,1 UV-I 532 W/m 11,7 C 20,5 C 8,0 km/h (2 Bft) 94,00 %
12.10.2018 13:10 20,8 C 12,8 C 29,4 C 55 % 1024,0 hPa 0,0 l/m 3,3 km/h (1 Bft) NO 44 2 min 0,000 mm 2,1 UV-I 532 W/m 11,4 C 20,8 C 4,8 km/h (1 Bft) 97,73 %
12.10.2018 13:12 20,8 C 12,8 C 28,9 C 54 % 1024,0 hPa 0,0 l/m 4,4 km/h (1 Bft) O-NO 61 2 min 0,000 mm 2,1 UV-I 530 W/m 11,1 C 20,8 C 6,4 km/h (2 Bft) 97,87 %
12.10.2018 13:14 20,8 C 12,8 C 28,9 C 53 % 1024,0 hPa 0,0 l/m 2,9 km/h (1 Bft) O-NO 61 2 min 0,000 mm 2,1 UV-I 529 W/m 10,9 C 20,8 C 4,8 km/h (1 Bft) 97,37 %
12.10.2018 13:16 20,8 C 12,8 C 28,3 C 52 % 1024,0 hPa 0,0 l/m 3,1 km/h (1 Bft) O-NO 61 2 min 0,000 mm 2,1 UV-I 526 W/m 10,6 C 20,8 C 4,8 km/h (1 Bft) 98,21 %
12.10.2018 13:18 20,7 C 12,8 C 27,8 C 53 % 1024,0 hPa 0,0 l/m 1,6 km/h (1 Bft) O-NO 61 2 min 0,000 mm 2,1 UV-I 524 W/m 10,8 C 20,7 C 3,2 km/h (1 Bft) 97,37 %
12.10.2018 13:20 20,4 C 12,8 C 27,2 C 51 % 1024,0 hPa 0,0 l/m 1,2 km/h (1 Bft) O-NO 61 2 min 0,000 mm 2,0 UV-I 520 W/m 9,9 C 20,4 C 1,6 km/h (1 Bft) 96,00 %
12.10.2018 13:22 20,6 C 12,8 C 27,8 C 53 % 1024,0 hPa 0,0 l/m 3,1 km/h (1 Bft) NO 44 2 min 0,000 mm 2,0 UV-I 516 W/m 10,7 C 20,6 C 4,8 km/h (1 Bft) 96,00 %
12.10.2018 13:24 20,8 C 12,8 C 27,8 C 53 % 1024,0 hPa 0,0 l/m 1,4 km/h (1 Bft) NO 44 2 min 0,000 mm 2,0 UV-I 512 W/m 10,9 C 20,8 C 3,2 km/h (1 Bft) 94,87 %
12.10.2018 13:26 20,8 C 12,8 C 27,8 C 50 % 1023,9 hPa 0,0 l/m 1,7 km/h (1 Bft) NO 44 2 min 0,000 mm 2,0 UV-I 511 W/m 10,0 C 20,8 C 3,2 km/h (1 Bft) 94,34 %
12.10.2018 13:28 20,9 C 12,8 C 27,2 C 53 % 1023,9 hPa 0,0 l/m 3,4 km/h (1 Bft) NO 44 2 min 0,000 mm 2,0 UV-I 510 W/m 11,0 C 20,9 C 4,8 km/h (1 Bft) 95,74 %
12.10.2018 13:30 20,9 C 12,8 C 27,2 C 51 % 1023,8 hPa 0,0 l/m 4,3 km/h (1 Bft) NO 44 2 min 0,000 mm 2,0 UV-I 510 W/m 10,4 C 20,9 C 6,4 km/h (2 Bft) 95,12 %
12.10.2018 13:32 21,0 C 12,8 C 27,2 C 51 % 1023,8 hPa 0,0 l/m 2,5 km/h (1 Bft) NO 44 2 min 0,000 mm 2,0 UV-I 509 W/m 10,5 C 21,0 C 3,2 km/h (1 Bft) 90,57 %
12.10.2018 13:34 20,9 C 12,8 C 27,8 C 49 % 1023,8 hPa 0,0 l/m 0,9 km/h (0 Bft) NO 44 2 min 0,000 mm 2,0 UV-I 506 W/m 9,8 C 20,9 C 1,6 km/h (1 Bft) 94,00 %
12.10.2018 13:36 21,0 C 12,8 C 28,3 C 50 % 1023,8 hPa 0,0 l/m 1,9 km/h (1 Bft) NO 44 2 min 0,000 mm 2,0 UV-I 504 W/m 10,2 C 21,0 C 6,4 km/h (2 Bft) 91,49 %
12.10.2018 13:39 21,1 C 12,8 C 27,2 C 50 % 1023,7 hPa 0,0 l/m 4,9 km/h (1 Bft) NO 44 3 min 0,000 mm 2,0 UV-I 502 W/m 10,3 C 21,1 C 6,4 km/h (2 Bft) 93,44 %
12.10.2018 13:40 21,1 C 12,8 C 26,1 C 51 % 1023,7 hPa 0,0 l/m 4,2 km/h (1 Bft) O 80 1 min 0,000 mm 2,0 UV-I 499 W/m 10,6 C 21,1 C 4,8 km/h (1 Bft) 90,32 %
12.10.2018 13:42 21,2 C 12,8 C 26,1 C 52 % 1023,7 hPa 0,0 l/m 4,8 km/h (1 Bft) NO 35 2 min 0,000 mm 1,9 UV-I 499 W/m 10,9 C 21,2 C 8,0 km/h (2 Bft) 94,00 %
12.10.2018 13:44 21,3 C 12,8 C 25,6 C 52 % 1023,7 hPa 0,0 l/m 3,8 km/h (1 Bft) NO 51 2 min 0,000 mm 1,9 UV-I 497 W/m 11,0 C 21,3 C 6,4 km/h (2 Bft) 92,68 %
12.10.2018 13:46 21,3 C 12,8 C 25,0 C 50 % 1023,7 hPa 0,0 l/m 2,8 km/h (1 Bft) O 101 2 min 0,000 mm 1,9 UV-I 496 W/m 10,4 C 21,3 C 4,8 km/h (1 Bft) 94,00 %
12.10.2018 13:48 21,3 C 12,8 C 24,4 C 50 % 1023,7 hPa 0,0 l/m 3,8 km/h (1 Bft) O 99 2 min 0,000 mm 1,9 UV-I 495 W/m 10,4 C 21,3 C 4,8 km/h (1 Bft) 93,62 %
12.10.2018 13:50 21,3 C 12,8 C 23,9 C 49 % 1023,7 hPa 0,0 l/m 2,2 km/h (1 Bft) O 99 2 min 0,000 mm 1,9 UV-I 493 W/m 10,1 C 21,3 C 4,8 km/h (1 Bft) 92,00 %
12.10.2018 13:52 21,4 C 12,8 C 23,3 C 49 % 1023,6 hPa 0,0 l/m 1,5 km/h (1 Bft) O 99 2 min 0,000 mm 1,9 UV-I 493 W/m 10,2 C 21,4 C 3,2 km/h (1 Bft) 92,68 %
12.10.2018 13:54 21,4 C 12,8 C 23,3 C 49 % 1023,6 hPa 0,0 l/m 2,0 km/h (1 Bft) SO 130 2 min 0,000 mm 1,9 UV-I 493 W/m 10,2 C 21,4 C 4,8 km/h (1 Bft) 93,62 %
12.10.2018 13:56 21,4 C 12,8 C 22,8 C 50 % 1023,6 hPa 0,0 l/m 3,1 km/h (1 Bft) O-NO 67 2 min 0,000 mm 1,9 UV-I 494 W/m 10,5 C 21,4 C 4,8 km/h (1 Bft) 95,74 %
12.10.2018 13:58 21,5 C 12,8 C 22,8 C 49 % 1023,6 hPa 0,0 l/m 3,2 km/h (1 Bft) O-NO 63 2 min 0,000 mm 1,9 UV-I 497 W/m 10,3 C 21,5 C 6,4 km/h (2 Bft) 95,74 %
12.10.2018 14:00 21,6 C 12,8 C 23,3 C 49 % 1023,5 hPa 0,0 l/m 2,3 km/h (1 Bft) O-NO 63 2 min 0,000 mm 1,9 UV-I 498 W/m 10,4 C 21,6 C 6,4 km/h (2 Bft) 96,00 %
12.10.2018 14:02 21,7 C 12,8 C 23,3 C 48 % 1023,5 hPa 0,0 l/m 1,4 km/h (1 Bft) O-NO 69 2 min 0,330 mm 1,9 UV-I 502 W/m 10,2 C 21,7 C 3,2 km/h (1 Bft) 95,74 %
12.10.2018 14:04 21,6 C 12,8 C 23,9 C 49 % 1023,5 hPa 0,0 l/m 3,5 km/h (1 Bft) O-NO 77 2 min 0,000 mm 1,9 UV-I 502 W/m 10,4 C 21,6 C 6,4 km/h (2 Bft) 97,44 %
12.10.2018 14:06 21,8 C 12,8 C 23,3 C 49 % 1023,5 hPa 0,0 l/m 4,7 km/h (1 Bft) O-NO 71 2 min 0,000 mm 1,8 UV-I 502 W/m 10,6 C 21,8 C 6,4 km/h (2 Bft) 98,00 %
12.10.2018 14:08 21,9 C 12,8 C 23,3 C 50 % 1023,5 hPa 0,0 l/m 5,5 km/h (1 Bft) O-NO 76 2 min 0,000 mm 1,8 UV-I 498 W/m 11,0 C 21,9 C 6,4 km/h (2 Bft) 97,87 %
12.10.2018 14:10 22,1 C 12,8 C 23,3 C 50 % 1023,5 hPa 0,0 l/m 3,6 km/h (1 Bft) O-NO 76 2 min 0,000 mm 1,8 UV-I 496 W/m 11,2 C 22,1 C 6,4 km/h (2 Bft) 97,87 %
12.10.2018 14:12 22,0 C 12,8 C 22,8 C 49 % 1023,5 hPa 0,0 l/m 2,5 km/h (1 Bft) NO 44 2 min 0,000 mm 1,8 UV-I 492 W/m 10,8 C 22,0 C 6,4 km/h (2 Bft) 98,00 %
12.10.2018 14:14 22,1 C 12,8 C 22,2 C 49 % 1023,5 hPa 0,0 l/m 5,1 km/h (1 Bft) O-NO 59 2 min 0,000 mm 1,8 UV-I 489 W/m 10,9 C 22,1 C 8,0 km/h (2 Bft) 96,00 %
12.10.2018 14:16 22,2 C 12,8 C 22,2 C 48 % 1023,5 hPa 0,0 l/m 3,9 km/h (1 Bft) O-NO 74 2 min 0,000 mm 1,7 UV-I 485 W/m 10,7 C 22,2 C 6,4 km/h (2 Bft) 100,00 %
12.10.2018 14:18 22,2 C 12,8 C 22,2 C 47 % 1023,5 hPa 0,0 l/m 2,9 km/h (1 Bft) O-NO 78 2 min 0,000 mm 1,7 UV-I 480 W/m 10,3 C 22,2 C 4,8 km/h (1 Bft) 95,74 %
12.10.2018 14:20 22,2 C 12,8 C 22,2 C 49 % 1023,5 hPa 0,0 l/m 3,0 km/h (1 Bft) N-NO 27 2 min 0,000 mm 1,7 UV-I 475 W/m 11,0 C 22,2 C 4,8 km/h (1 Bft) 98,11 %
12.10.2018 14:22 22,3 C 12,8 C 22,2 C 50 % 1023,5 hPa 0,0 l/m 4,0 km/h (1 Bft) NO 42 2 min 0,000 mm 1,7 UV-I 469 W/m 11,4 C 22,3 C 6,4 km/h (2 Bft) 98,00 %
12.10.2018 14:24 22,3 C 12,8 C 22,2 C 48 % 1023,5 hPa 0,0 l/m 1,4 km/h (1 Bft) NO 42 2 min 0,000 mm 1,7 UV-I 465 W/m 10,8 C 22,3 C 3,2 km/h (1 Bft) 97,87 %
12.10.2018 14:26 22,2 C 12,8 C 21,7 C 46 % 1023,5 hPa 0,0 l/m 2,0 km/h (1 Bft) O 84 2 min 0,000 mm 1,6 UV-I 459 W/m 10,0 C 22,2 C 3,2 km/h (1 Bft) 100,00 %
12.10.2018 14:28 22,1 C 12,8 C 21,7 C 47 % 1023,5 hPa 0,0 l/m 2,4 km/h (1 Bft) O-SO 116 2 min 0,000 mm 1,6 UV-I 454 W/m 10,3 C 22,1 C 4,8 km/h (1 Bft) 100,00 %
12.10.2018 14:30 22,0 C 12,8 C 21,1 C 48 % 1023,5 hPa 0,0 l/m 1,8 km/h (1 Bft) O-SO 116 2 min 0,000 mm 1,6 UV-I 450 W/m 10,5 C 22,0 C 4,8 km/h (1 Bft) 98,00 %
12.10.2018 14:32 22,0 C 12,8 C 21,1 C 48 % 1023,5 hPa 0,0 l/m 2,0 km/h (1 Bft) O-SO 117 2 min 0,000 mm 1,6 UV-I 446 W/m 10,5 C 22,0 C 3,2 km/h (1 Bft) 100,00 %
12.10.2018 14:34 22,2 C 12,8 C 21,1 C 48 % 1023,5 hPa 0,0 l/m 4,2 km/h (1 Bft) O 88 2 min 0,000 mm 1,6 UV-I 443 W/m 10,7 C 22,2 C 6,4 km/h (2 Bft) 100,00 %
12.10.2018 14:36 22,2 C 12,8 C 21,1 C 47 % 1023,4 hPa 0,0 l/m 4,1 km/h (1 Bft) N-NO 28 2 min 0,000 mm 1,6 UV-I 439 W/m 10,3 C 22,2 C 6,4 km/h (2 Bft) 100,00 %
12.10.2018 14:38 22,3 C 12,8 C 21,1 C 49 % 1023,4 hPa 0,0 l/m 3,9 km/h (1 Bft) O 83 2 min 0,000 mm 1,5 UV-I 437 W/m 11,1 C 22,3 C 4,8 km/h (1 Bft) 100,00 %
12.10.2018 14:40 22,3 C 12,8 C 21,1 C 47 % 1023,4 hPa 0,0 l/m 3,4 km/h (1 Bft) NO 43 2 min 0,000 mm 1,5 UV-I 432 W/m 10,4 C 22,3 C 4,8 km/h (1 Bft) 100,00 %
12.10.2018 14:42 22,3 C 12,8 C 21,1 C 47 % 1023,4 hPa 0,0 l/m 3,2 km/h (1 Bft) N 355 2 min 0,000 mm 1,5 UV-I 429 W/m 10,4 C 22,3 C 4,8 km/h (1 Bft) 100,00 %
12.10.2018 14:44 22,3 C 12,8 C 21,1 C 48 % 1023,4 hPa 0,0 l/m 1,5 km/h (1 Bft) N 355 2 min 0,000 mm 1,5 UV-I 424 W/m 10,8 C 22,3 C 3,2 km/h (1 Bft) 100,00 %
12.10.2018 14:46 22,3 C 12,8 C 21,1 C 48 % 1023,4 hPa 0,0 l/m 2,0 km/h (1 Bft) N 360 2 min 0,000 mm 1,5 UV-I 421 W/m 10,8 C 22,3 C 3,2 km/h (1 Bft) 100,00 %
12.10.2018 14:48 22,4 C 12,8 C 21,1 C 48 % 1023,4 hPa 0,0 l/m 2,8 km/h (1 Bft) N-NO 20 2 min 0,000 mm 1,4 UV-I 418 W/m 10,8 C 22,4 C 4,8 km/h (1 Bft) 100,00 %
12.10.2018 14:50 22,5 C 12,8 C 21,1 C 49 % 1023,3 hPa 0,0 l/m 4,4 km/h (1 Bft) N-NO 22 2 min 0,000 mm 1,4 UV-I 415 W/m 11,2 C 22,5 C 4,8 km/h (1 Bft) 100,00 %
12.10.2018 14:52 22,4 C 12,8 C 21,1 C 47 % 1023,3 hPa 0,0 l/m 2,3 km/h (1 Bft) N-NO 22 2 min 0,000 mm 1,4 UV-I 412 W/m 10,5 C 22,4 C 4,8 km/h (1 Bft) 100,00 %
12.10.2018 14:54 22,5 C 12,8 C 21,1 C 47 % 1023,3 hPa 0,0 l/m 2,4 km/h (1 Bft) N-NO 28 2 min 0,000 mm 1,4 UV-I 410 W/m 10,6 C 22,5 C 8,0 km/h (2 Bft) 100,00 %
12.10.2018 14:56 22,5 C 12,8 C 21,1 C 48 % 1023,3 hPa 0,0 l/m 4,9 km/h (1 Bft) NO 50 2 min 0,000 mm 1,4 UV-I 407 W/m 10,9 C 22,5 C 8,0 km/h (2 Bft) 100,00 %
12.10.2018 14:58 22,7 C 12,8 C 21,1 C 48 % 1023,3 hPa 0,0 l/m 4,2 km/h (1 Bft) O-NO 74 2 min 0,000 mm 1,3 UV-I 404 W/m 11,1 C 22,7 C 6,4 km/h (2 Bft) 97,37 %
12.10.2018 15:00 22,7 C 12,8 C 21,1 C 48 % 1023,3 hPa 0,0 l/m 5,0 km/h (1 Bft) NO 47 2 min 0,305 mm 1,3 UV-I 399 W/m 11,1 C 22,7 C 8,0 km/h (2 Bft) 100,00 %
12.10.2018 15:02 22,7 C 12,8 C 21,1 C 48 % 1023,3 hPa 0,0 l/m 8,2 km/h (2 Bft) NO 44 2 min 0,000 mm 1,3 UV-I 398 W/m 11,1 C 22,1 C 12,9 km/h (3 Bft) 100,00 %
12.10.2018 15:04 22,7 C 12,8 C 21,1 C 51 % 1023,2 hPa 0,0 l/m 6,9 km/h (2 Bft) NO 45 2 min 0,000 mm 1,3 UV-I 394 W/m 12,0 C 22,5 C 8,0 km/h (2 Bft) 100,00 %
12.10.2018 15:06 22,7 C 12,8 C 21,1 C 49 % 1023,2 hPa 0,0 l/m 6,8 km/h (2 Bft) O-NO 65 2 min 0,000 mm 1,3 UV-I 389 W/m 11,4 C 22,6 C 9,7 km/h (2 Bft) 97,87 %
12.10.2018 15:08 22,6 C 12,8 C 21,1 C 47 % 1023,2 hPa 0,0 l/m 4,2 km/h (1 Bft) O-NO 64 2 min 0,000 mm 1,3 UV-I 386 W/m 10,7 C 22,6 C 8,0 km/h (2 Bft) 100,00 %
12.10.2018 15:10 22,6 C 12,8 C 21,1 C 47 % 1023,3 hPa 0,0 l/m 5,4 km/h (1 Bft) O 86 2 min 0,000 mm 1,2 UV-I 383 W/m 10,7 C 22,6 C 6,4 km/h (2 Bft) 97,37 %
12.10.2018 15:12 22,6 C 12,8 C 21,1 C 47 % 1023,3 hPa 0,0 l/m 2,9 km/h (1 Bft) O 84 2 min 0,000 mm 1,2 UV-I 379 W/m 10,7 C 22,6 C 4,8 km/h (1 Bft) 96,23 %
12.10.2018 15:14 22,6 C 12,8 C 21,1 C 48 % 1023,3 hPa 0,0 l/m 5,7 km/h (1 Bft) NO 42 2 min 0,000 mm 1,2 UV-I 375 W/m 11,0 C 22,6 C 8,0 km/h (2 Bft) 100,00 %
12.10.2018 15:16 22,7 C 12,8 C 21,1 C 48 % 1023,3 hPa 0,0 l/m 5,5 km/h (1 Bft) NO 45 2 min 0,000 mm 1,2 UV-I 371 W/m 11,1 C 22,7 C 6,4 km/h (2 Bft) 95,52 %
12.10.2018 15:18 22,7 C 12,8 C 21,1 C 50 % 1023,3 hPa 0,0 l/m 6,7 km/h (2 Bft) O-NO 59 2 min 0,000 mm 1,2 UV-I 367 W/m 11,7 C 22,6 C 9,7 km/h (2 Bft) 93,62 %
12.10.2018 15:20 22,8 C 12,8 C 21,1 C 48 % 1023,3 hPa 0,0 l/m 6,7 km/h (2 Bft) O-NO 69 2 min 0,000 mm 1,1 UV-I 362 W/m 11,2 C 22,7 C 9,7 km/h (2 Bft) 95,24 %
12.10.2018 15:22 22,8 C 12,8 C 20,6 C 48 % 1023,3 hPa 0,0 l/m 3,6 km/h (1 Bft) N-NO 27 2 min 0,000 mm 1,1 UV-I 359 W/m 11,2 C 22,8 C 6,4 km/h (2 Bft) 100,00 %
12.10.2018 15:24 22,8 C 12,8 C 21,1 C 48 % 1023,3 hPa 0,0 l/m 6,2 km/h (2 Bft) N-NO 29 2 min 0,000 mm 1,1 UV-I 355 W/m 11,2 C 22,8 C 9,7 km/h (2 Bft) 92,96 %
12.10.2018 15:26 22,7 C 12,8 C 20,6 C 48 % 1023,3 hPa 0,0 l/m 4,9 km/h (1 Bft) NO 51 2 min 0,000 mm 1,1 UV-I 352 W/m 11,1 C 22,7 C 8,0 km/h (2 Bft) 95,12 %
12.10.2018 15:28 22,7 C 12,8 C 21,1 C 49 % 1023,2 hPa 0,0 l/m 6,5 km/h (2 Bft) N-NO 19 2 min 0,000 mm 1,0 UV-I 348 W/m 11,4 C 22,7 C 9,7 km/h (2 Bft) 96,23 %
12.10.2018 15:30 22,6 C 12,8 C 20,6 C 49 % 1023,3 hPa 0,0 l/m 5,0 km/h (1 Bft) NO 52 2 min 0,000 mm 1,0 UV-I 345 W/m 11,3 C 22,6 C 8,0 km/h (2 Bft) 95,12 %
12.10.2018 15:32 22,6 C 12,8 C 20,6 C 51 % 1023,3 hPa 0,0 l/m 4,2 km/h (1 Bft) NO 45 2 min 0,000 mm 1,0 UV-I 341 W/m 11,9 C 22,6 C 6,4 km/h (2 Bft) 96,00 %
12.10.2018 15:34 22,7 C 12,8 C 20,6 C 48 % 1023,3 hPa 0,0 l/m 4,5 km/h (1 Bft) O-SO 109 2 min 0,000 mm 1,0 UV-I 336 W/m 11,1 C 22,7 C 6,4 km/h (2 Bft) 92,45 %
12.10.2018 15:36 22,6 C 12,8 C 20,6 C 48 % 1023,3 hPa 0,0 l/m 2,1 km/h (1 Bft) O-SO 107 2 min 0,000 mm 1,0 UV-I 331 W/m 11,0 C 22,6 C 4,8 km/h (1 Bft) 95,45 %
12.10.2018 15:38 22,6 C 12,8 C 20,6 C 48 % 1023,3 hPa 0,0 l/m 3,7 km/h (1 Bft) O-SO 118 2 min 0,000 mm 0,9 UV-I 325 W/m 11,0 C 22,6 C 6,4 km/h (2 Bft) 97,37 %
12.10.2018 15:40 22,6 C 12,8 C 20,6 C 47 % 1023,3 hPa 0,0 l/m 5,1 km/h (1 Bft) O-SO 113 2 min 0,000 mm 0,9 UV-I 323 W/m 10,7 C 22,6 C 9,7 km/h (2 Bft) 98,11 %
12.10.2018 15:42 22,6 C 12,8 C 20,0 C 48 % 1023,3 hPa 0,0 l/m 4,7 km/h (1 Bft) O 101 2 min 0,000 mm 0,9 UV-I 320 W/m 11,0 C 22,6 C 6,4 km/h (2 Bft) 96,00 %
12.10.2018 15:44 22,6 C 12,8 C 20,0 C 49 % 1023,3 hPa 0,0 l/m 4,3 km/h (1 Bft) O-SO 102 2 min 0,000 mm 0,9 UV-I 317 W/m 11,3 C 22,6 C 6,4 km/h (2 Bft) 97,37 %
12.10.2018 15:46 22,6 C 12,8 C 20,0 C 49 % 1023,3 hPa 0,0 l/m 5,8 km/h (2 Bft) NO 35 2 min 0,000 mm 0,9 UV-I 313 W/m 11,3 C 22,6 C 8,0 km/h (2 Bft) 97,87 %
12.10.2018 15:48 22,7 C 12,8 C 20,6 C 50 % 1023,3 hPa 0,0 l/m 5,2 km/h (1 Bft) NO 39 2 min 0,000 mm 0,9 UV-I 309 W/m 11,7 C 22,7 C 6,4 km/h (2 Bft) 98,00 %
12.10.2018 15:50 22,6 C 12,8 C 20,6 C 49 % 1023,3 hPa 0,0 l/m 4,2 km/h (1 Bft) NO 56 2 min 0,000 mm 0,8 UV-I 304 W/m 11,3 C 22,6 C 6,4 km/h (2 Bft) 100,00 %
12.10.2018 15:52 22,6 C 12,8 C 20,0 C 49 % 1023,3 hPa 0,0 l/m 3,3 km/h (1 Bft) O-SO 105 2 min 0,000 mm 0,8 UV-I 300 W/m 11,3 C 22,6 C 4,8 km/h (1 Bft) 100,00 %
12.10.2018 15:54 22,6 C 12,8 C 20,0 C 47 % 1023,3 hPa 0,0 l/m 3,7 km/h (1 Bft) O-SO 104 2 min 0,000 mm 0,8 UV-I 295 W/m 10,7 C 22,6 C 6,4 km/h (2 Bft) 100,00 %
12.10.2018 15:56 22,6 C 12,8 C 20,0 C 48 % 1023,3 hPa 0,0 l/m 3,4 km/h (1 Bft) O-SO 104 2 min 0,000 mm 0,8 UV-I 291 W/m 11,0 C 22,6 C 4,8 km/h (1 Bft) 100,00 %
12.10.2018 16:00 22,7 C 12,8 C 20,0 C 48 % 1023,2 hPa 0,0 l/m 4,8 km/h (1 Bft) O 90 4 min 0,254 mm 0,7 UV-I 284 W/m 11,1 C 22,7 C 8,0 km/h (2 Bft) 97,37 %
12.10.2018 16:05 22,6 C 12,8 C 19,4 C 50 % 1023,2 hPa 0,0 l/m 3,2 km/h (1 Bft) O-NO 67 5 min 0,000 mm 0,7 UV-I 273 W/m 11,6 C 22,6 C 6,4 km/h (2 Bft) 95,61 %
12.10.2018 16:08 22,7 C 12,8 C 19,4 C 48 % 1023,2 hPa 0,0 l/m 2,9 km/h (1 Bft) N-NO 17 3 min 0,000 mm 0,7 UV-I 278 W/m 11,1 C 22,7 C 4,8 km/h (1 Bft) 99,27 %
12.10.2018 16:10 22,7 C 12,8 C 20,0 C 49 % 1023,3 hPa 0,0 l/m 4,0 km/h (1 Bft) NO 36 2 min 0,000 mm 0,6 UV-I 260 W/m 11,4 C 22,7 C 6,4 km/h (2 Bft) 100,00 %
12.10.2018 16:12 22,6 C 12,8 C 20,0 C 49 % 1023,3 hPa 0,0 l/m 4,3 km/h (1 Bft) NO 36 2 min 0,000 mm 0,6 UV-I 256 W/m 11,3 C 22,6 C 4,8 km/h (1 Bft) 97,87 %
12.10.2018 16:14 22,6 C 12,8 C 19,4 C 49 % 1023,2 hPa 0,0 l/m 4,1 km/h (1 Bft) NO 50 2 min 0,000 mm 0,6 UV-I 252 W/m 11,3 C 22,6 C 8,0 km/h (2 Bft) 100,00 %
12.10.2018 16:16 22,6 C 12,8 C 20,0 C 49 % 1023,2 hPa 0,0 l/m 7,2 km/h (2 Bft) N-NO 32 2 min 0,000 mm 0,6 UV-I 247 W/m 11,3 C 22,3 C 9,7 km/h (2 Bft) 100,00 %
12.10.2018 16:18 22,6 C 12,8 C 20,0 C 51 % 1023,2 hPa 0,0 l/m 5,5 km/h (1 Bft) O-NO 69 2 min 0,000 mm 0,6 UV-I 242 W/m 11,9 C 22,6 C 6,4 km/h (2 Bft) 100,00 %
12.10.2018 16:20 22,5 C 12,8 C 19,4 C 48 % 1023,3 hPa 0,0 l/m 5,0 km/h (1 Bft) O 80 2 min 0,000 mm 0,6 UV-I 237 W/m 10,9 C 22,5 C 6,4 km/h (2 Bft) 100,00 %
12.10.2018 16:22 22,4 C 12,8 C 19,4 C 50 % 1023,2 hPa 0,0 l/m 5,0 km/h (1 Bft) O-NO 58 2 min 0,000 mm 0,5 UV-I 233 W/m 11,5 C 22,4 C 8,0 km/h (2 Bft) 100,00 %
12.10.2018 16:24 22,3 C 12,8 C 19,4 C 49 % 1023,2 hPa 0,0 l/m 4,0 km/h (1 Bft) O-NO 58 2 min 0,000 mm 0,5 UV-I 228 W/m 11,1 C 22,3 C 6,4 km/h (2 Bft) 100,00 %
12.10.2018 16:26 22,3 C 12,8 C 19,4 C 50 % 1023,2 hPa 0,0 l/m 4,6 km/h (1 Bft) N-NO 19 2 min 0,000 mm 0,5 UV-I 223 W/m 11,4 C 22,3 C 6,4 km/h (2 Bft) 100,00 %
12.10.2018 16:28 22,3 C 12,8 C 19,4 C 49 % 1023,2 hPa 0,0 l/m 3,1 km/h (1 Bft) NO 44 2 min 0,000 mm 0,5 UV-I 219 W/m 11,1 C 22,3 C 4,8 km/h (1 Bft) 97,56 %
12.10.2018 16:30 22,3 C 12,8 C 19,4 C 49 % 1023,2 hPa 0,0 l/m 4,9 km/h (1 Bft) O-NO 68 2 min 0,000 mm 0,5 UV-I 213 W/m 11,1 C 22,3 C 6,4 km/h (2 Bft) 98,11 %
12.10.2018 16:32 22,2 C 12,8 C 19,4 C 49 % 1023,2 hPa 0,0 l/m 4,4 km/h (1 Bft) O-NO 61 2 min 0,000 mm 0,5 UV-I 211 W/m 11,0 C 22,2 C 6,4 km/h (2 Bft) 100,00 %
12.10.2018 16:34 22,1 C 12,8 C 19,4 C 50 % 1023,2 hPa 0,0 l/m 5,0 km/h (1 Bft) O-NO 60 2 min 0,000 mm 0,1 UV-I 206 W/m 11,2 C 22,1 C 6,4 km/h (2 Bft) 97,44 %
12.10.2018 16:36 22,1 C 12,8 C 18,9 C 50 % 1023,2 hPa 0,0 l/m 3,6 km/h (1 Bft) O-NO 65 2 min 0,000 mm 0,0 UV-I 201 W/m 11,2 C 22,1 C 6,4 km/h (2 Bft) 100,00 %
12.10.2018 16:38 22,1 C 12,8 C 18,9 C 49 % 1023,2 hPa 0,0 l/m 4,5 km/h (1 Bft) O-NO 65 2 min 0,000 mm 0,0 UV-I 196 W/m 10,9 C 22,1 C 6,4 km/h (2 Bft) 100,00 %
12.10.2018 16:40 22,0 C 12,8 C 18,9 C 50 % 1023,1 hPa 0,0 l/m 4,1 km/h (1 Bft) O-NO 60 2 min 0,000 mm 0,0 UV-I 192 W/m 11,1 C 22,0 C 6,4 km/h (2 Bft) 98,00 %
12.10.2018 16:42 21,9 C 12,8 C 19,4 C 50 % 1023,1 hPa 0,0 l/m 4,7 km/h (1 Bft) O-NO 60 2 min 0,000 mm 0,0 UV-I 188 W/m 11,0 C 21,9 C 6,4 km/h (2 Bft) 100,00 %
12.10.2018 16:44 21,9 C 12,8 C 18,9 C 51 % 1023,1 hPa 0,0 l/m 4,9 km/h (1 Bft) O-NO 59 2 min 0,000 mm 0,0 UV-I 183 W/m 11,3 C 21,9 C 6,4 km/h (2 Bft) 98,00 %
12.10.2018 16:46 21,8 C 12,8 C 18,9 C 51 % 1023,2 hPa 0,0 l/m 5,1 km/h (1 Bft) NO 51 2 min 0,000 mm 0,0 UV-I 179 W/m 11,2 C 21,8 C 6,4 km/h (2 Bft) 94,29 %
12.10.2018 16:48 21,8 C 12,8 C 18,9 C 51 % 1023,1 hPa 0,0 l/m 5,0 km/h (1 Bft) NO 51 2 min 0,000 mm 0,0 UV-I 174 W/m 11,2 C 21,8 C 6,4 km/h (2 Bft) 96,23 %
12.10.2018 16:50 21,8 C 12,8 C 18,9 C 51 % 1023,1 hPa 0,0 l/m 5,6 km/h (1 Bft) NO 46 2 min 0,000 mm 0,0 UV-I 169 W/m 11,2 C 21,8 C 8,0 km/h (2 Bft) 100,00 %
12.10.2018 16:52 21,8 C 12,8 C 18,9 C 50 % 1023,2 hPa 0,0 l/m 4,8 km/h (1 Bft) NO 49 2 min 0,000 mm 0,0 UV-I 164 W/m 10,9 C 21,8 C 6,4 km/h (2 Bft) 94,29 %
12.10.2018 16:54 21,7 C 12,8 C 18,9 C 51 % 1023,2 hPa 0,0 l/m 5,6 km/h (1 Bft) NO 44 2 min 0,000 mm 0,0 UV-I 161 W/m 11,1 C 21,7 C 6,4 km/h (2 Bft) 96,23 %
12.10.2018 16:56 21,7 C 12,8 C 18,9 C 52 % 1023,2 hPa 0,0 l/m 4,4 km/h (1 Bft) NO 38 2 min 0,000 mm 0,0 UV-I 157 W/m 11,4 C 21,7 C 6,4 km/h (2 Bft) 98,00 %
12.10.2018 16:58 21,7 C 12,8 C 18,9 C 52 % 1023,2 hPa 0,0 l/m 5,5 km/h (1 Bft) NO 46 2 min 0,000 mm 0,0 UV-I 150 W/m 11,4 C 21,7 C 6,4 km/h (2 Bft) 96,00 %
12.10.2018 17:00 21,7 C 12,8 C 18,9 C 52 % 1023,2 hPa 0,0 l/m 4,6 km/h (1 Bft) NO 38 2 min 0,000 mm 0,0 UV-I 147 W/m 11,4 C 21,7 C 6,4 km/h (2 Bft) 97,14 %
12.10.2018 17:02 21,6 C 12,8 C 18,9 C 52 % 1023,2 hPa 0,0 l/m 4,8 km/h (1 Bft) N-NO 31 2 min 0,178 mm 0,0 UV-I 141 W/m 11,3 C 21,6 C 6,4 km/h (2 Bft) 98,11 %
12.10.2018 17:04 21,6 C 12,8 C 18,9 C 53 % 1023,2 hPa 0,0 l/m 5,0 km/h (1 Bft) NO 39 2 min 0,000 mm 0,0 UV-I 137 W/m 11,6 C 21,6 C 6,4 km/h (2 Bft) 97,73 %
12.10.2018 17:06 21,6 C 12,8 C 18,9 C 52 % 1023,2 hPa 0,0 l/m 4,5 km/h (1 Bft) NO 38 2 min 0,000 mm 0,0 UV-I 133 W/m 11,3 C 21,6 C 4,8 km/h (1 Bft) 97,87 %
12.10.2018 17:08 21,6 C 12,8 C 18,9 C 52 % 1023,2 hPa 0,0 l/m 3,0 km/h (1 Bft) NO 38 2 min 0,000 mm 0,0 UV-I 128 W/m 11,3 C 21,6 C 4,8 km/h (1 Bft) 96,23 %
12.10.2018 17:10 21,6 C 12,8 C 18,3 C 51 % 1023,2 hPa 0,0 l/m 4,0 km/h (1 Bft) NO 38 2 min 0,000 mm 0,0 UV-I 125 W/m 11,0 C 21,6 C 6,4 km/h (2 Bft) 100,00 %
12.10.2018 17:12 21,5 C 12,8 C 18,9 C 52 % 1023,2 hPa 0,0 l/m 4,7 km/h (1 Bft) NO 38 2 min 0,000 mm 0,0 UV-I 120 W/m 11,2 C 21,5 C 6,4 km/h (2 Bft) 100,00 %
12.10.2018 17:14 21,4 C 12,8 C 18,3 C 51 % 1023,2 hPa 0,0 l/m 3,7 km/h (1 Bft) NO 39 2 min 0,000 mm 0,0 UV-I 117 W/m 10,8 C 21,4 C 6,4 km/h (2 Bft) 98,00 %
12.10.2018 17:16 21,4 C 12,8 C 18,3 C 52 % 1023,2 hPa 0,0 l/m 3,6 km/h (1 Bft) NO 35 2 min 0,000 mm 0,0 UV-I 113 W/m 11,1 C 21,4 C 4,8 km/h (1 Bft) 95,74 %
12.10.2018 17:18 21,4 C 12,8 C 18,3 C 53 % 1023,1 hPa 0,0 l/m 4,6 km/h (1 Bft) NO 36 2 min 0,000 mm 0,0 UV-I 108 W/m 11,4 C 21,4 C 6,4 km/h (2 Bft) 97,56 %
12.10.2018 17:20 21,3 C 12,8 C 18,3 C 53 % 1023,1 hPa 0,0 l/m 4,2 km/h (1 Bft) NO 49 2 min 0,000 mm 0,0 UV-I 104 W/m 11,3 C 21,3 C 6,4 km/h (2 Bft) 95,74 %
12.10.2018 17:22 21,3 C 12,8 C 17,8 C 53 % 1023,2 hPa 0,0 l/m 3,2 km/h (1 Bft) NO 48 2 min 0,000 mm 0,0 UV-I 100 W/m 11,3 C 21,3 C 4,8 km/h (1 Bft) 98,21 %
12.10.2018 17:24 21,2 C 12,8 C 17,2 C 54 % 1023,2 hPa 0,0 l/m 3,2 km/h (1 Bft) O-NO 57 2 min 0,000 mm 0,0 UV-I 97 W/m 11,5 C 21,2 C 4,8 km/h (1 Bft) 97,37 %
12.10.2018 17:26 21,1 C 12,8 C 17,2 C 54 % 1023,2 hPa 0,0 l/m 3,3 km/h (1 Bft) O-NO 57 2 min 0,000 mm 0,0 UV-I 93 W/m 11,4 C 21,1 C 4,8 km/h (1 Bft) 97,87 %
12.10.2018 17:28 21,1 C 12,8 C 16,7 C 54 % 1023,2 hPa 0,0 l/m 2,6 km/h (1 Bft) O-NO 57 2 min 0,000 mm 0,0 UV-I 89 W/m 11,4 C 21,1 C 4,8 km/h (1 Bft) 97,87 %
12.10.2018 17:30 21,1 C 12,8 C 16,7 C 53 % 1023,2 hPa 0,0 l/m 2,4 km/h (1 Bft) O-NO 57 2 min 0,000 mm 0,0 UV-I 85 W/m 11,1 C 21,1 C 4,8 km/h (1 Bft) 98,11 %
12.10.2018 17:32 21,1 C 12,8 C 16,7 C 54 % 1023,2 hPa 0,0 l/m 3,2 km/h (1 Bft) O-NO 57 2 min 0,000 mm 0,0 UV-I 82 W/m 11,4 C 21,1 C 4,8 km/h (1 Bft) 95,74 %
12.10.2018 17:34 21,0 C 12,8 C 16,1 C 54 % 1023,2 hPa 0,0 l/m 3,4 km/h (1 Bft) O-NO 57 2 min 0,000 mm 0,0 UV-I 78 W/m 11,3 C 21,0 C 6,4 km/h (2 Bft) 94,00 %
12.10.2018 17:36 20,9 C 12,8 C 16,1 C 54 % 1023,2 hPa 0,0 l/m 3,1 km/h (1 Bft) O-NO 57 2 min 0,000 mm 0,0 UV-I 76 W/m 11,2 C 20,9 C 4,8 km/h (1 Bft) 95,12 %
12.10.2018 17:39 20,8 C 12,8 C 15,6 C 54 % 1023,2 hPa 0,0 l/m 3,5 km/h (1 Bft) O-NO 57 3 min 0,000 mm 0,0 UV-I 71 W/m 11,1 C 20,8 C 6,4 km/h (2 Bft) 95,95 %
12.10.2018 17:40 20,8 C 12,8 C 15,6 C 54 % 1023,2 hPa 0,0 l/m 2,8 km/h (1 Bft) O-NO 57 1 min 0,000 mm 0,0 UV-I 69 W/m 11,1 C 20,8 C 4,8 km/h (1 Bft) 91,30 %
12.10.2018 17:42 20,7 C 12,8 C 15,6 C 55 % 1023,2 hPa 0,0 l/m 2,3 km/h (1 Bft) O-NO 57 2 min 0,000 mm 0,0 UV-I 65 W/m 11,3 C 20,7 C 3,2 km/h (1 Bft) 95,12 %
12.10.2018 17:44 20,7 C 12,8 C 15,0 C 54 % 1023,2 hPa 0,0 l/m 2,3 km/h (1 Bft) O-NO 57 2 min 0,000 mm 0,0 UV-I 62 W/m 11,1 C 20,7 C 4,8 km/h (1 Bft) 96,00 %
12.10.2018 17:46 20,7 C 12,8 C 14,4 C 54 % 1023,2 hPa 0,0 l/m 2,1 km/h (1 Bft) O-NO 57 2 min 0,000 mm 0,0 UV-I 59 W/m 11,1 C 20,7 C 3,2 km/h (1 Bft) 95,12 %
12.10.2018 17:48 20,6 C 12,8 C 14,4 C 55 % 1023,3 hPa 0,0 l/m 2,0 km/h (1 Bft) O-NO 57 2 min 0,000 mm 0,0 UV-I 55 W/m 11,2 C 20,6 C 3,2 km/h (1 Bft) 96,00 %
12.10.2018 17:50 20,4 C 12,8 C 13,9 C 57 % 1023,3 hPa 0,0 l/m 1,7 km/h (1 Bft) O-NO 57 2 min 0,000 mm 0,0 UV-I 52 W/m 11,6 C 20,4 C 3,2 km/h (1 Bft) 96,23 %
12.10.2018 17:52 20,4 C 12,8 C 13,9 C 57 % 1023,3 hPa 0,0 l/m 2,2 km/h (1 Bft) O-NO 57 2 min 0,000 mm 0,0 UV-I 49 W/m 11,6 C 20,4 C 3,2 km/h (1 Bft) 97,44 %
12.10.2018 17:54 20,3 C 12,8 C 13,9 C 57 % 1023,3 hPa 0,0 l/m 2,2 km/h (1 Bft) O-NO 57 2 min 0,000 mm 0,0 UV-I 45 W/m 11,5 C 20,3 C 3,2 km/h (1 Bft) 94,34 %
12.10.2018 17:56 20,1 C 12,8 C 13,3 C 58 % 1023,2 hPa 0,0 l/m 2,2 km/h (1 Bft) O-NO 57 2 min 0,000 mm 0,0 UV-I 43 W/m 11,6 C 20,1 C 3,2 km/h (1 Bft) 98,00 %
12.10.2018 17:58 19,8 C 12,8 C 13,3 C 60 % 1023,3 hPa 0,0 l/m 4,0 km/h (1 Bft) O 94 2 min 0,000 mm 0,0 UV-I 40 W/m 11,8 C 19,8 C 6,4 km/h (2 Bft) 94,74 %
12.10.2018 18:00 19,7 C 12,8 C 13,3 C 59 % 1023,3 hPa 0,0 l/m 4,1 km/h (1 Bft) O 96 2 min 0,000 mm 0,0 UV-I 37 W/m 11,5 C 19,7 C 6,4 km/h (2 Bft) 98,11 %
12.10.2018 18:02 19,6 C 12,8 C 13,3 C 59 % 1023,3 hPa 0,0 l/m 4,2 km/h (1 Bft) O 95 2 min 0,076 mm 0,0 UV-I 34 W/m 11,4 C 19,6 C 4,8 km/h (1 Bft) 98,00 %
12.10.2018 18:04 19,4 C 12,8 C 13,3 C 59 % 1023,3 hPa 0,0 l/m 3,8 km/h (1 Bft) O 95 2 min 0,000 mm 0,0 UV-I 31 W/m 11,2 C 19,4 C 6,4 km/h (2 Bft) 94,74 %
12.10.2018 18:06 19,4 C 12,8 C 13,3 C 60 % 1023,3 hPa 0,0 l/m 4,2 km/h (1 Bft) O 96 2 min 0,000 mm 0,0 UV-I 27 W/m 11,4 C 19,4 C 6,4 km/h (2 Bft) 98,00 %
12.10.2018 18:08 19,3 C 12,8 C 13,3 C 60 % 1023,3 hPa 0,0 l/m 4,5 km/h (1 Bft) O 96 2 min 0,000 mm 0,0 UV-I 26 W/m 11,3 C 19,3 C 6,4 km/h (2 Bft) 93,62 %
12.10.2018 18:10 19,4 C 12,8 C 13,3 C 59 % 1023,3 hPa 0,0 l/m 3,9 km/h (1 Bft) O 96 2 min 0,000 mm 0,0 UV-I 22 W/m 11,2 C 19,4 C 4,8 km/h (1 Bft) 97,37 %
12.10.2018 18:12 19,3 C 12,8 C 13,3 C 58 % 1023,4 hPa 0,0 l/m 4,0 km/h (1 Bft) O 96 0 min 0,000 mm 0,0 UV-I 19 W/m 10,8 C 19,3 C 4,8 km/h (1 Bft) 96,23 %
12.10.2018 18:14 19,4 C 12,8 C 13,3 C 58 % 1023,4 hPa 0,0 l/m 3,7 km/h (1 Bft) O 96 0 min 0,000 mm 0,0 UV-I 15 W/m 10,9 C 19,4 C 4,8 km/h (1 Bft) 94,34 %
12.10.2018 18:16 19,4 C 12,8 C 12,8 C 58 % 1023,3 hPa 0,0 l/m 4,0 km/h (1 Bft) O 96 0 min 0,000 mm 0,0 UV-I 12 W/m 10,9 C 19,4 C 6,4 km/h (2 Bft) 94,74 %
12.10.2018 18:18 19,6 C 12,8 C 12,8 C 57 % 1023,4 hPa 0,0 l/m 4,3 km/h (1 Bft) O-SO 104 0 min 0,000 mm 0,0 UV-I 11 W/m 10,8 C 19,6 C 4,8 km/h (1 Bft) 96,00 %
12.10.2018 18:20 19,6 C 12,8 C 12,8 C 58 % 1023,4 hPa 0,0 l/m 4,3 km/h (1 Bft) O-SO 104 0 min 0,000 mm 0,0 UV-I 11 W/m 11,1 C 19,6 C 6,4 km/h (2 Bft) 96,23 %
12.10.2018 18:22 19,2 C 12,8 C 12,8 C 59 % 1023,4 hPa 0,0 l/m 4,9 km/h (1 Bft) O-SO 104 0 min 0,000 mm 0,0 UV-I 9 W/m 11,0 C 19,2 C 6,4 km/h (2 Bft) 93,62 %
12.10.2018 18:24 19,1 C 12,8 C 12,8 C 59 % 1023,4 hPa 0,0 l/m 4,7 km/h (1 Bft) O-SO 104 0 min 0,000 mm 0,0 UV-I 8 W/m 10,9 C 19,1 C 6,4 km/h (2 Bft) 95,74 %
12.10.2018 18:26 19,2 C 12,8 C 12,8 C 59 % 1023,3 hPa 0,0 l/m 4,0 km/h (1 Bft) O-SO 118 0 min 0,000 mm 0,0 UV-I 7 W/m 11,0 C 19,2 C 6,4 km/h (2 Bft) 94,44 %
12.10.2018 18:28 19,2 C 12,8 C 12,8 C 59 % 1023,4 hPa 0,0 l/m 3,7 km/h (1 Bft) O-SO 118 0 min 0,000 mm 0,0 UV-I 7 W/m 11,0 C 19,2 C 6,4 km/h (2 Bft) 96,23 %
12.10.2018 18:30 19,3 C 12,8 C 12,8 C 58 % 1023,4 hPa 0,0 l/m 3,2 km/h (1 Bft) O-SO 118 0 min 0,000 mm 0,0 UV-I 5 W/m 10,8 C 19,3 C 4,8 km/h (1 Bft) 94,23 %
12.10.2018 18:32 19,3 C 12,8 C 12,2 C 58 % 1023,4 hPa 0,0 l/m 2,9 km/h (1 Bft) O-SO 118 0 min 0,000 mm 0,0 UV-I 5 W/m 10,8 C 19,3 C 4,8 km/h (1 Bft) 94,87 %
12.10.2018 18:34 19,1 C 12,8 C 12,2 C 58 % 1023,4 hPa 0,0 l/m 2,7 km/h (1 Bft) O-SO 117 0 min 0,000 mm 0,0 UV-I 5 W/m 10,6 C 19,1 C 4,8 km/h (1 Bft) 94,64 %
12.10.2018 18:36 18,7 C 12,8 C 12,2 C 60 % 1023,4 hPa 0,0 l/m 3,9 km/h (1 Bft) O-SO 117 0 min 0,000 mm 0,0 UV-I 5 W/m 10,8 C 18,7 C 4,8 km/h (1 Bft) 100,00 %
12.10.2018 18:38 18,2 C 12,8 C 12,2 C 61 % 1023,4 hPa 0,0 l/m 4,8 km/h (1 Bft) O 101 0 min 0,000 mm 0,0 UV-I 0 W/m 10,6 C 18,2 C 9,7 km/h (2 Bft) 96,00 %
12.10.2018 18:40 18,0 C 12,8 C 12,2 C 61 % 1023,4 hPa 0,0 l/m 5,4 km/h (1 Bft) O-SO 104 0 min 0,000 mm 0,0 UV-I 0 W/m 10,4 C 18,0 C 6,4 km/h (2 Bft) 96,00 %
12.10.2018 18:42 18,2 C 12,8 C 12,2 C 61 % 1023,4 hPa 0,0 l/m 4,9 km/h (1 Bft) O-SO 112 0 min 0,000 mm 0,0 UV-I 0 W/m 10,6 C 18,2 C 6,4 km/h (2 Bft) 97,56 %
12.10.2018 18:44 18,4 C 12,8 C 12,2 C 60 % 1023,4 hPa 0,0 l/m 5,5 km/h (1 Bft) O 101 0 min 0,000 mm 0,0 UV-I 0 W/m 10,5 C 18,4 C 9,7 km/h (2 Bft) 100,00 %
12.10.2018 18:46 18,7 C 12,8 C 12,2 C 59 % 1023,4 hPa 0,0 l/m 5,4 km/h (1 Bft) O-SO 103 0 min 0,000 mm 0,0 UV-I 0 W/m 10,5 C 18,7 C 9,7 km/h (2 Bft) 100,00 %
12.10.2018 18:48 18,8 C 12,8 C 12,2 C 59 % 1023,4 hPa 0,0 l/m 5,5 km/h (1 Bft) O-SO 113 0 min 0,000 mm 0,0 UV-I 0 W/m 10,6 C 18,8 C 9,7 km/h (2 Bft) 100,00 %
12.10.2018 18:50 19,0 C 12,8 C 12,8 C 58 % 1023,4 hPa 0,0 l/m 5,8 km/h (2 Bft) O 101 0 min 0,000 mm 0,0 UV-I 0 W/m 10,5 C 19,0 C 9,7 km/h (2 Bft) 98,11 %
12.10.2018 18:52 19,2 C 12,8 C 12,8 C 58 % 1023,4 hPa 0,0 l/m 3,9 km/h (1 Bft) O 101 0 min 0,000 mm 0,0 UV-I 0 W/m 10,7 C 19,2 C 4,8 km/h (1 Bft) 100,00 %
12.10.2018 18:54 19,2 C 12,8 C 12,8 C 57 % 1023,5 hPa 0,0 l/m 4,5 km/h (1 Bft) O-SO 105 0 min 0,000 mm 0,0 UV-I 0 W/m 10,5 C 19,2 C 6,4 km/h (2 Bft) 100,00 %
12.10.2018 18:56 19,3 C 12,8 C 13,3 C 56 % 1023,5 hPa 0,0 l/m 5,9 km/h (2 Bft) O-SO 105 0 min 0,000 mm 0,0 UV-I 0 W/m 10,3 C 19,3 C 9,7 km/h (2 Bft) 98,11 %
12.10.2018 18:58 19,4 C 12,8 C 13,3 C 55 % 1023,5 hPa 0,0 l/m 5,0 km/h (1 Bft) O-SO 106 0 min 0,000 mm 0,0 UV-I 0 W/m 10,1 C 19,4 C 9,7 km/h (2 Bft) 100,00 %
12.10.2018 19:00 19,4 C 12,8 C 12,8 C 56 % 1023,5 hPa 0,0 l/m 4,0 km/h (1 Bft) O-SO 106 0 min 0,000 mm 0,0 UV-I 0 W/m 10,4 C 19,4 C 4,8 km/h (1 Bft) 100,00 %
12.10.2018 19:02 19,3 C 12,8 C 12,8 C 56 % 1023,5 hPa 0,0 l/m 2,4 km/h (1 Bft) O-SO 106 0 min 0,051 mm 0,0 UV-I 0 W/m 10,3 C 19,3 C 4,8 km/h (1 Bft) 100,00 %
12.10.2018 19:04 19,2 C 12,8 C 12,2 C 56 % 1023,6 hPa 0,0 l/m 1,5 km/h (1 Bft) O-SO 106 0 min 0,000 mm 0,0 UV-I 0 W/m 10,2 C 19,2 C 3,2 km/h (1 Bft) 100,00 %
12.10.2018 19:06 18,7 C 12,8 C 12,2 C 60 % 1023,6 hPa 0,0 l/m 1,4 km/h (1 Bft) O-SO 106 0 min 0,000 mm 0,0 UV-I 0 W/m 10,8 C 18,7 C 3,2 km/h (1 Bft) 100,00 %
12.10.2018 19:08 17,8 C 12,8 C 11,7 C 62 % 1023,6 hPa 0,0 l/m 0,0 km/h (0 Bft) O-SO 106 0 min 0,000 mm 0,0 UV-I 0 W/m 10,4 C 17,8 C 0,0 km/h (0 Bft) 100,00 %
12.10.2018 19:10 17,1 C 12,8 C 11,7 C 65 % 1023,7 hPa 0,0 l/m 0,0 km/h (0 Bft) O-SO 106 0 min 0,000 mm 0,0 UV-I 0 W/m 10,5 C 17,1 C 0,0 km/h (0 Bft) 100,00 %
12.10.2018 19:12 16,8 C 12,8 C 11,7 C 66 % 1023,7 hPa 0,0 l/m 0,0 km/h (0 Bft) O-SO 106 0 min 0,000 mm 0,0 UV-I 0 W/m 10,4 C 16,8 C 0,0 km/h (0 Bft) 100,00 %
12.10.2018 19:14 16,7 C 12,8 C 11,1 C 68 % 1023,7 hPa 0,0 l/m 0,0 km/h (0 Bft) O-SO 106 0 min 0,000 mm 0,0 UV-I 0 W/m 10,8 C 16,7 C 0,0 km/h (0 Bft) 98,00 %
12.10.2018 19:16 16,5 C 12,8 C 11,1 C 68 % 1023,8 hPa 0,0 l/m 0,0 km/h (0 Bft) O-SO 106 0 min 0,000 mm 0,0 UV-I 0 W/m 10,6 C 16,5 C 0,0 km/h (0 Bft) 97,37 %
12.10.2018 19:18 16,4 C 12,8 C 11,1 C 69 % 1023,8 hPa 0,0 l/m 0,0 km/h (0 Bft) O-SO 106 0 min 0,000 mm 0,0 UV-I 0 W/m 10,7 C 16,4 C 0,0 km/h (0 Bft) 100,00 %
12.10.2018 19:20 16,2 C 12,8 C 11,1 C 69 % 1023,8 hPa 0,0 l/m 0,0 km/h (0 Bft) O-SO 106 0 min 0,000 mm 0,0 UV-I 0 W/m 10,5 C 16,2 C 0,0 km/h (0 Bft) 100,00 %
12.10.2018 19:22 15,9 C 12,8 C 11,1 C 71 % 1023,8 hPa 0,0 l/m 0,0 km/h (0 Bft) O-SO 106 0 min 0,000 mm 0,0 UV-I 0 W/m 10,6 C 15,9 C 0,0 km/h (0 Bft) 95,74 %
12.10.2018 19:24 15,7 C 12,8 C 10,6 C 72 % 1023,8 hPa 0,0 l/m 0,0 km/h (0 Bft) O-SO 106 0 min 0,000 mm 0,0 UV-I 0 W/m 10,7 C 15,7 C 0,0 km/h (0 Bft) 97,87 %
12.10.2018 19:26 15,5 C 12,8 C 10,6 C 72 % 1023,8 hPa 0,0 l/m 0,0 km/h (0 Bft) O-SO 106 0 min 0,000 mm 0,0 UV-I 0 W/m 10,5 C 15,5 C 0,0 km/h (0 Bft) 91,49 %
12.10.2018 19:28 15,3 C 12,8 C 10,6 C 73 % 1023,8 hPa 0,0 l/m 0,0 km/h (0 Bft) O-SO 106 0 min 0,000 mm 0,0 UV-I 0 W/m 10,5 C 15,3 C 0,0 km/h (0 Bft) 97,87 %
12.10.2018 19:30 15,3 C 12,8 C 10,6 C 73 % 1023,8 hPa 0,0 l/m 0,0 km/h (0 Bft) O-SO 106 0 min 0,000 mm 0,0 UV-I 0 W/m 10,5 C 15,3 C 0,0 km/h (0 Bft) 98,00 %
12.10.2018 19:32 15,3 C 12,8 C 10,0 C 73 % 1023,8 hPa 0,0 l/m 0,0 km/h (0 Bft) O-SO 106 0 min 0,000 mm 0,0 UV-I 0 W/m 10,5 C 15,3 C 0,0 km/h (0 Bft) 98,00 %
12.10.2018 19:34 15,5 C 12,8 C 10,0 C 72 % 1023,9 hPa 0,0 l/m 0,0 km/h (0 Bft) O-SO 106 0 min 0,000 mm 0,0 UV-I 0 W/m 10,5 C 15,5 C 1,6 km/h (1 Bft) 97,56 %
12.10.2018 19:36 15,8 C 12,8 C 10,0 C 70 % 1023,8 hPa 0,0 l/m 0,0 km/h (0 Bft) O-SO 106 0 min 0,000 mm 0,0 UV-I 0 W/m 10,3 C 15,8 C 0,0 km/h (0 Bft) 95,74 %
12.10.2018 19:38 16,2 C 12,8 C 10,0 C 69 % 1023,8 hPa 0,0 l/m 0,0 km/h (0 Bft) O-SO 106 0 min 0,000 mm 0,0 UV-I 0 W/m 10,5 C 16,2 C 0,0 km/h (0 Bft) 96,00 %
12.10.2018 19:40 16,4 C 12,8 C 10,0 C 68 % 1023,8 hPa 0,0 l/m 0,0 km/h (0 Bft) O-SO 106 0 min 0,000 mm 0,0 UV-I 0 W/m 10,5 C 16,4 C 0,0 km/h (0 Bft) 94,87 %
12.10.2018 19:42 16,4 C 12,8 C 10,0 C 67 % 1023,8 hPa 0,0 l/m 1,8 km/h (1 Bft) O-SO 106 0 min 0,000 mm 0,0 UV-I 0 W/m 10,3 C 16,4 C 3,2 km/h (1 Bft) 96,43 %
12.10.2018 19:44 16,6 C 12,8 C 10,0 C 66 % 1023,8 hPa 0,0 l/m 3,0 km/h (1 Bft) O-SO 106 0 min 0,000 mm 0,0 UV-I 0 W/m 10,2 C 16,6 C 4,8 km/h (1 Bft) 95,74 %
12.10.2018 19:46 17,0 C 12,8 C 10,0 C 65 % 1023,9 hPa 0,0 l/m 3,0 km/h (1 Bft) O-SO 106 0 min 0,000 mm 0,0 UV-I 0 W/m 10,4 C 17,0 C 4,8 km/h (1 Bft) 94,00 %
12.10.2018 19:48 17,2 C 12,8 C 10,6 C 64 % 1023,8 hPa 0,0 l/m 3,2 km/h (1 Bft) O-SO 106 0 min 0,000 mm 0,0 UV-I 0 W/m 10,3 C 17,2 C 4,8 km/h (1 Bft) 93,62 %
12.10.2018 19:50 17,3 C 12,8 C 10,0 C 63 % 1023,8 hPa 0,0 l/m 4,4 km/h (1 Bft) O-SO 106 0 min 0,000 mm 0,0 UV-I 0 W/m 10,2 C 17,3 C 4,8 km/h (1 Bft) 93,62 %
12.10.2018 19:52 17,4 C 12,8 C 10,0 C 62 % 1023,7 hPa 0,0 l/m 4,5 km/h (1 Bft) O-SO 106 0 min 0,000 mm 0,0 UV-I 0 W/m 10,0 C 17,4 C 6,4 km/h (2 Bft) 97,37 %
12.10.2018 19:54 17,7 C 12,8 C 10,0 C 62 % 1023,8 hPa 0,0 l/m 3,8 km/h (1 Bft) O-SO 106 0 min 0,000 mm 0,0 UV-I 0 W/m 10,3 C 17,7 C 4,8 km/h (1 Bft) 92,00 %
12.10.2018 19:56 17,7 C 12,8 C 10,6 C 61 % 1023,7 hPa 0,0 l/m 3,9 km/h (1 Bft) O-SO 106 0 min 0,000 mm 0,0 UV-I 0 W/m 10,1 C 17,7 C 4,8 km/h (1 Bft) 95,45 %
12.10.2018 19:58 17,7 C 12,8 C 10,6 C 61 % 1023,7 hPa 0,0 l/m 4,5 km/h (1 Bft) O-SO 106 0 min 0,000 mm 0,0 UV-I 0 W/m 10,1 C 17,7 C 6,4 km/h (2 Bft) 96,00 %
12.10.2018 20:00 17,8 C 12,8 C 10,6 C 61 % 1023,7 hPa 0,0 l/m 4,5 km/h (1 Bft) O-SO 105 0 min 0,000 mm 0,0 UV-I 0 W/m 10,2 C 17,8 C 6,4 km/h (2 Bft) 100,00 %
12.10.2018 20:02 17,9 C 12,8 C 10,6 C 60 % 1023,7 hPa 0,0 l/m 3,4 km/h (1 Bft) O-SO 106 0 min 0,025 mm 0,0 UV-I 0 W/m 10,0 C 17,9 C 4,8 km/h (1 Bft) 100,00 %
12.10.2018 20:04 17,9 C 12,8 C 11,1 C 60 % 1023,7 hPa 0,0 l/m 2,8 km/h (1 Bft) O-SO 106 0 min 0,000 mm 0,0 UV-I 0 W/m 10,0 C 17,9 C 4,8 km/h (1 Bft) 98,00 %
12.10.2018 20:06 18,0 C 12,8 C 11,1 C 60 % 1023,7 hPa 0,0 l/m 4,9 km/h (1 Bft) O-SO 119 0 min 0,000 mm 0,0 UV-I 0 W/m 10,1 C 18,0 C 9,7 km/h (2 Bft) 100,00 %
12.10.2018 20:08 18,1 C 12,8 C 12,2 C 60 % 1023,6 hPa 0,0 l/m 4,6 km/h (1 Bft) O 93 0 min 0,000 mm 0,0 UV-I 0 W/m 10,2 C 18,1 C 6,4 km/h (2 Bft) 100,00 %
12.10.2018 20:10 18,1 C 12,8 C 12,2 C 60 % 1023,6 hPa 0,0 l/m 4,2 km/h (1 Bft) O 98 0 min 0,000 mm 0,0 UV-I 0 W/m 10,2 C 18,1 C 6,4 km/h (2 Bft) 100,00 %
12.10.2018 20:12 18,1 C 12,8 C 12,2 C 60 % 1023,7 hPa 0,0 l/m 3,8 km/h (1 Bft) O-SO 105 0 min 0,000 mm 0,0 UV-I 0 W/m 10,2 C 18,1 C 6,4 km/h (2 Bft) 98,00 %
12.10.2018 20:14 17,9 C 12,8 C 12,8 C 60 % 1023,7 hPa 0,0 l/m 3,5 km/h (1 Bft) O-SO 105 0 min 0,000 mm 0,0 UV-I 0 W/m 10,0 C 17,9 C 4,8 km/h (1 Bft) 100,00 %
12.10.2018 20:16 17,7 C 12,8 C 12,2 C 61 % 1023,7 hPa 0,0 l/m 3,6 km/h (1 Bft) O-SO 105 0 min 0,000 mm 0,0 UV-I 0 W/m 10,1 C 17,7 C 4,8 km/h (1 Bft) 98,11 %
12.10.2018 20:18 17,6 C 12,8 C 11,7 C 61 % 1023,7 hPa 0,0 l/m 2,8 km/h (1 Bft) O-SO 105 0 min 0,000 mm 0,0 UV-I 0 W/m 10,0 C 17,6 C 4,8 km/h (1 Bft) 97,87 %
12.10.2018 20:20 17,3 C 12,8 C 11,7 C 62 % 1023,7 hPa 0,0 l/m 2,9 km/h (1 Bft) O-SO 105 0 min 0,000 mm 0,0 UV-I 0 W/m 9,9 C 17,3 C 4,8 km/h (1 Bft) 97,62 %
12.10.2018 20:22 17,2 C 12,8 C 11,1 C 63 % 1023,7 hPa 0,0 l/m 3,6 km/h (1 Bft) O-SO 105 0 min 0,000 mm 0,0 UV-I 0 W/m 10,1 C 17,2 C 4,8 km/h (1 Bft) 100,00 %
12.10.2018 20:24 17,2 C 12,8 C 11,1 C 63 % 1023,8 hPa 0,0 l/m 3,9 km/h (1 Bft) O-SO 105 0 min 0,000 mm 0,0 UV-I 0 W/m 10,1 C 17,2 C 4,8 km/h (1 Bft) 100,00 %
12.10.2018 20:26 17,2 C 12,8 C 11,1 C 63 % 1023,7 hPa 0,0 l/m 4,6 km/h (1 Bft) O-SO 105 0 min 0,000 mm 0,0 UV-I 0 W/m 10,1 C 17,2 C 6,4 km/h (2 Bft) 100,00 %
12.10.2018 20:28 17,2 C 12,8 C 11,7 C 63 % 1023,8 hPa 0,0 l/m 4,6 km/h (1 Bft) O-SO 105 0 min 0,000 mm 0,0 UV-I 0 W/m 10,1 C 17,2 C 6,4 km/h (2 Bft) 100,00 %
12.10.2018 20:30 17,2 C 12,8 C 11,7 C 63 % 1023,7 hPa 0,0 l/m 4,7 km/h (1 Bft) O-SO 105 0 min 0,000 mm 0,0 UV-I 0 W/m 10,1 C 17,2 C 6,4 km/h (2 Bft) 100,00 %
12.10.2018 20:32 17,2 C 12,8 C 11,7 C 63 % 1023,7 hPa 0,0 l/m 4,6 km/h (1 Bft) O-SO 111 0 min 0,000 mm 0,0 UV-I 0 W/m 10,1 C 17,2 C 6,4 km/h (2 Bft) 100,00 %
12.10.2018 20:34 17,3 C 12,8 C 11,7 C 63 % 1023,8 hPa 0,0 l/m 5,3 km/h (1 Bft) O 92 0 min 0,000 mm 0,0 UV-I 0 W/m 10,2 C 17,3 C 9,7 km/h (2 Bft) 100,00 %
12.10.2018 20:36 17,3 C 12,8 C 11,7 C 63 % 1023,8 hPa 0,0 l/m 6,2 km/h (2 Bft) O-SO 105 0 min 0,000 mm 0,0 UV-I 0 W/m 10,2 C 17,3 C 9,7 km/h (2 Bft) 100,00 %
12.10.2018 20:38 17,4 C 12,8 C 12,2 C 63 % 1023,8 hPa 0,0 l/m 6,7 km/h (2 Bft) O-SO 118 0 min 0,000 mm 0,0 UV-I 0 W/m 10,3 C 17,3 C 12,9 km/h (3 Bft) 100,00 %
12.10.2018 20:40 17,4 C 12,8 C 12,8 C 63 % 1023,8 hPa 0,0 l/m 5,7 km/h (1 Bft) O 101 0 min 0,000 mm 0,0 UV-I 0 W/m 10,3 C 17,4 C 11,3 km/h (2 Bft) 100,00 %
12.10.2018 20:42 17,5 C 12,8 C 12,8 C 62 % 1023,8 hPa 0,0 l/m 5,9 km/h (2 Bft) O 96 0 min 0,000 mm 0,0 UV-I 0 W/m 10,1 C 17,5 C 9,7 km/h (2 Bft) 100,00 %
12.10.2018 20:44 17,4 C 12,8 C 12,8 C 62 % 1023,8 hPa 0,0 l/m 5,0 km/h (1 Bft) O 100 0 min 0,000 mm 0,0 UV-I 0 W/m 10,0 C 17,4 C 9,7 km/h (2 Bft) 100,00 %
12.10.2018 20:46 17,4 C 12,8 C 12,8 C 63 % 1023,8 hPa 0,0 l/m 3,9 km/h (1 Bft) O 100 0 min 0,000 mm 0,0 UV-I 0 W/m 10,3 C 17,4 C 6,4 km/h (2 Bft) 100,00 %
12.10.2018 20:48 17,1 C 12,8 C 12,2 C 63 % 1023,8 hPa 0,0 l/m 3,3 km/h (1 Bft) O 100 0 min 0,000 mm 0,0 UV-I 0 W/m 10,0 C 17,1 C 4,8 km/h (1 Bft) 100,00 %
12.10.2018 20:50 16,8 C 12,8 C 12,2 C 64 % 1023,8 hPa 0,0 l/m 4,0 km/h (1 Bft) O 100 0 min 0,000 mm 0,0 UV-I 0 W/m 10,0 C 16,8 C 4,8 km/h (1 Bft) 98,00 %
12.10.2018 20:52 16,4 C 12,8 C 11,7 C 66 % 1023,8 hPa 0,0 l/m 4,5 km/h (1 Bft) O 99 0 min 0,000 mm 0,0 UV-I 0 W/m 10,0 C 16,4 C 6,4 km/h (2 Bft) 100,00 %
12.10.2018 20:54 16,1 C 12,8 C 11,7 C 67 % 1023,8 hPa 0,0 l/m 5,1 km/h (1 Bft) O 82 0 min 0,000 mm 0,0 UV-I 0 W/m 10,0 C 16,1 C 6,4 km/h (2 Bft) 100,00 %
12.10.2018 20:56 16,0 C 12,8 C 11,7 C 68 % 1023,8 hPa 0,0 l/m 4,5 km/h (1 Bft) O 85 0 min 0,000 mm 0,0 UV-I 0 W/m 10,1 C 16,0 C 6,4 km/h (2 Bft) 98,08 %
12.10.2018 20:58 16,0 C 12,8 C 11,1 C 68 % 1023,8 hPa 0,0 l/m 3,5 km/h (1 Bft) O 85 0 min 0,000 mm 0,0 UV-I 0 W/m 10,1 C 16,0 C 4,8 km/h (1 Bft) 100,00 %
12.10.2018 21:00 16,0 C 12,8 C 11,1 C 68 % 1023,8 hPa 0,0 l/m 3,6 km/h (1 Bft) O 85 0 min 0,000 mm 0,0 UV-I 0 W/m 10,1 C 16,0 C 4,8 km/h (1 Bft) 97,87 %
12.10.2018 21:02 16,1 C 12,8 C 10,6 C 68 % 1023,8 hPa 0,0 l/m 3,7 km/h (1 Bft) O 85 0 min 0,025 mm 0,0 UV-I 0 W/m 10,2 C 16,1 C 4,8 km/h (1 Bft) 97,73 %
12.10.2018 21:04 16,1 C 12,8 C 10,6 C 68 % 1023,8 hPa 0,0 l/m 3,7 km/h (1 Bft) O 85 0 min 0,000 mm 0,0 UV-I 0 W/m 10,2 C 16,1 C 4,8 km/h (1 Bft) 98,00 %
12.10.2018 21:06 16,0 C 12,8 C 10,6 C 68 % 1023,8 hPa 0,0 l/m 3,2 km/h (1 Bft) O 85 0 min 0,000 mm 0,0 UV-I 0 W/m 10,1 C 16,0 C 4,8 km/h (1 Bft) 95,74 %
12.10.2018 21:08 15,9 C 12,8 C 10,0 C 69 % 1023,8 hPa 0,0 l/m 5,0 km/h (1 Bft) O 85 0 min 0,000 mm 0,0 UV-I 0 W/m 10,2 C 15,9 C 6,4 km/h (2 Bft) 97,56 %
12.10.2018 21:10 15,9 C 12,8 C 10,0 C 69 % 1023,8 hPa 0,0 l/m 5,3 km/h (1 Bft) O 94 0 min 0,000 mm 0,0 UV-I 0 W/m 10,2 C 15,9 C 6,4 km/h (2 Bft) 91,43 %
12.10.2018 21:12 15,9 C 12,8 C 10,6 C 69 % 1023,8 hPa 0,0 l/m 5,6 km/h (1 Bft) O-SO 104 0 min 0,000 mm 0,0 UV-I 0 W/m 10,2 C 15,9 C 6,4 km/h (2 Bft) 98,46 %
12.10.2018 21:14 15,8 C 12,8 C 10,6 C 69 % 1023,8 hPa 0,0 l/m 5,8 km/h (2 Bft) O 96 0 min 0,000 mm 0,0 UV-I 0 W/m 10,1 C 15,8 C 6,4 km/h (2 Bft) 96,15 %
12.10.2018 21:16 15,8 C 12,8 C 10,6 C 69 % 1023,8 hPa 0,0 l/m 5,7 km/h (1 Bft) O 83 0 min 0,000 mm 0,0 UV-I 0 W/m 10,1 C 15,8 C 6,4 km/h (2 Bft) 95,59 %
12.10.2018 21:18 16,0 C 12,8 C 11,1 C 69 % 1023,8 hPa 0,0 l/m 5,2 km/h (1 Bft) O 94 0 min 0,000 mm 0,0 UV-I 0 W/m 10,3 C 16,0 C 8,0 km/h (2 Bft) 95,74 %
12.10.2018 21:20 16,1 C 12,8 C 11,7 C 68 % 1023,8 hPa 0,0 l/m 6,1 km/h (2 Bft) O 80 0 min 0,000 mm 0,0 UV-I 0 W/m 10,2 C 16,1 C 9,7 km/h (2 Bft) 97,37 %
12.10.2018 21:22 16,1 C 12,8 C 11,7 C 68 % 1023,8 hPa 0,0 l/m 5,2 km/h (1 Bft) O-NO 78 0 min 0,000 mm 0,0 UV-I 0 W/m 10,2 C 16,1 C 9,7 km/h (2 Bft) 98,00 %
12.10.2018 21:24 16,2 C 12,8 C 11,7 C 68 % 1023,9 hPa 0,0 l/m 5,2 km/h (1 Bft) O 98 0 min 0,000 mm 0,0 UV-I 0 W/m 10,3 C 16,2 C 8,0 km/h (2 Bft) 100,00 %
12.10.2018 21:26 16,2 C 12,8 C 12,2 C 68 % 1023,9 hPa 0,0 l/m 5,4 km/h (1 Bft) O-SO 102 0 min 0,000 mm 0,0 UV-I 0 W/m 10,3 C 16,2 C 8,0 km/h (2 Bft) 100,00 %
12.10.2018 21:28 16,1 C 12,8 C 12,2 C 68 % 1023,9 hPa 0,0 l/m 5,9 km/h (2 Bft) O 92 0 min 0,000 mm 0,0 UV-I 0 W/m 10,2 C 16,1 C 9,7 km/h (2 Bft) 97,37 %
12.10.2018 21:30 16,1 C 12,8 C 12,2 C 68 % 1023,9 hPa 0,0 l/m 5,6 km/h (1 Bft) O 97 0 min 0,000 mm 0,0 UV-I 0 W/m 10,2 C 16,1 C 9,7 km/h (2 Bft) 95,74 %
12.10.2018 21:32 15,9 C 12,8 C 12,2 C 68 % 1024,0 hPa 0,0 l/m 5,1 km/h (1 Bft) O-SO 102 0 min 0,000 mm 0,0 UV-I 0 W/m 10,0 C 15,9 C 6,4 km/h (2 Bft) 97,62 %
12.10.2018 21:34 15,9 C 12,8 C 12,8 C 69 % 1024,0 hPa 0,0 l/m 4,7 km/h (1 Bft) O-NO 70 0 min 0,000 mm 0,0 UV-I 0 W/m 10,2 C 15,9 C 6,4 km/h (2 Bft) 98,11 %
12.10.2018 21:36 15,9 C 12,8 C 12,8 C 69 % 1024,0 hPa 0,0 l/m 5,4 km/h (1 Bft) O 79 0 min 0,000 mm 0,0 UV-I 0 W/m 10,2 C 15,9 C 6,4 km/h (2 Bft) 96,15 %
12.10.2018 21:38 15,8 C 12,8 C 12,8 C 69 % 1024,0 hPa 0,0 l/m 5,6 km/h (1 Bft) O 92 0 min 0,000 mm 0,0 UV-I 0 W/m 10,1 C 15,8 C 9,7 km/h (2 Bft) 95,56 %
12.10.2018 21:40 15,8 C 12,8 C 12,8 C 69 % 1024,0 hPa 0,0 l/m 6,3 km/h (2 Bft) O-SO 102 0 min 0,000 mm 0,0 UV-I 0 W/m 10,1 C 15,8 C 9,7 km/h (2 Bft) 97,37 %
12.10.2018 21:42 15,7 C 12,8 C 12,8 C 69 % 1024,0 hPa 0,0 l/m 5,6 km/h (1 Bft) O 90 0 min 0,000 mm 0,0 UV-I 0 W/m 10,0 C 15,7 C 9,7 km/h (2 Bft) 98,36 %
12.10.2018 21:44 15,6 C 12,8 C 12,8 C 70 % 1024,0 hPa 0,0 l/m 5,9 km/h (2 Bft) O 96 0 min 0,000 mm 0,0 UV-I 0 W/m 10,1 C 15,6 C 11,3 km/h (2 Bft) 97,73 %
12.10.2018 21:46 15,4 C 12,8 C 12,8 C 71 % 1024,0 hPa 0,0 l/m 5,9 km/h (2 Bft) O 93 0 min 0,000 mm 0,0 UV-I 0 W/m 10,2 C 15,4 C 9,7 km/h (2 Bft) 94,00 %
12.10.2018 21:48 15,4 C 12,8 C 12,2 C 71 % 1024,0 hPa 0,0 l/m 6,3 km/h (2 Bft) O 88 0 min 0,000 mm 0,0 UV-I 0 W/m 10,2 C 15,4 C 11,3 km/h (2 Bft) 94,74 %
12.10.2018 21:50 15,4 C 12,8 C 12,2 C 71 % 1024,0 hPa 0,0 l/m 4,3 km/h (1 Bft) O 81 0 min 0,000 mm 0,0 UV-I 0 W/m 10,2 C 15,4 C 6,4 km/h (2 Bft) 93,62 %
12.10.2018 21:52 15,4 C 12,8 C 12,2 C 71 % 1024,0 hPa 0,0 l/m 5,1 km/h (1 Bft) O-NO 71 0 min 0,000 mm 0,0 UV-I 0 W/m 10,2 C 15,4 C 9,7 km/h (2 Bft) 95,74 %
12.10.2018 21:54 15,4 C 12,8 C 12,2 C 71 % 1024,0 hPa 0,0 l/m 5,7 km/h (1 Bft) O 89 0 min 0,000 mm 0,0 UV-I 0 W/m 10,2 C 15,4 C 8,0 km/h (2 Bft) 94,34 %
12.10.2018 21:56 15,4 C 12,8 C 12,2 C 71 % 1024,1 hPa 0,0 l/m 5,6 km/h (1 Bft) O 80 0 min 0,000 mm 0,0 UV-I 0 W/m 10,2 C 15,4 C 8,0 km/h (2 Bft) 95,12 %
12.10.2018 21:58 15,4 C 12,8 C 12,2 C 71 % 1024,1 hPa 0,0 l/m 5,4 km/h (1 Bft) O-NO 68 0 min 0,000 mm 0,0 UV-I 0 W/m 10,2 C 15,4 C 6,4 km/h (2 Bft) 97,56 %
12.10.2018 22:00 15,3 C 12,8 C 12,2 C 72 % 1024,2 hPa 0,0 l/m 4,8 km/h (1 Bft) O-NO 76 0 min 0,000 mm 0,0 UV-I 0 W/m 10,3 C 15,3 C 6,4 km/h (2 Bft) 98,00 %
12.10.2018 22:02 15,2 C 12,8 C 11,7 C 72 % 1024,2 hPa 0,0 l/m 3,7 km/h (1 Bft) O-NO 76 0 min 0,026 mm 0,0 UV-I 0 W/m 10,2 C 15,2 C 6,4 km/h (2 Bft) 96,23 %
12.10.2018 22:04 15,2 C 12,8 C 11,7 C 72 % 1024,2 hPa 0,0 l/m 3,4 km/h (1 Bft) O-NO 76 0 min 0,000 mm 0,0 UV-I 0 W/m 10,2 C 15,2 C 4,8 km/h (1 Bft) 97,37 %
12.10.2018 22:06 15,1 C 12,8 C 11,1 C 73 % 1024,2 hPa 0,0 l/m 2,2 km/h (1 Bft) O-NO 76 0 min 0,000 mm 0,0 UV-I 0 W/m 10,3 C 15,1 C 4,8 km/h (1 Bft) 94,34 %
12.10.2018 22:08 14,9 C 12,8 C 10,6 C 73 % 1024,3 hPa 0,0 l/m 3,1 km/h (1 Bft) O-NO 76 0 min 0,000 mm 0,0 UV-I 0 W/m 10,1 C 14,9 C 4,8 km/h (1 Bft) 96,00 %
12.10.2018 22:10 14,8 C 12,8 C 10,6 C 74 % 1024,3 hPa 0,0 l/m 3,8 km/h (1 Bft) O-NO 76 0 min 0,000 mm 0,0 UV-I 0 W/m 10,2 C 14,8 C 4,8 km/h (1 Bft) 97,87 %
12.10.2018 22:12 14,8 C 12,8 C 10,6 C 74 % 1024,3 hPa 0,0 l/m 3,1 km/h (1 Bft) O-NO 76 0 min 0,000 mm 0,0 UV-I 0 W/m 10,2 C 14,8 C 4,8 km/h (1 Bft) 97,44 %
12.10.2018 22:14 14,8 C 12,8 C 10,0 C 74 % 1024,4 hPa 0,0 l/m 2,9 km/h (1 Bft) O-NO 76 0 min 0,000 mm 0,0 UV-I 0 W/m 10,2 C 14,8 C 4,8 km/h (1 Bft) 100,00 %
12.10.2018 22:16 14,8 C 12,8 C 10,0 C 74 % 1024,4 hPa 0,0 l/m 2,7 km/h (1 Bft) O-NO 76 0 min 0,000 mm 0,0 UV-I 0 W/m 10,2 C 14,8 C 3,2 km/h (1 Bft) 96,92 %
12.10.2018 22:18 14,8 C 12,8 C 9,4 C 74 % 1024,4 hPa 0,0 l/m 2,7 km/h (1 Bft) O-NO 76 0 min 0,000 mm 0,0 UV-I 0 W/m 10,2 C 14,8 C 3,2 km/h (1 Bft) 96,15 %
12.10.2018 22:20 14,8 C 12,8 C 9,4 C 74 % 1024,4 hPa 0,0 l/m 2,5 km/h (1 Bft) O 91 0 min 0,000 mm 0,0 UV-I 0 W/m 10,2 C 14,8 C 4,8 km/h (1 Bft) 96,77 %
12.10.2018 22:22 14,8 C 12,8 C 9,4 C 74 % 1024,5 hPa 0,0 l/m 2,8 km/h (1 Bft) O 91 0 min 0,000 mm 0,0 UV-I 0 W/m 10,2 C 14,8 C 4,8 km/h (1 Bft) 97,87 %
12.10.2018 22:24 14,8 C 12,8 C 9,4 C 74 % 1024,5 hPa 0,0 l/m 2,4 km/h (1 Bft) O 91 0 min 0,000 mm 0,0 UV-I 0 W/m 10,2 C 14,8 C 3,2 km/h (1 Bft) 95,74 %
12.10.2018 22:26 14,7 C 12,8 C 9,4 C 74 % 1024,5 hPa 0,0 l/m 1,5 km/h (1 Bft) O 91 0 min 0,000 mm 0,0 UV-I 0 W/m 10,1 C 14,7 C 3,2 km/h (1 Bft) 95,74 %
12.10.2018 22:28 14,7 C 12,8 C 9,4 C 74 % 1024,5 hPa 0,0 l/m 2,5 km/h (1 Bft) O 91 0 min 0,000 mm 0,0 UV-I 0 W/m 10,1 C 14,7 C 4,8 km/h (1 Bft) 94,34 %
12.10.2018 22:30 14,7 C 12,8 C 8,9 C 74 % 1024,6 hPa 0,0 l/m 2,7 km/h (1 Bft) O 91 0 min 0,000 mm 0,0 UV-I 0 W/m 10,1 C 14,7 C 4,8 km/h (1 Bft) 91,49 %
12.10.2018 22:32 14,6 C 12,8 C 8,9 C 74 % 1024,5 hPa 0,0 l/m 2,8 km/h (1 Bft) O 91 0 min 0,000 mm 0,0 UV-I 0 W/m 10,0 C 14,6 C 4,8 km/h (1 Bft) 95,12 %
12.10.2018 22:34 14,5 C 12,8 C 8,9 C 75 % 1024,6 hPa 0,0 l/m 3,7 km/h (1 Bft) O 91 0 min 0,000 mm 0,0 UV-I 0 W/m 10,1 C 14,5 C 4,8 km/h (1 Bft) 96,00 %
12.10.2018 22:36 14,6 C 12,8 C 9,4 C 75 % 1024,6 hPa 0,0 l/m 3,9 km/h (1 Bft) O 91 0 min 0,000 mm 0,0 UV-I 0 W/m 10,2 C 14,6 C 4,8 km/h (1 Bft) 89,36 %
12.10.2018 22:39 14,4 C 12,8 C 8,9 C 75 % 1024,6 hPa 0,0 l/m 2,6 km/h (1 Bft) O 91 0 min 0,000 mm 0,0 UV-I 0 W/m 10,0 C 14,4 C 4,8 km/h (1 Bft) 95,77 %
12.10.2018 22:40 14,3 C 12,8 C 8,9 C 75 % 1024,6 hPa 0,0 l/m 2,8 km/h (1 Bft) O 91 0 min 0,000 mm 0,0 UV-I 0 W/m 9,9 C 14,3 C 4,8 km/h (1 Bft) 91,30 %
12.10.2018 22:42 14,3 C 12,8 C 8,9 C 76 % 1024,6 hPa 0,0 l/m 3,0 km/h (1 Bft) O 91 0 min 0,000 mm 0,0 UV-I 0 W/m 10,1 C 14,3 C 4,8 km/h (1 Bft) 92,11 %
12.10.2018 22:44 14,2 C 12,8 C 8,3 C 76 % 1024,7 hPa 0,0 l/m 2,3 km/h (1 Bft) O 91 0 min 0,000 mm 0,0 UV-I 0 W/m 10,0 C 14,2 C 3,2 km/h (1 Bft) 96,43 %
12.10.2018 22:46 14,1 C 12,8 C 8,3 C 76 % 1024,6 hPa 0,0 l/m 2,6 km/h (1 Bft) O 91 0 min 0,000 mm 0,0 UV-I 0 W/m 9,9 C 14,1 C 3,2 km/h (1 Bft) 97,44 %
12.10.2018 22:48 13,8 C 12,8 C 8,3 C 77 % 1024,7 hPa 0,0 l/m 2,6 km/h (1 Bft) O 91 0 min 0,000 mm 0,0 UV-I 0 W/m 9,8 C 13,8 C 4,8 km/h (1 Bft) 97,96 %
12.10.2018 22:50 13,6 C 12,8 C 8,3 C 78 % 1024,7 hPa 0,0 l/m 2,7 km/h (1 Bft) O 91 0 min 0,000 mm 0,0 UV-I 0 W/m 9,8 C 13,6 C 3,2 km/h (1 Bft) 95,83 %
12.10.2018 22:52 13,4 C 12,8 C 8,3 C 78 % 1024,6 hPa 0,0 l/m 3,6 km/h (1 Bft) O-SO 106 0 min 0,000 mm 0,0 UV-I 0 W/m 9,6 C 13,4 C 4,8 km/h (1 Bft) 97,87 %
12.10.2018 22:54 13,3 C 12,8 C 8,3 C 79 % 1024,6 hPa 0,0 l/m 3,2 km/h (1 Bft) O-SO 105 0 min 0,000 mm 0,0 UV-I 0 W/m 9,7 C 13,3 C 4,8 km/h (1 Bft) 97,87 %
12.10.2018 22:56 13,2 C 12,8 C 8,3 C 79 % 1024,6 hPa 0,0 l/m 3,3 km/h (1 Bft) O-SO 105 0 min 0,000 mm 0,0 UV-I 0 W/m 9,6 C 13,2 C 4,8 km/h (1 Bft) 100,00 %
12.10.2018 22:58 13,2 C 12,8 C 8,3 C 80 % 1024,5 hPa 0,0 l/m 3,6 km/h (1 Bft) O-SO 105 0 min 0,000 mm 0,0 UV-I 0 W/m 9,8 C 13,2 C 6,4 km/h (2 Bft) 100,00 %
12.10.2018 23:00 13,2 C 12,8 C 8,3 C 80 % 1024,6 hPa 0,0 l/m 4,0 km/h (1 Bft) O 96 0 min 0,000 mm 0,0 UV-I 0 W/m 9,8 C 13,2 C 6,4 km/h (2 Bft) 100,00 %
12.10.2018 23:02 13,2 C 12,8 C 8,3 C 80 % 1024,6 hPa 0,0 l/m 3,8 km/h (1 Bft) O-SO 107 0 min 0,025 mm 0,0 UV-I 0 W/m 9,8 C 13,2 C 6,4 km/h (2 Bft) 100,00 %
12.10.2018 23:04 13,3 C 12,8 C 8,3 C 80 % 1024,6 hPa 0,0 l/m 2,7 km/h (1 Bft) O-SO 107 0 min 0,000 mm 0,0 UV-I 0 W/m 9,9 C 13,3 C 4,8 km/h (1 Bft) 100,00 %
12.10.2018 23:06 13,3 C 12,8 C 7,8 C 79 % 1024,6 hPa 0,0 l/m 2,5 km/h (1 Bft) O-SO 107 0 min 0,000 mm 0,0 UV-I 0 W/m 9,7 C 13,3 C 4,8 km/h (1 Bft) 100,00 %
12.10.2018 23:08 13,4 C 12,8 C 8,3 C 79 % 1024,5 hPa 0,0 l/m 3,4 km/h (1 Bft) O-SO 106 0 min 0,000 mm 0,0 UV-I 0 W/m 9,8 C 13,4 C 4,8 km/h (1 Bft) 100,00 %
12.10.2018 23:10 13,3 C 12,8 C 7,8 C 79 % 1024,6 hPa 0,0 l/m 2,7 km/h (1 Bft) O-SO 106 0 min 0,000 mm 0,0 UV-I 0 W/m 9,7 C 13,3 C 4,8 km/h (1 Bft) 100,00 %
12.10.2018 23:12 13,3 C 12,8 C 8,3 C 80 % 1024,6 hPa 0,0 l/m 1,9 km/h (1 Bft) O-SO 106 0 min 0,000 mm 0,0 UV-I 0 W/m 9,9 C 13,3 C 3,2 km/h (1 Bft) 100,00 %
12.10.2018 23:14 13,4 C 12,8 C 8,3 C 79 % 1024,6 hPa 0,0 l/m 1,6 km/h (1 Bft) O-SO 106 0 min 0,000 mm 0,0 UV-I 0 W/m 9,8 C 13,4 C 3,2 km/h (1 Bft) 100,00 %
12.10.2018 23:16 13,2 C 12,8 C 8,3 C 80 % 1024,6 hPa 0,0 l/m 0,3 km/h (0 Bft) O-SO 106 0 min 0,000 mm 0,0 UV-I 0 W/m 9,8 C 13,2 C 1,6 km/h (1 Bft) 100,00 %
12.10.2018 23:18 13,0 C 12,8 C 8,3 C 80 % 1024,6 hPa 0,0 l/m 0,2 km/h (0 Bft) O-SO 106 0 min 0,000 mm 0,0 UV-I 0 W/m 9,6 C 13,0 C 1,6 km/h (1 Bft) 100,00 %
12.10.2018 23:20 12,8 C 12,8 C 7,8 C 80 % 1024,6 hPa 0,0 l/m 0,0 km/h (0 Bft) O-SO 106 0 min 0,000 mm 0,0 UV-I 0 W/m 9,4 C 12,8 C 0,0 km/h (0 Bft) 97,87 %
12.10.2018 23:22 12,4 C 12,8 C 7,8 C 81 % 1024,6 hPa 0,0 l/m 1,8 km/h (1 Bft) O-SO 106 0 min 0,000 mm 0,0 UV-I 0 W/m 9,2 C 12,4 C 3,2 km/h (1 Bft) 100,00 %
12.10.2018 23:24 12,3 C 12,8 C 7,8 C 83 % 1024,5 hPa 0,0 l/m 3,3 km/h (1 Bft) O-SO 106 0 min 0,000 mm 0,0 UV-I 0 W/m 9,5 C 12,3 C 4,8 km/h (1 Bft) 97,87 %
12.10.2018 23:26 12,3 C 12,8 C 7,8 C 83 % 1024,5 hPa 0,0 l/m 3,0 km/h (1 Bft) O-SO 106 0 min 0,000 mm 0,0 UV-I 0 W/m 9,5 C 12,3 C 4,8 km/h (1 Bft) 100,00 %
12.10.2018 23:28 12,3 C 12,8 C 7,8 C 83 % 1024,5 hPa 0,0 l/m 3,9 km/h (1 Bft) O-SO 106 0 min 0,000 mm 0,0 UV-I 0 W/m 9,5 C 12,3 C 4,8 km/h (1 Bft) 96,23 %
12.10.2018 23:30 12,3 C 12,8 C 7,8 C 84 % 1024,5 hPa 0,0 l/m 3,0 km/h (1 Bft) O-SO 106 0 min 0,000 mm 0,0 UV-I 0 W/m 9,7 C 12,3 C 4,8 km/h (1 Bft) 100,00 %
12.10.2018 23:32 12,3 C 12,8 C 7,8 C 83 % 1024,4 hPa 0,0 l/m 3,4 km/h (1 Bft) O-SO 106 0 min 0,000 mm 0,0 UV-I 0 W/m 9,5 C 12,3 C 6,4 km/h (2 Bft) 100,00 %
12.10.2018 23:34 12,3 C 12,8 C 7,8 C 83 % 1024,5 hPa 0,0 l/m 3,2 km/h (1 Bft) O-SO 106 0 min 0,000 mm 0,0 UV-I 0 W/m 9,5 C 12,3 C 6,4 km/h (2 Bft) 100,00 %
12.10.2018 23:36 12,5 C 12,8 C 7,8 C 83 % 1024,4 hPa 0,0 l/m 3,3 km/h (1 Bft) O 97 0 min 0,000 mm 0,0 UV-I 0 W/m 9,7 C 12,5 C 4,8 km/h (1 Bft) 97,14 %
12.10.2018 23:38 12,6 C 12,8 C 7,8 C 82 % 1024,5 hPa 0,0 l/m 2,7 km/h (1 Bft) O 97 0 min 0,000 mm 0,0 UV-I 0 W/m 9,6 C 12,6 C 4,8 km/h (1 Bft) 100,00 %
12.10.2018 23:40 12,7 C 12,8 C 7,8 C 82 % 1024,5 hPa 0,0 l/m 3,5 km/h (1 Bft) O 101 0 min 0,000 mm 0,0 UV-I 0 W/m 9,7 C 12,7 C 4,8 km/h (1 Bft) 94,64 %
12.10.2018 23:42 12,9 C 12,8 C 7,8 C 82 % 1024,4 hPa 0,0 l/m 2,3 km/h (1 Bft) O 101 0 min 0,000 mm 0,0 UV-I 0 W/m 9,9 C 12,9 C 4,8 km/h (1 Bft) 97,37 %
12.10.2018 23:44 12,9 C 12,8 C 7,8 C 81 % 1024,5 hPa 0,0 l/m 2,1 km/h (1 Bft) O 101 0 min 0,000 mm 0,0 UV-I 0 W/m 9,7 C 12,9 C 3,2 km/h (1 Bft) 98,00 %
12.10.2018 23:46 12,8 C 12,8 C 7,8 C 81 % 1024,5 hPa 0,0 l/m 2,8 km/h (1 Bft) O 101 0 min 0,000 mm 0,0 UV-I 0 W/m 9,6 C 12,8 C 4,8 km/h (1 Bft) 95,12 %
12.10.2018 23:48 12,6 C 12,8 C 8,3 C 81 % 1024,5 hPa 0,0 l/m 3,2 km/h (1 Bft) O 101 0 min 0,000 mm 0,0 UV-I 0 W/m 9,4 C 12,6 C 4,8 km/h (1 Bft) 96,43 %
12.10.2018 23:50 12,3 C 12,8 C 8,3 C 81 % 1024,4 hPa 0,0 l/m 3,4 km/h (1 Bft) O-SO 111 0 min 0,000 mm 0,0 UV-I 0 W/m 9,1 C 12,3 C 9,7 km/h (2 Bft) 97,87 %
12.10.2018 23:52 12,2 C 12,8 C 8,3 C 82 % 1024,4 hPa 0,0 l/m 3,0 km/h (1 Bft) O-SO 111 0 min 0,000 mm 0,0 UV-I 0 W/m 9,2 C 12,2 C 4,8 km/h (1 Bft) 96,00 %
12.10.2018 23:54 12,1 C 12,8 C 8,3 C 82 % 1024,4 hPa 0,0 l/m 2,4 km/h (1 Bft) O-SO 111 0 min 0,000 mm 0,0 UV-I 0 W/m 9,1 C 12,1 C 3,2 km/h (1 Bft) 94,74 %
12.10.2018 23:56 11,9 C 12,8 C 8,3 C 83 % 1024,4 hPa 0,0 l/m 1,6 km/h (1 Bft) O-SO 111 0 min 0,000 mm 0,0 UV-I 0 W/m 9,1 C 11,9 C 3,2 km/h (1 Bft) 95,12 %
12.10.2018 23:58 11,8 C 12,8 C 7,8 C 84 % 1024,3 hPa 0,0 l/m 3,0 km/h (1 Bft) O-SO 111 0 min 0,000 mm 0,0 UV-I 0 W/m 9,2 C 11,8 C 4,8 km/h (1 Bft) 94,34 %
_ Min-Zeit 06:18 00:00 05:04 14:26 00:00 - 01:04 - - - - - - 04:52 05:18 01:06 11:16
Minimum _ 6,8 C 12,8 C 4,4 C 46 % 1017,4 hPa - 0,0 km/h (0 Bft) - - - - - - 4,8 C 6,7 C 0,0 km/h (0 Bft) 80,00 %
_ Max-Zeit 15:20 00:00 12:14 06:22 22:44 00:00 15:02 - - 09:20 14:02 12:38 12:38 15:04 15:22 12:42 00:00
Maximum _ 22,8 C 12,8 C 31,1 C 89 % 1024,7 hPa 0,0 l/m 8,2 km/h
NO (2 Bft)
- - 5 min 0,330 mm 2,1 UV-I 550 W/m 12,0 C 22,8 C 12,9 km/h
O-NO (3 Bft)
100,00 %
Durchschnitt _ 14,6 C 12,8 C 13,2 C 69 % 1022,2 hPa #0,0 l/m 3,5 km/h (1 Bft) SW - #9:59 h #2,362 mm 1,4 UV-I 287 W/m 8,5 C 14,6 C 5,2 km/h (1 Bft) 97,44 %